GFSGL_sfc_thetae_000.txt.gz
Theta_e
287 288 288 288 289 289 288 289 289 290 291 291 291 291 288 288 288 285 284 284 284 283 281 281 281 281 280 280 280 279 279 279 276 279 283 285 285 288 289 291 291 290 290
287 287 287 288 288 287 287 287 288 288 288 289 289 289 288 287 285 283 283 283 282 281 281 280 280 281 279 278 278 278 278 279 278 277 280 282 284 286 287 288 289 289 288
285 285 287 287 287 287 286 286 287 287 287 288 289 287 286 284 284 283 283 282 280 280 280 280 279 279 277 277 277 278 279 281 281 280 280 282 283 284 284 287 286 286 287
285 285 286 287 287 287 286 286 287 288 288 287 286 286 284 284 283 283 281 280 280 280 280 280 279 279 278 278 278 278 279 278 279 280 280 280 281 283 282 281 281 283 283
285 285 286 287 287 287 287 287 287 287 289 286 286 283 282 283 282 281 280 280 279 279 279 280 280 281 283 282 280 278 278 278 278 278 278 279 280 279 278 280 279 280 281
285 285 287 288 288 287 287 287 287 290 286 283 280 281 281 282 285 286 285 281 280 279 280 280 280 280 280 281 280 280 280 277 277 277 277 277 279 280 280 279 278 277 277
285 286 287 287 287 286 286 286 286 285 284 283 281 281 280 282 286 285 283 279 278 278 277 276 277 278 278 278 278 279 280 281 281 280 278 278 279 280 280 278 277 277 277
285 285 286 286 286 285 285 285 285 285 284 279 280 280 280 281 283 283 281 277 277 276 276 276 275 276 277 278 278 279 278 279 280 279 279 279 280 281 280 280 279 278 279
284 284 285 286 285 285 284 284 284 284 281 281 281 279 278 278 281 281 279 276 275 275 276 276 276 276 278 280 278 277 277 278 280 281 281 281 281 282 282 280 277 277 276
284 284 285 285 284 284 283 282 282 280 280 280 279 277 278 276 279 279 278 274 271 274 275 276 277 277 279 279 278 276 274 277 278 279 279 279 280 279 281 280 279 277 278
285 284 284 284 283 283 282 281 279 279 278 277 277 276 276 277 276 278 278 273 273 275 274 274 275 277 278 278 279 276 277 277 277 277 277 278 278 278 278 278 279 278 276
284 283 283 283 283 283 280 278 279 277 276 274 269 272 273 274 276 277 278 278 277 268 273 274 273 277 277 277 276 278 278 276 275 275 275 275 276 277 279 279 279 279 280
283 283 283 283 282 282 279 277 277 275 273 273 275 270 271 274 272 276 277 277 277 270 272 274 276 275 275 275 275 276 275 274 274 273 273 274 276 278 280 281 281 282 281
283 282 282 281 282 282 280 279 277 273 272 275 273 272 269 270 269 270 272 269 272 273 270 269 270 273 270 271 272 272 272 273 272 272 273 274 277 278 279 280 280 280 279
283 283 282 280 281 281 279 279 278 278 276 274 273 272 264 261 268 273 274 269 266 269 264 262 265 268 269 270 270 270 270 270 270 271 272 272 274 276 278 280 280 280 279
283 284 282 283 284 281 280 280 283 282 282 282 281 273 267 274 277 279 279 278 277 275 265 261 258 259 265 268 269 268 267 267 268 269 270 271 271 272 275 277 278 278 278
283 284 283 283 283 280 278 277 275 277 281 283 283 282 280 275 279 279 279 278 276 272 263 261 257 257 261 268 269 268 267 266 266 267 268 269 269 271 273 274 275 275 275
284 283 282 281 280 280 278 277 275 271 270 271 276 281 282 281 281 280 279 275 267 266 264 263 261 261 264 266 268 267 267 265 264 264 265 267 267 269 271 272 273 272 273
284 283 281 279 271 273 274 273 274 273 273 271 268 272 273 281 281 281 279 266 265 264 265 265 262 262 264 265 260 261 263 264 263 262 263 263 264 267 269 270 269 268 270
285 283 280 279 277 272 271 275 275 273 274 272 269 269 267 271 265 264 258 258 259 264 264 265 266 264 263 262 258 256 260 261 264 264 263 262 263 264 266 267 267 267 269
285 284 279 275 278 280 277 273 273 271 275 273 270 266 267 270 270 267 265 262 263 265 265 265 264 261 259 258 262 259 259 259 262 264 264 265 263 264 266 266 266 268 269
283 282 280 280 279 278 278 276 272 271 272 273 274 266 267 263 267 267 267 267 267 266 267 265 265 265 264 264 263 257 257 257 258 260 262 264 265 266 265 265 265 265 267
282 282 280 278 279 275 269 271 271 269 270 272 273 272 269 271 268 268 272 270 267 265 264 264 263 263 262 260 259 261 261 262 261 258 258 260 264 265 265 264 265 265 265
284 283 282 278 277 272 270 270 270 270 271 273 273 273 273 272 271 271 270 268 265 264 260 262 264 265 264 260 258 259 262 260 260 261 258 259 262 264 265 265 265 265 265
284 284 282 279 277 277 278 276 276 276 276 275 276 276 276 274 273 272 271 269 266 263 263 261 263 264 264 263 262 262 259 263 259 258 260 259 259 259 261 265 264 265 264
284 284 283 282 280 280 280 279 279 279 278 279 279 277 276 276 276 275 274 271 268 266 264 262 263 264 263 263 263 262 259 260 259 259 258 262 260 261 261 261 264 265 265

GFSGL_sfc_thetae_003.txt.gz
Theta_e
294 294 295 295 295 296 295 295 296 297 298 297 297 297 296 295 294 294 293 292 291 292 291 289 288 288 287 287 286 286 284 284 280 283 284 287 287 288 289 293 294 294 294
293 293 294 295 295 294 294 294 295 295 295 295 295 295 295 294 293 292 291 291 290 289 289 287 287 286 286 286 285 284 284 284 282 279 283 284 286 288 289 290 292 292 293
292 292 293 294 294 294 294 294 294 294 294 295 295 293 292 292 291 290 290 289 288 288 287 286 286 285 285 285 284 283 282 282 282 281 280 283 284 287 287 289 290 291 290
291 291 292 293 293 293 293 293 294 294 294 294 293 293 292 289 289 289 288 288 287 286 286 286 285 285 284 283 283 283 283 281 280 279 279 280 282 285 286 286 286 289 288
291 291 292 293 294 293 293 293 293 294 294 293 292 288 288 288 287 288 287 287 287 286 286 285 284 283 283 282 281 281 280 279 279 279 278 279 280 281 282 284 285 286 287
291 291 292 293 293 293 292 292 293 293 294 290 290 288 287 286 286 286 286 285 283 282 281 281 281 280 281 280 280 280 280 278 278 278 279 278 279 281 282 282 282 283 282
290 290 291 292 292 292 291 291 292 292 293 292 288 287 287 287 284 283 282 282 281 281 280 279 279 279 279 280 280 280 281 281 281 280 279 279 280 281 282 282 281 281 281
289 290 290 291 291 291 291 290 292 292 291 290 287 286 286 284 282 282 281 282 281 280 279 279 278 279 279 279 280 280 279 280 281 281 281 281 282 283 282 282 282 282 283
289 289 290 291 290 290 290 291 291 289 289 288 287 285 283 282 281 280 280 281 279 279 279 279 279 278 279 280 279 278 278 279 281 281 282 282 282 282 282 282 281 280 279
289 290 290 290 290 290 290 290 289 288 285 286 283 282 279 281 279 279 280 280 278 279 279 279 278 278 278 279 278 278 276 278 278 279 280 281 282 282 281 282 281 279 280
289 290 290 290 290 290 290 289 287 286 285 284 282 281 280 280 280 278 279 280 279 278 277 277 278 277 278 278 278 278 277 278 278 278 278 280 280 281 282 283 283 282 280
289 289 289 290 289 288 288 288 285 285 283 282 281 281 281 280 277 278 279 279 278 278 277 277 278 277 277 276 276 276 277 277 277 277 277 278 279 280 281 282 283 283 284
288 288 289 289 289 288 287 286 284 283 283 282 281 281 281 281 280 277 278 278 278 278 278 277 276 276 275 275 275 275 274 276 275 275 276 277 278 280 281 282 283 284 284
287 287 288 287 287 287 286 285 284 283 283 282 282 282 281 281 280 280 280 281 278 278 277 277 275 275 274 274 275 275 275 274 274 274 275 277 279 280 281 283 282 283 282
286 286 286 286 287 287 286 285 284 284 285 284 283 282 282 281 281 280 279 281 280 278 275 276 276 275 274 274 275 274 274 273 273 273 275 276 277 278 280 282 283 283 282
285 286 286 286 286 286 286 285 283 284 282 282 282 282 283 280 279 279 280 280 279 277 276 275 274 274 273 274 273 273 273 271 272 273 274 275 275 277 278 280 281 281 281
285 286 287 285 285 286 286 285 284 284 282 283 284 284 282 281 280 281 280 280 279 277 277 276 275 275 274 274 273 273 272 272 271 272 273 273 274 276 277 278 279 279 279
286 285 286 286 286 286 286 286 284 283 283 284 283 282 283 283 282 281 281 280 279 277 277 276 276 276 275 274 274 273 273 272 271 271 272 272 273 274 275 276 277 277 278
287 288 287 286 285 284 283 283 284 283 283 283 284 281 281 281 283 282 282 281 279 279 279 278 278 277 276 276 275 273 272 272 270 270 271 271 272 273 274 275 275 274 275
288 286 286 287 285 284 284 284 284 284 284 283 283 283 283 277 281 282 282 281 280 279 279 279 279 278 277 276 276 274 273 273 272 271 271 271 271 272 273 273 274 275 275
287 287 285 285 285 285 284 284 284 284 283 283 283 284 280 281 282 282 282 281 279 280 280 280 280 279 278 277 275 275 273 273 271 271 271 272 271 271 272 273 273 274 274
285 285 285 284 284 284 285 285 284 283 283 282 283 284 276 277 281 282 282 282 282 281 281 281 280 280 279 278 277 276 273 272 272 271 271 270 271 272 272 271 272 272 273
285 285 284 284 284 283 283 283 283 283 282 282 282 282 283 281 281 281 282 283 282 282 281 280 279 279 279 277 277 276 274 273 273 272 270 270 271 272 272 271 271 271 271
285 285 285 284 285 284 282 282 283 281 281 282 282 282 282 283 283 282 282 283 282 281 281 278 278 278 278 277 276 275 274 273 273 272 269 270 271 271 271 271 271 270 270
285 285 285 285 284 284 283 282 282 283 283 283 283 283 283 283 282 283 283 283 282 281 280 277 277 277 276 274 275 273 273 270 270 269 270 269 269 269 270 270 270 271 270
285 285 285 285 285 284 284 284 284 284 284 284 284 284 284 283 283 283 283 282 281 280 280 279 277 275 276 276 274 272 268 267 269 266 269 270 270 270 271 270 269 271 270

GFSGL_sfc_thetae_006.txt.gz
Theta_e
300 300 300 301 300 300 299 298 298 299 299 299 300 300 299 298 298 297 295 294 293 293 293 292 291 291 291 290 290 289 288 287 284 286 288 289 288 289 290 291 293 293 295
299 299 299 300 299 298 298 297 298 298 298 298 298 298 298 297 297 295 293 293 293 292 292 291 290 290 290 290 289 288 287 287 284 282 285 285 286 287 288 289 289 291 295
297 298 299 299 298 297 297 297 297 297 298 298 298 297 296 295 294 293 294 293 292 292 291 290 290 289 288 288 288 287 286 285 286 284 282 284 285 286 286 288 288 291 292
297 297 297 297 297 297 297 297 297 297 297 297 297 297 296 294 293 293 292 292 292 291 291 290 289 288 287 286 285 284 284 283 283 282 281 281 283 285 286 285 286 289 290
296 296 296 297 298 297 297 296 296 297 297 297 295 294 294 293 291 291 291 292 291 289 289 287 287 285 282 282 282 283 282 281 280 279 280 281 281 281 282 284 284 286 288
296 296 296 296 296 296 296 296 296 296 296 296 296 295 294 292 286 285 285 288 288 287 285 285 285 283 283 281 281 281 281 280 279 279 279 279 280 282 284 283 284 283 282
295 295 295 295 295 295 295 295 294 294 295 295 295 294 293 292 284 283 282 287 287 285 284 284 283 283 282 283 282 281 282 282 281 281 279 279 281 282 283 282 282 283 283
294 294 294 294 294 294 294 294 294 295 294 293 293 293 292 289 282 281 281 286 286 285 284 283 283 283 283 280 281 281 282 282 282 282 282 282 283 284 284 283 283 283 285
293 293 293 293 293 293 293 294 295 294 293 293 292 292 290 288 281 280 281 285 284 283 283 283 282 281 280 279 280 279 280 281 283 282 282 282 282 283 283 283 281 280 281
293 292 293 293 293 293 294 294 295 294 292 291 290 290 283 286 280 279 281 285 283 283 283 282 280 279 278 279 279 279 278 279 279 280 281 282 282 283 282 283 281 279 280
293 293 293 293 293 294 294 295 294 293 291 290 287 288 287 285 284 279 279 283 283 281 281 281 281 279 278 278 278 279 278 278 278 279 279 281 282 283 283 284 284 283 280
293 292 293 293 293 293 293 293 293 291 290 288 287 287 288 286 280 280 279 279 280 281 280 282 281 278 278 277 277 276 276 277 279 279 279 279 280 281 283 284 285 284 285
292 292 292 292 292 292 292 292 291 290 289 288 287 287 288 288 287 280 279 279 279 280 282 280 278 277 277 278 277 276 276 278 278 277 277 278 280 282 283 284 285 285 285
290 291 291 290 289 291 292 291 290 290 289 287 287 286 287 286 286 286 285 285 281 281 281 281 279 277 278 278 279 279 279 278 276 276 277 279 281 282 283 284 284 285 283
290 289 289 290 288 287 289 291 290 290 289 289 288 287 286 285 285 284 283 284 284 282 279 281 281 280 279 280 279 279 279 277 276 277 277 278 279 280 281 284 284 284 283
288 289 290 290 289 287 287 288 286 285 284 284 283 285 288 284 281 281 280 280 280 280 280 280 280 280 279 279 278 278 279 277 276 276 276 277 277 278 279 281 282 283 283
288 289 290 289 289 288 288 286 287 286 284 284 284 284 284 284 282 281 281 281 281 280 279 280 280 280 280 279 279 278 277 277 276 275 276 276 277 277 279 279 280 281 281
289 286 290 290 291 289 288 288 288 287 287 287 285 284 284 284 284 282 282 281 281 280 281 280 280 280 280 280 279 278 278 277 277 276 275 276 276 276 277 278 278 278 278
289 290 291 290 290 289 289 289 288 287 286 286 287 284 285 283 283 284 283 282 281 281 282 281 282 281 280 280 280 279 278 277 275 275 276 275 276 276 277 277 277 277 277
290 287 287 287 287 288 289 288 287 287 286 286 286 286 286 283 284 284 284 284 284 283 283 282 282 282 282 281 280 279 278 278 277 276 276 276 276 276 275 276 277 276 277
291 290 286 288 288 286 288 287 287 287 287 287 288 288 285 286 285 285 285 286 285 284 285 284 284 283 282 281 280 279 279 278 277 276 275 276 275 275 275 275 276 276 277
291 290 289 288 288 288 287 287 287 287 287 286 288 287 284 286 285 286 287 286 287 287 287 286 285 285 283 282 281 280 279 278 277 277 276 274 275 276 276 275 275 275 275
289 288 287 288 287 287 286 285 286 286 286 286 287 287 287 286 286 286 286 286 287 287 287 287 285 285 285 284 283 282 280 279 278 277 275 274 275 276 276 275 274 274 273
289 287 287 287 287 287 286 285 285 285 285 285 285 286 286 286 285 285 285 285 286 286 285 285 286 285 284 284 282 282 281 280 278 277 274 274 274 275 275 275 274 273 274
288 286 286 286 285 286 285 285 285 285 285 285 285 285 286 286 285 285 285 285 285 285 285 285 285 284 283 282 282 281 280 277 276 276 275 273 273 272 273 274 273 274 273
287 286 286 286 285 286 285 285 285 285 285 285 285 285 285 285 285 285 285 285 285 285 285 285 284 284 283 282 281 280 278 273 273 272 275 275 274 274 274 274 272 273 274

GFSGL_sfc_thetae_009.txt.gz
Theta_e
303 303 302 302 302 302 301 299 299 299 299 298 298 299 299 298 299 298 297 297 295 294 294 293 292 292 291 291 291 291 289 289 286 288 289 290 289 289 289 290 291 292 293
303 302 302 302 301 300 299 299 299 298 298 298 298 298 297 297 297 295 295 294 294 293 293 292 291 291 290 290 290 288 288 288 287 284 286 287 286 287 288 288 289 289 292
301 301 301 301 301 299 299 299 298 298 297 298 298 297 296 297 296 296 294 294 293 293 292 291 291 290 288 288 288 287 287 286 286 284 283 285 286 287 286 287 287 289 290
300 300 300 300 300 299 299 298 297 297 297 297 297 297 296 295 294 293 293 293 293 292 292 291 289 288 287 286 284 284 284 283 283 282 282 282 283 285 285 284 285 288 288
300 299 299 300 300 299 298 298 297 297 297 297 296 296 296 295 293 292 292 292 291 290 290 289 288 286 283 283 282 282 282 281 280 280 279 280 281 282 281 283 283 285 287
299 299 299 299 298 298 297 297 296 296 296 296 295 295 295 294 286 285 284 289 289 289 288 287 287 287 286 284 283 282 282 280 280 279 279 278 280 281 283 283 283 282 280
298 298 297 297 296 296 297 296 295 295 296 295 295 294 294 294 286 283 282 286 288 288 287 286 285 285 284 284 283 283 283 284 283 282 280 280 281 282 282 282 282 282 282
297 296 296 296 295 295 295 295 295 296 295 294 294 294 293 289 284 282 282 286 288 287 286 285 285 284 283 281 280 280 281 282 283 282 282 282 282 282 282 282 281 282 283
295 295 296 295 294 294 294 294 295 295 295 294 294 292 292 289 283 282 281 287 287 286 285 285 284 282 281 280 279 279 279 281 283 284 283 282 283 283 283 283 281 279 280
295 296 294 294 294 293 294 294 295 295 294 294 292 292 285 290 282 281 281 286 285 284 285 285 282 280 279 279 279 278 277 279 278 279 280 281 283 283 284 283 282 279 279
294 294 294 294 294 294 294 294 294 294 294 294 291 291 290 288 286 282 281 283 284 283 282 283 284 281 279 279 279 278 278 278 278 279 280 281 282 283 284 284 284 283 281
294 293 293 293 293 293 293 293 293 293 292 291 289 290 290 289 283 282 281 280 281 281 282 283 283 280 279 279 279 278 278 278 280 279 279 280 280 281 282 284 284 285 285
293 292 292 292 292 292 292 292 292 292 291 290 288 288 288 290 289 283 281 280 280 281 283 282 280 280 280 280 280 279 278 280 278 277 277 278 279 282 283 284 286 286 285
291 291 291 290 290 290 291 292 292 291 290 289 288 287 288 288 288 288 284 283 281 281 283 283 282 281 281 279 281 282 281 280 278 277 277 278 281 282 282 284 283 284 284
289 290 290 290 291 291 290 290 291 292 290 290 289 289 289 287 287 287 286 286 285 283 281 282 282 282 281 281 281 281 281 280 279 278 277 278 278 279 280 283 283 284 282
288 289 290 291 291 291 290 289 289 288 286 285 284 287 290 286 284 283 283 282 281 281 281 281 281 281 281 280 280 280 280 279 279 277 277 277 277 278 278 281 282 282 281
289 289 290 289 290 290 289 287 286 289 285 285 284 284 284 286 285 284 283 282 281 281 279 280 281 281 281 281 281 280 279 280 278 279 277 277 277 277 278 279 279 280 279
289 286 290 291 291 290 290 289 288 288 288 289 285 284 285 285 285 284 283 282 281 282 281 281 282 282 281 281 281 280 280 279 279 278 277 277 277 276 277 277 278 278 278
291 291 291 292 291 289 289 290 289 287 286 287 288 285 286 285 285 285 284 283 282 282 282 283 285 284 283 282 283 282 280 279 278 277 278 277 277 277 276 276 277 277 277
292 288 288 290 289 287 287 287 288 288 288 288 287 287 289 286 285 284 284 284 284 284 284 283 284 285 285 284 283 282 281 280 279 278 278 278 277 277 276 275 276 276 277
294 293 288 289 289 288 287 288 288 288 288 288 288 289 287 288 288 287 287 286 285 286 286 286 286 286 286 285 283 282 281 280 279 278 278 278 277 276 277 277 276 276 276
294 292 290 289 289 289 288 289 288 287 287 287 288 288 286 287 288 287 287 287 287 288 288 287 286 286 286 285 284 283 281 280 280 279 278 277 276 277 277 277 276 276 275
292 290 290 289 288 287 288 288 287 287 287 287 287 287 287 286 287 287 287 287 288 287 288 287 286 286 287 287 286 285 282 281 281 280 278 277 276 277 277 276 276 275 275
290 290 290 289 287 289 288 286 287 286 285 286 286 286 286 286 285 286 286 286 286 286 286 286 286 286 285 286 286 285 284 283 282 280 277 277 276 276 276 276 275 275 274
287 287 287 287 287 286 286 286 285 286 286 285 285 285 286 286 286 285 286 286 286 286 286 286 286 286 285 285 285 284 283 282 281 280 278 276 275 275 274 275 275 274 274
285 286 286 286 285 285 285 285 285 285 285 285 285 285 285 285 285 285 286 286 285 285 285 285 286 285 285 285 284 283 282 281 278 277 278 277 276 275 275 275 274 274 274

GFSGL_sfc_thetae_012.txt.gz
Theta_e
304 303 303 302 302 302 299 298 297 297 297 296 297 296 296 296 296 294 294 293 293 291 293 290 290 291 287 287 287 286 285 284 281 283 285 285 284 285 286 286 287 286 287
304 303 302 303 302 300 299 297 297 296 297 296 296 296 296 296 294 294 292 292 291 290 290 290 289 290 286 286 285 284 284 283 281 279 282 282 282 284 284 284 286 287 286
303 301 301 301 302 299 298 297 297 296 295 295 296 296 295 295 294 294 293 292 291 290 290 288 288 287 283 283 282 281 281 283 281 279 279 281 281 282 282 283 284 285 287
302 300 300 300 301 299 298 297 297 296 295 295 296 296 295 294 293 293 291 290 290 290 289 288 286 284 281 280 280 279 280 278 279 278 278 278 279 280 281 281 280 283 283
301 299 300 300 300 299 298 298 297 296 295 295 295 295 294 294 293 289 289 288 287 286 286 287 285 285 285 282 280 278 278 277 277 277 277 277 277 277 277 280 279 281 282
300 300 300 299 299 297 297 297 297 296 295 294 293 294 293 294 287 286 286 284 286 285 284 284 284 286 285 284 285 284 282 277 276 276 276 276 277 278 280 280 278 278 277
299 299 299 298 296 296 296 296 295 294 294 294 293 292 291 288 287 285 283 282 284 284 283 282 282 284 283 280 281 281 281 283 283 280 278 278 279 278 279 277 276 277 277
298 297 297 297 296 296 295 294 294 294 293 293 292 292 291 288 286 285 283 281 283 284 282 282 281 280 278 279 277 277 278 279 279 281 277 277 278 279 279 279 278 278 279
296 295 296 296 294 294 293 293 293 293 292 292 293 291 290 284 285 284 282 281 283 282 283 283 281 279 280 280 277 277 276 277 282 281 280 281 283 284 283 280 277 277 275
297 296 295 294 293 292 292 292 293 292 292 292 291 290 287 283 284 283 281 280 281 281 281 281 282 279 280 280 276 275 274 276 276 276 277 280 281 281 284 283 280 277 276
295 295 295 294 292 293 292 292 292 291 291 288 287 287 287 285 282 284 282 280 280 280 279 279 280 281 280 280 279 276 276 277 277 276 277 278 279 280 280 281 282 281 279
294 294 293 293 293 292 291 290 291 290 288 288 286 286 285 285 285 284 283 282 281 277 279 279 280 282 281 281 279 280 280 278 275 273 275 276 277 277 279 281 282 284 283
294 292 292 292 291 291 288 288 288 289 287 286 285 284 283 285 284 284 284 282 281 277 279 281 282 281 282 280 282 281 277 275 275 270 272 275 277 279 280 280 281 283 285
290 290 290 290 289 289 290 289 287 287 286 285 284 283 284 284 284 281 280 280 280 279 279 280 278 278 277 277 277 279 278 276 275 273 271 274 277 277 277 279 278 280 280
289 289 289 288 289 289 290 288 286 287 285 284 284 284 284 283 282 285 283 283 282 281 276 275 275 277 276 278 276 277 277 276 274 273 270 272 274 276 276 278 278 279 278
288 288 288 288 288 288 288 288 288 287 287 287 286 284 284 287 285 285 285 284 283 281 275 273 272 273 274 275 274 274 274 274 274 273 271 271 272 273 275 276 279 278 277
287 287 287 286 287 287 286 285 284 286 288 287 286 285 285 287 285 285 284 284 283 281 273 274 274 275 277 276 275 275 273 273 273 273 271 270 271 272 274 275 276 277 276
288 286 287 287 288 287 286 286 287 286 285 286 286 285 285 285 285 285 285 283 277 279 277 277 277 276 276 276 276 275 274 272 272 272 269 270 269 270 269 273 274 272 274
288 288 288 287 287 285 286 286 285 285 286 285 286 285 284 285 285 285 285 280 278 278 279 279 279 279 279 277 274 274 273 272 270 268 269 271 272 271 269 270 272 272 271
290 287 287 288 288 287 286 285 285 285 284 285 286 285 285 284 283 282 282 281 280 280 280 280 280 279 278 277 277 276 274 275 273 273 270 268 272 269 267 270 267 270 273
290 290 287 288 288 287 286 286 285 285 284 284 285 286 286 286 284 284 282 282 282 282 282 282 281 282 281 279 278 278 276 274 274 272 270 270 270 267 270 270 269 270 272
288 289 289 288 288 287 287 287 287 286 285 284 285 285 285 285 285 285 285 285 285 284 284 284 283 283 283 282 282 281 278 275 274 273 270 269 269 268 269 272 271 268 269
286 287 287 287 287 287 287 287 286 285 285 285 285 284 284 285 285 285 286 285 285 285 286 286 285 285 285 285 284 283 281 279 278 276 272 269 269 268 271 267 268 268 267
283 283 283 284 284 285 286 286 285 285 285 285 285 284 284 285 285 285 285 285 285 285 286 286 285 285 285 285 285 284 283 282 278 276 273 271 269 269 267 268 268 267 266
282 282 282 283 283 283 285 285 285 284 284 284 284 284 285 285 284 284 285 285 285 285 285 285 286 285 285 285 285 284 283 282 280 275 275 270 268 266 267 266 266 267 266
279 278 278 281 283 284 284 284 283 282 283 284 284 284 283 282 282 282 281 282 281 282 281 282 281 283 285 285 285 285 283 282 280 277 275 274 269 267 266 266 266 265 267

GFSGL_sfc_thetae_015.txt.gz
Theta_e
299 298 297 297 298 297 295 295 295 293 295 293 293 293 293 292 292 290 290 290 290 289 289 289 288 289 286 285 284 282 281 280 276 279 281 282 281 281 283 284 285 284 285
299 298 297 298 298 297 297 295 295 293 293 293 293 293 294 293 292 292 291 290 289 289 289 288 287 289 284 282 281 279 278 278 277 276 278 279 279 280 281 281 283 286 285
299 298 298 299 299 298 297 295 294 293 292 294 293 293 293 293 292 292 291 290 289 289 289 287 286 284 280 279 278 278 277 280 277 275 276 278 278 279 279 281 282 282 284
299 298 298 300 299 298 296 295 294 294 293 293 293 294 294 293 292 291 290 288 288 287 287 286 284 282 280 278 279 277 278 276 276 275 276 276 277 279 278 277 278 281 281
298 297 298 299 299 297 296 295 294 295 293 293 293 293 293 293 292 289 287 286 285 285 285 285 283 284 286 281 279 277 277 276 275 275 275 276 276 276 276 279 278 278 279
297 297 299 298 297 295 295 295 295 294 294 293 292 292 292 293 289 289 286 283 284 283 283 282 282 284 284 285 283 283 280 276 275 274 276 275 276 276 279 276 275 275 273
296 298 297 295 295 294 294 295 294 294 293 292 292 292 290 289 288 287 285 281 282 282 282 280 281 283 280 279 279 280 279 281 281 277 275 274 274 276 276 276 275 275 275
296 294 294 294 294 294 294 294 292 292 291 291 291 291 289 288 287 287 284 280 281 282 281 280 279 278 278 278 277 276 276 277 277 278 275 275 276 277 277 278 277 277 277
293 294 295 294 293 294 292 291 291 291 290 289 290 290 287 285 287 285 282 281 281 281 282 281 281 278 280 280 277 276 275 276 280 281 280 281 282 282 282 281 278 278 274
292 293 293 294 293 292 291 291 291 290 290 290 289 288 287 283 286 284 282 278 279 279 280 280 282 278 280 280 277 275 273 275 275 276 276 278 279 279 282 280 279 277 277
295 294 294 294 293 292 291 290 289 288 288 286 285 284 283 282 283 285 284 280 278 279 278 278 278 281 281 282 281 276 275 277 277 276 276 276 277 278 278 279 280 279 278
293 293 293 293 292 292 289 288 288 287 285 285 282 282 282 282 283 285 285 282 282 276 278 278 278 283 283 282 281 281 281 279 271 271 272 273 274 275 277 279 280 280 281
293 293 292 291 291 290 288 286 285 285 282 284 283 282 281 282 281 285 285 284 283 276 277 278 282 283 282 281 282 282 279 275 271 267 270 271 273 276 278 278 279 280 281
289 289 289 288 288 288 288 287 285 281 280 282 281 281 281 281 279 279 280 281 281 279 278 278 277 278 275 276 276 278 277 275 274 271 269 270 272 273 273 276 276 277 277
287 287 287 285 286 286 287 286 284 284 283 281 280 281 283 280 280 282 281 278 277 278 273 271 272 272 274 276 275 275 275 274 272 269 268 268 271 273 273 275 276 277 274
286 285 283 283 283 285 284 284 286 286 286 287 286 283 281 285 286 286 285 284 283 282 278 272 269 268 270 273 273 273 271 272 272 271 267 269 269 269 272 274 276 275 275
283 283 282 283 282 282 282 282 280 283 286 287 287 287 286 284 286 286 286 285 284 282 271 271 268 269 271 274 275 273 270 271 271 270 268 266 267 269 270 272 273 273 274
284 284 283 282 282 283 283 282 279 278 280 282 284 286 286 286 286 286 285 284 277 279 275 274 273 273 274 276 276 274 271 269 268 268 265 263 262 265 266 269 270 268 270
284 283 283 284 284 283 283 283 285 285 282 282 282 280 281 286 286 285 285 282 279 277 277 277 276 276 276 277 277 275 272 268 267 264 264 264 263 266 265 267 268 267 269
286 283 283 284 284 284 286 286 286 285 283 281 281 282 281 278 282 283 282 282 280 279 279 278 279 278 278 278 278 277 273 270 268 266 265 262 262 262 263 264 264 264 269
284 284 283 285 285 285 286 286 285 284 283 282 282 282 280 284 284 285 284 282 282 281 281 281 281 280 280 279 277 276 277 276 274 271 269 267 260 264 265 264 265 267 269
281 281 281 280 282 282 283 284 284 285 285 285 285 285 280 282 282 283 285 284 283 283 284 283 282 281 281 280 281 280 278 277 276 274 270 268 267 265 264 264 265 265 265
277 277 278 279 279 280 280 281 282 283 284 285 285 284 280 281 282 282 283 285 285 285 285 284 284 283 283 283 283 282 281 279 278 278 275 271 268 266 263 264 265 264 263
276 276 275 275 276 276 279 281 282 283 283 284 285 284 283 284 282 284 285 285 285 285 285 285 284 284 284 285 285 285 283 282 281 279 277 273 271 268 264 263 264 264 263
273 271 271 271 272 273 273 274 277 279 281 283 282 280 284 282 284 283 282 281 280 281 283 284 284 284 284 284 284 284 284 282 281 280 277 274 271 268 267 264 262 264 263
270 268 267 268 269 270 270 271 271 271 272 273 274 275 276 276 276 277 276 274 274 275 275 275 275 276 277 280 282 283 284 283 281 279 278 275 272 268 266 266 263 262 264

GFSGL_sfc_thetae_021.txt.gz
Theta_e
301 301 301 297 296 295 294 295 295 295 295 295 294 293 293 293 292 290 290 288 288 287 288 287 287 287 285 283 282 280 279 278 275 276 278 278 277 277 279 279 281 280 281
301 299 297 298 296 294 295 296 296 294 295 294 294 293 294 293 292 291 289 289 288 287 287 286 286 288 284 282 280 279 278 277 276 275 275 276 276 277 278 277 280 282 281
302 300 297 295 295 295 297 296 294 294 293 293 292 293 293 293 292 290 289 289 287 287 287 287 286 285 282 280 279 278 277 279 276 275 275 276 276 277 277 278 279 279 282
300 299 298 296 296 296 295 295 294 294 292 292 293 293 293 291 291 291 289 288 287 287 287 286 285 283 281 279 278 277 277 275 276 275 275 275 275 277 276 276 276 278 278
299 298 297 298 297 297 295 294 293 293 292 292 292 293 292 291 291 289 288 286 285 285 284 284 283 283 285 281 278 276 276 275 274 274 273 274 274 274 273 275 274 276 277
298 297 298 297 298 296 294 293 293 293 293 292 293 292 291 292 291 291 288 286 285 283 282 283 283 285 285 286 285 283 279 275 273 272 273 272 273 273 273 273 274 274 274
297 297 298 298 295 293 293 293 293 293 294 294 292 291 290 290 290 291 290 284 283 282 282 282 281 281 282 281 283 282 281 280 280 275 272 273 272 274 275 274 275 276 275
295 294 295 294 292 292 293 292 292 292 291 290 290 289 288 288 289 290 288 282 282 282 281 281 279 279 279 279 277 277 276 277 277 277 275 275 275 276 276 278 278 278 277
292 292 293 293 292 293 292 292 292 292 291 289 288 288 288 286 288 289 285 281 280 280 282 281 280 279 281 283 278 277 276 277 279 281 281 281 281 281 280 276 274 274 273
291 292 293 294 293 293 292 292 292 291 289 288 287 286 287 285 287 288 284 279 280 280 280 280 285 281 282 283 278 276 274 276 276 276 276 278 278 278 280 277 276 274 274
294 294 294 295 294 293 293 292 291 288 286 284 283 283 284 284 283 288 287 280 281 279 280 279 279 283 283 283 282 277 275 277 277 276 277 276 276 276 276 277 277 275 274
294 294 295 294 294 293 291 289 287 285 283 283 281 282 281 282 284 285 287 285 282 279 279 280 279 283 283 283 282 282 282 279 272 271 271 273 273 274 275 276 277 277 277
292 293 292 292 290 289 286 285 284 283 281 281 281 280 280 281 280 284 286 286 285 280 280 280 282 283 283 282 283 283 279 274 270 266 271 272 271 275 275 276 277 277 278
287 286 286 285 285 285 285 285 283 281 280 281 281 281 281 280 279 280 282 284 284 282 279 281 279 279 276 276 276 279 276 274 273 271 270 269 270 271 271 273 272 274 273
285 284 284 282 283 283 283 283 283 283 283 283 282 282 281 281 281 283 283 282 283 283 282 277 277 274 276 277 275 275 274 273 271 268 267 268 270 271 270 272 272 272 267
283 283 281 281 281 282 282 283 286 286 286 286 286 285 285 285 285 286 287 286 286 284 279 278 277 276 275 275 274 274 271 271 272 271 267 269 270 268 269 271 271 269 268
282 282 282 282 282 281 282 281 280 284 286 286 286 286 287 286 286 287 287 286 286 284 279 278 277 277 276 276 275 274 273 272 272 271 270 269 269 268 267 268 268 269 268
281 281 279 279 279 280 279 281 282 282 281 283 286 286 287 287 287 287 287 286 284 283 281 279 280 280 278 276 275 274 274 273 269 269 268 267 267 268 264 266 267 263 265
278 278 278 276 276 276 277 277 277 277 277 278 279 281 284 285 285 286 286 284 283 282 281 281 280 279 278 277 276 275 275 273 268 265 269 269 266 268 265 266 264 264 264
275 275 274 275 275 275 275 275 275 275 275 275 276 277 279 280 281 281 282 282 284 284 282 281 281 280 279 278 276 276 275 274 272 269 270 269 270 267 267 265 260 260 266
274 274 273 274 273 272 272 271 273 272 273 272 272 273 273 276 279 280 282 283 283 283 283 282 281 281 280 279 279 278 277 276 275 274 272 271 269 268 269 266 263 265 267
272 270 270 269 270 269 269 270 269 270 269 269 270 271 271 272 272 274 281 284 284 283 284 283 282 282 281 280 280 279 278 276 277 276 275 274 272 271 271 267 262 261 264
270 265 265 267 267 265 265 266 267 266 266 267 268 268 269 269 269 270 271 272 283 285 284 283 283 283 282 282 282 281 280 278 278 279 277 275 273 273 271 268 265 260 261
266 261 264 264 263 263 262 263 264 263 264 264 265 266 267 268 268 269 269 270 271 272 273 274 275 275 277 283 283 282 282 281 281 279 279 277 275 273 271 268 266 263 260
260 258 258 260 258 260 260 261 261 261 261 262 263 264 265 266 267 267 267 267 268 269 270 271 272 273 274 274 276 278 282 282 282 280 279 279 276 274 272 271 269 264 261
260 259 258 255 256 257 257 259 258 259 259 260 261 262 263 264 264 264 266 265 266 266 268 269 270 270 270 272 274 275 275 278 279 281 280 279 276 275 273 272 269 268 265

GFSGL_sfc_thetae_024.txt.gz
Theta_e
304 304 304 302 301 299 298 296 296 296 296 295 294 294 293 293 293 292 290 289 288 287 287 287 286 287 286 285 283 282 281 280 278 279 279 280 279 279 280 280 281 281 282
303 302 302 299 298 296 296 295 295 296 295 295 294 294 294 293 293 291 289 289 288 286 286 286 286 288 285 284 282 281 280 279 278 276 277 278 278 278 279 278 280 282 282
301 302 300 300 297 296 295 296 296 295 294 294 294 293 293 293 292 291 290 289 287 287 287 286 286 285 284 282 281 279 279 279 278 276 276 278 278 278 278 279 279 280 281
301 300 300 300 298 297 296 294 293 294 293 293 293 293 293 293 292 292 290 288 287 287 286 286 286 284 284 282 280 279 278 277 276 276 276 276 276 278 278 276 276 278 278
300 300 299 298 298 296 293 294 294 294 293 293 293 292 293 292 291 290 289 288 286 285 285 285 284 285 287 283 280 278 277 276 276 275 274 274 274 274 274 275 275 276 277
299 298 299 297 295 294 293 293 291 292 292 291 292 294 293 292 291 291 290 287 286 284 283 282 282 287 287 288 287 283 279 276 275 274 274 273 273 274 275 274 275 275 274
297 296 296 294 293 293 293 292 292 293 294 293 294 292 291 290 290 291 290 286 284 284 283 282 282 282 283 281 285 285 283 282 280 276 274 274 274 275 276 275 276 276 276
293 293 293 292 293 293 293 293 293 294 294 293 292 291 289 289 289 289 289 286 284 283 282 282 281 281 280 280 279 279 278 278 278 278 276 276 276 277 277 278 277 276 277
291 291 292 293 293 293 293 293 293 293 293 292 291 289 289 287 288 288 287 283 281 281 282 282 281 280 282 284 279 277 277 277 280 282 281 281 281 282 281 278 275 274 273
290 291 294 294 294 293 293 293 293 292 291 289 288 288 287 284 287 288 288 280 280 280 280 281 285 281 283 284 280 277 275 277 278 277 277 278 280 279 280 278 276 273 273
293 293 295 295 294 294 293 293 291 290 289 285 284 283 284 284 284 287 288 281 281 280 281 280 281 284 285 285 284 278 276 278 277 277 277 278 278 277 277 278 277 276 274
292 293 293 294 294 293 291 290 287 284 283 282 280 282 282 283 284 285 286 287 283 280 281 281 281 283 285 285 283 282 282 279 277 275 274 275 275 275 276 277 277 278 278
289 288 288 288 287 286 284 283 282 282 279 281 281 281 282 283 282 284 285 286 286 281 282 282 282 283 284 283 284 283 280 278 275 271 273 274 274 276 277 276 277 278 278
284 284 284 283 283 283 283 283 282 280 279 282 281 281 282 283 281 281 281 281 283 283 281 282 281 281 281 281 280 282 282 278 277 275 274 273 273 273 274 275 274 275 274
283 283 282 281 281 282 282 282 282 282 282 282 282 282 281 282 284 284 284 281 281 282 282 275 276 278 278 279 278 278 279 277 274 273 271 272 272 272 273 274 274 274 271
281 281 280 279 279 280 281 280 284 285 285 286 286 285 285 286 286 287 287 287 286 284 281 279 279 278 278 278 278 278 278 277 276 275 272 272 272 272 272 273 273 272 271
279 279 278 278 278 277 277 277 275 278 281 282 282 282 282 283 283 284 285 285 286 285 283 281 280 279 278 278 278 278 277 277 277 275 275 272 271 271 270 271 271 271 271
277 277 276 276 275 275 274 275 275 274 273 274 277 278 279 280 280 282 283 283 282 284 283 282 281 280 279 278 278 278 278 278 275 274 272 271 269 270 269 270 271 269 270
275 275 274 273 272 273 273 273 273 273 273 273 273 273 274 275 276 278 280 279 279 281 282 283 281 281 281 280 279 279 278 277 275 272 273 271 268 270 269 270 270 267 266
274 273 272 272 271 271 271 270 271 270 270 270 270 270 271 270 269 270 271 271 273 279 281 282 283 283 282 280 279 278 278 277 275 272 272 272 269 270 271 271 269 268 270
270 270 269 270 269 269 268 268 268 268 267 267 267 268 268 268 268 268 269 269 270 271 273 283 283 282 281 281 279 278 277 276 276 275 274 273 269 270 271 272 271 269 269
268 267 268 267 267 265 265 266 266 265 265 264 265 266 266 267 267 267 268 268 268 270 271 272 283 283 282 281 280 279 278 277 277 277 275 274 271 271 271 271 270 267 269
267 262 263 265 263 262 261 262 262 262 262 262 262 263 264 264 265 266 265 267 267 268 269 270 272 275 280 282 283 281 279 278 279 279 277 275 273 272 273 271 270 267 267
264 259 262 261 259 260 255 255 257 258 260 260 259 261 262 262 263 262 263 265 265 266 267 268 270 270 271 274 277 283 282 282 281 280 280 278 275 274 273 272 271 269 268
257 255 255 255 251 252 251 254 253 253 256 257 257 259 259 259 261 261 262 263 264 264 265 266 267 268 270 270 273 275 277 281 281 281 280 279 277 275 274 273 272 270 266
258 256 255 252 251 250 250 250 251 250 253 255 255 256 257 257 259 259 260 261 261 262 263 265 265 266 268 270 271 273 273 275 278 280 280 279 277 275 274 273 272 271 269

GFSGL_sfc_thetae_027.txt.gz
Theta_e
322 319 317 314 313 310 307 305 302 299 298 298 296 299 298 297 299 299 299 299 298 298 297 296 296 296 295 295 295 294 292 291 287 288 288 288 287 287 287 286 286 286 286
314 316 315 313 311 308 306 302 300 298 299 297 298 297 298 297 298 297 297 296 296 295 296 295 295 294 295 295 294 292 291 291 288 285 287 286 285 286 285 284 284 285 285
313 311 310 309 307 307 305 302 300 298 297 298 298 297 297 297 297 297 296 296 295 295 296 295 295 295 294 294 293 291 291 288 287 285 284 285 285 285 283 284 284 284 284
309 309 308 307 306 305 304 301 298 298 296 297 298 298 297 296 296 295 296 296 295 295 295 295 295 294 294 294 292 291 289 287 286 284 284 283 284 284 282 281 281 283 282
307 307 307 306 305 303 299 297 296 296 295 295 295 296 296 295 296 296 295 295 295 295 295 294 294 294 292 293 290 290 288 286 285 284 283 282 282 281 280 281 280 281 282
305 305 305 304 301 299 297 296 295 295 294 296 294 296 298 297 292 291 292 295 294 293 293 294 294 291 291 289 287 287 287 286 284 283 282 281 281 281 281 280 280 279 277
303 303 302 300 298 296 296 295 293 294 295 296 297 297 296 297 291 291 290 293 293 293 293 293 292 290 289 290 288 287 285 283 284 285 282 282 281 281 281 280 280 280 279
299 298 298 298 297 295 295 294 295 296 296 296 295 296 296 293 290 290 289 292 293 293 293 293 292 291 289 289 287 287 287 286 285 283 284 284 283 282 282 281 281 281 281
296 296 296 297 296 296 296 295 295 295 295 296 297 294 291 291 291 289 288 291 291 291 292 291 291 291 289 286 286 285 285 284 284 283 283 283 281 281 283 283 280 279 278
295 296 297 297 297 296 297 296 297 297 296 294 291 291 291 294 290 288 288 291 290 290 290 289 286 288 287 285 286 285 283 284 284 283 283 283 283 283 282 283 282 278 278
297 298 298 298 298 298 296 294 293 292 291 290 291 292 291 291 291 288 288 289 289 289 288 288 288 286 285 285 286 285 284 285 283 283 283 282 283 283 283 284 283 281 278
297 295 294 294 293 292 292 292 292 291 290 290 289 289 291 290 288 288 287 287 288 287 287 289 289 286 286 286 286 286 284 282 284 283 282 282 282 282 283 284 283 283 282
290 289 289 289 289 289 289 289 289 289 288 288 288 288 289 290 290 287 286 286 286 287 289 288 286 285 285 285 286 285 283 284 283 282 281 282 283 283 283 283 282 282 281
288 287 287 287 287 287 287 287 286 286 285 285 285 285 285 286 287 289 289 290 287 287 286 288 286 285 285 286 285 285 286 286 284 283 283 283 284 282 282 283 281 281 279
285 284 283 284 283 283 283 283 283 284 284 283 283 283 281 281 282 282 282 282 284 285 286 286 287 285 285 285 285 285 285 285 283 283 283 282 281 281 281 282 281 280 278
282 282 281 281 281 281 280 280 281 280 281 281 280 280 280 280 279 279 280 280 281 283 283 282 285 285 284 284 283 283 283 283 284 283 282 282 281 281 280 281 280 279 278
279 279 279 279 279 278 278 277 277 279 279 278 278 278 278 277 277 278 278 278 280 283 283 284 283 285 285 284 283 283 283 284 284 283 281 281 281 281 280 280 280 279 278
278 276 278 277 277 276 276 276 276 275 274 275 276 275 275 275 275 276 276 276 276 277 278 280 283 284 285 285 284 283 284 284 283 282 281 282 281 281 280 280 280 279 278
276 275 276 276 275 274 274 274 274 273 273 273 273 274 273 272 273 274 274 273 272 272 274 274 275 278 284 285 285 284 283 283 284 281 281 281 281 280 280 280 281 277 276
274 273 273 274 273 272 272 272 272 271 271 270 270 270 270 270 270 270 271 271 271 271 271 272 273 275 276 285 285 284 284 283 282 281 281 281 281 280 280 280 280 279 277
273 272 270 272 271 270 270 269 269 269 268 268 269 269 266 267 268 269 269 269 269 270 270 271 272 273 274 281 286 284 283 282 282 282 280 281 280 278 280 281 281 279 279
270 269 270 269 269 268 267 268 267 267 266 266 267 267 265 267 267 267 268 267 268 269 269 269 270 271 273 273 277 283 282 281 281 281 281 280 279 279 280 280 280 280 279
268 267 268 267 266 265 265 265 265 265 265 265 265 264 265 265 265 265 266 266 266 267 268 268 269 269 270 271 273 277 283 282 283 283 281 280 279 279 279 279 279 279 278
267 266 266 266 264 263 263 262 263 262 262 263 263 263 263 263 263 264 264 264 264 265 266 266 267 268 268 269 272 274 277 281 285 284 282 281 279 279 280 280 279 278 278
266 265 265 264 262 261 261 261 261 261 261 261 261 261 262 262 262 262 263 263 262 263 263 264 266 267 267 267 269 271 273 276 282 283 283 282 280 279 280 279 279 278 278
266 264 264 263 262 261 261 260 259 260 259 260 260 260 260 260 261 261 261 261 261 261 262 263 265 265 266 268 269 270 271 273 275 279 283 282 281 280 280 279 278 278 276

GFSGL_sfc_thetae_030.txt.gz
Theta_e
331 331 330 328 322 318 316 315 314 314 310 305 301 300 300 303 304 303 302 302 300 301 302 300 300 299 298 298 298 297 296 295 291 293 294 295 293 292 292 292 291 290 289
330 330 329 325 321 320 319 317 314 313 304 300 300 300 300 303 302 299 300 298 298 298 299 300 298 297 298 299 298 297 296 296 293 290 293 292 292 292 291 290 288 288 289
326 324 324 323 320 317 314 312 308 303 300 301 299 298 299 298 299 299 298 297 298 299 299 299 298 298 298 298 298 296 296 294 294 291 290 292 291 291 289 289 288 288 288
322 322 321 319 319 318 315 311 309 307 302 300 299 299 298 299 299 297 298 299 301 300 298 299 299 298 298 298 297 297 295 294 294 291 290 289 289 289 288 286 285 287 286
317 317 317 317 316 314 313 312 310 306 302 298 297 297 299 298 300 299 299 298 299 298 299 299 299 298 296 296 296 296 295 293 292 290 289 288 287 286 285 286 284 285 286
314 313 312 312 310 309 306 303 300 298 297 296 297 296 299 299 293 292 293 297 298 297 297 298 298 296 295 292 292 291 292 294 291 290 289 286 286 286 287 285 284 283 281
310 309 308 307 306 305 303 300 297 295 296 295 297 298 297 298 293 292 290 294 296 298 297 297 296 296 294 296 291 289 287 286 287 290 288 287 286 287 286 284 284 283 283
306 305 305 305 303 301 300 298 295 297 297 298 298 298 297 298 292 290 290 293 297 296 296 296 295 295 296 295 295 293 291 292 289 287 288 288 288 288 287 285 284 284 285
302 302 302 302 302 301 300 299 300 300 300 298 297 297 296 298 291 291 292 296 294 294 295 295 295 295 292 291 293 292 292 292 289 288 287 286 284 283 283 284 283 282 282
301 301 302 302 301 300 301 300 300 299 298 297 295 293 291 292 293 291 291 294 292 293 294 294 290 291 290 288 291 291 290 291 290 288 286 285 284 286 283 284 284 282 282
301 301 300 300 299 299 298 296 293 293 292 294 295 296 296 295 295 290 289 291 292 292 292 292 294 289 288 288 288 291 290 291 288 288 288 287 287 286 286 286 286 285 283
299 298 297 296 294 295 295 295 295 294 293 293 294 293 295 295 290 290 288 288 288 289 289 292 294 290 288 287 287 287 287 285 289 288 286 286 286 285 286 287 287 287 287
294 293 293 293 293 293 293 293 293 293 292 291 289 290 290 290 290 287 285 284 285 285 286 288 287 286 287 287 286 286 285 288 288 287 286 286 287 287 287 287 286 286 286
292 291 291 290 290 290 290 289 288 288 286 285 285 285 286 285 286 285 283 284 282 283 284 287 284 283 285 287 287 288 289 289 288 287 287 288 288 286 286 286 284 284 283
289 288 288 287 286 286 286 285 284 285 283 282 283 282 282 281 281 279 279 280 281 281 281 284 284 285 284 287 288 288 288 289 288 288 287 286 286 285 284 285 284 283 282
286 285 284 285 285 284 284 285 280 280 279 279 278 279 280 279 277 277 278 278 278 279 280 283 284 285 285 285 286 287 288 287 286 286 286 286 285 284 283 284 284 282 282
283 283 283 283 283 282 282 282 281 282 279 278 277 277 276 275 275 276 277 276 278 278 279 279 279 280 282 282 285 286 287 287 287 285 286 286 286 284 283 283 283 282 281
281 279 282 282 282 282 281 280 280 279 278 279 278 276 275 274 274 275 275 276 277 277 277 276 276 277 277 279 281 281 287 287 286 285 285 285 285 284 283 282 282 282 281
280 280 281 281 279 278 279 279 278 277 277 277 277 277 276 273 274 275 275 275 274 274 274 274 275 275 275 277 279 279 282 286 286 285 285 284 284 284 283 283 282 282 281
278 275 276 279 278 277 277 276 276 276 275 275 275 274 274 272 273 274 274 274 273 273 272 272 273 273 274 275 276 279 277 285 285 285 284 284 284 284 284 283 283 282 281
279 277 273 277 276 275 275 275 274 274 273 273 273 273 268 269 272 272 272 272 271 271 271 271 272 273 273 274 274 275 277 280 286 285 284 284 284 283 284 284 283 282 282
275 275 275 274 274 274 272 273 273 272 272 271 272 272 269 271 271 271 271 271 271 271 271 271 270 271 272 272 272 273 274 275 284 285 285 283 283 283 283 283 283 283 282
273 273 273 272 272 270 272 271 271 270 270 270 270 270 270 270 269 269 269 270 270 269 270 269 269 269 271 272 272 272 273 274 277 280 284 284 283 283 283 282 282 282 281
273 272 271 271 270 269 270 269 269 267 267 269 269 269 269 268 268 268 268 269 268 268 268 268 267 269 270 270 271 271 273 273 275 277 285 285 284 283 283 282 283 282 281
272 272 271 270 269 268 268 268 267 268 268 268 268 268 268 267 267 267 268 267 266 266 266 266 268 268 268 268 269 271 271 271 273 276 282 285 283 282 282 282 283 282 281
271 270 269 269 268 267 267 266 266 266 266 266 266 266 266 266 266 266 265 265 265 264 265 267 267 267 268 269 271 270 270 271 272 274 277 283 283 282 282 282 282 282 281

GFSGL_sfc_thetae_033.txt.gz
Theta_e
333 334 334 332 330 329 325 320 318 315 313 312 310 308 305 303 301 301 304 304 303 303 303 302 302 302 301 299 299 298 296 295 292 294 296 298 296 295 295 295 294 293 292
333 332 331 328 323 322 320 319 318 317 317 313 310 306 303 301 302 303 301 301 301 300 300 301 301 300 300 299 298 298 297 297 295 292 295 295 295 296 296 293 291 291 290
331 331 330 325 322 320 319 319 317 315 311 307 303 301 301 301 301 302 301 300 300 300 300 301 301 301 299 299 299 298 297 296 297 294 293 295 294 294 293 292 291 291 290
328 327 326 325 321 320 319 316 312 307 303 301 301 300 299 300 300 299 299 300 299 299 301 302 300 300 299 299 299 299 298 297 297 294 294 293 293 294 292 289 288 290 288
324 323 322 321 321 318 317 315 312 309 306 303 299 298 298 299 299 299 300 299 298 298 300 300 300 300 296 296 297 298 298 296 295 294 292 292 291 291 289 289 287 287 287
318 317 317 317 315 314 313 310 308 307 304 301 299 300 298 298 294 294 297 299 297 297 297 298 300 297 297 293 293 293 295 296 295 294 293 291 291 290 290 288 286 284 282
313 313 312 311 309 308 307 304 303 301 300 298 298 297 297 299 293 293 291 295 294 294 295 296 297 298 295 298 294 291 291 290 290 293 293 292 291 291 290 287 286 284 284
309 309 309 308 306 305 304 302 300 299 298 299 299 299 300 299 293 292 290 293 293 294 297 297 296 296 296 295 296 295 296 297 295 292 291 294 294 292 290 288 287 285 286
306 306 306 306 304 303 302 302 302 301 301 300 300 299 298 298 292 291 291 294 295 295 295 295 295 295 293 292 293 293 294 295 293 291 290 289 285 285 284 287 284 282 283
304 304 305 305 304 302 300 300 300 300 299 300 298 297 293 296 293 291 292 293 292 293 293 294 291 292 290 289 292 292 291 293 293 293 291 288 286 287 284 285 284 282 282
304 304 303 302 301 300 300 299 298 298 298 297 296 297 296 295 294 289 288 291 287 285 287 289 292 289 289 288 288 291 290 292 291 292 291 290 289 288 287 287 286 284 283
302 300 300 299 298 298 298 297 296 295 295 295 294 294 295 295 289 286 286 283 283 284 284 286 287 286 286 286 286 287 288 287 290 290 290 289 288 288 289 289 288 288 288
298 296 295 295 295 295 295 294 294 293 292 291 289 289 289 290 289 285 284 283 282 283 284 284 283 283 284 284 285 285 286 288 288 286 287 288 289 289 289 289 289 289 288
295 294 293 293 292 292 292 290 289 289 287 286 286 285 285 286 286 284 281 281 281 282 282 282 281 281 282 283 284 286 288 287 287 286 287 289 291 289 287 288 286 286 285
292 291 290 290 289 288 287 286 286 284 282 283 283 283 282 281 281 278 278 278 279 279 279 281 283 283 282 284 285 286 287 287 285 286 286 286 288 288 286 287 286 285 283
289 288 288 288 287 287 286 285 280 281 280 279 278 278 280 278 277 276 277 277 277 278 278 279 280 280 279 279 280 281 283 284 284 286 286 286 285 285 285 285 285 284 283
287 286 284 285 285 284 285 284 284 280 280 279 278 276 276 275 275 275 276 277 277 278 278 278 278 278 277 277 278 279 279 281 281 283 285 286 285 285 284 284 284 283 283
284 281 285 284 284 284 283 282 282 281 280 281 279 277 276 275 275 275 276 276 277 277 277 276 276 276 276 275 276 276 277 278 279 278 286 285 285 285 284 284 284 283 282
283 283 283 283 281 280 281 281 280 280 279 278 279 279 278 275 275 276 276 276 275 274 275 274 275 274 274 275 275 276 276 276 277 279 280 286 285 285 284 284 284 283 283
278 277 279 281 280 279 279 279 278 277 277 277 277 277 276 273 273 276 276 275 274 274 273 273 273 273 273 274 274 275 275 275 275 278 277 285 285 285 284 284 284 283 282
280 278 275 279 278 278 277 276 276 276 275 275 275 275 269 271 272 274 274 274 273 272 272 272 272 272 272 273 273 273 273 273 275 275 274 285 285 284 285 285 284 283 283
278 277 277 276 276 276 274 275 275 274 274 274 274 275 272 272 273 273 273 272 272 272 272 271 271 271 271 271 272 272 271 272 273 273 273 275 284 284 284 284 284 283 282
275 275 275 274 274 272 274 274 273 273 273 272 272 272 273 272 271 271 271 271 271 271 271 270 270 269 270 271 271 271 271 271 273 271 271 275 276 284 284 284 283 283 282
274 274 273 273 273 271 272 271 272 271 271 271 272 271 271 271 271 270 270 270 270 269 270 269 268 268 270 270 271 271 272 273 272 271 272 273 274 284 284 284 283 283 282
274 273 272 272 272 271 271 271 271 271 271 270 270 270 270 270 269 269 269 269 268 268 267 267 269 268 268 268 269 271 272 271 272 273 273 273 275 284 283 283 283 283 282
273 272 271 271 271 271 270 269 269 269 269 269 268 268 268 268 268 268 268 267 267 265 266 267 267 267 268 270 270 271 271 272 272 272 273 273 278 281 283 282 283 282 282

GFSGL_sfc_thetae_036.txt.gz
Theta_e
329 329 329 325 323 322 327 324 317 315 314 312 310 307 305 304 304 302 302 302 302 301 300 300 300 301 301 299 296 295 293 292 288 289 291 291 291 291 291 291 292 289 289
330 328 328 328 329 325 322 320 318 316 314 311 309 307 305 303 303 301 301 302 300 299 300 299 299 301 299 299 297 293 292 292 289 286 289 289 290 290 290 288 291 290 287
331 328 327 325 322 321 319 317 316 314 312 310 307 305 302 301 300 300 301 300 299 299 299 298 298 299 298 297 295 293 292 295 292 290 289 289 289 289 288 288 288 286 289
327 324 324 322 321 319 317 314 307 304 302 301 302 302 301 301 300 300 301 299 298 299 299 298 298 299 295 295 295 295 294 292 293 292 291 290 288 289 287 285 283 285 284
324 323 320 320 320 318 315 312 308 305 302 301 300 300 299 299 300 298 299 298 297 296 297 299 299 298 296 295 295 292 292 292 291 290 289 289 289 286 283 284 282 282 282
320 318 319 319 317 315 312 310 308 305 304 300 299 297 297 298 293 296 297 297 296 296 294 296 297 296 296 294 293 293 292 291 290 289 290 289 289 288 286 284 282 280 278
314 314 313 312 309 308 306 304 302 301 300 297 297 297 297 296 294 293 292 294 293 292 293 294 295 296 295 295 293 291 290 290 290 290 289 289 288 289 287 284 281 281 279
310 310 309 308 306 304 302 299 298 297 296 296 296 297 296 297 293 292 290 291 292 293 293 293 293 294 292 291 290 289 290 291 291 291 289 290 290 291 289 287 284 282 280
306 306 306 305 303 301 300 299 299 298 298 298 298 297 297 294 292 291 291 292 293 292 292 291 290 289 289 289 287 286 287 289 292 291 291 291 291 290 288 286 283 277 274
304 304 305 304 303 301 300 299 299 299 298 298 296 295 293 295 292 290 289 287 285 283 285 287 287 287 287 287 283 282 282 284 286 287 288 289 287 285 287 286 284 279 277
304 304 303 301 300 299 299 299 297 296 296 293 293 294 295 289 286 286 285 282 280 280 281 281 282 285 285 284 284 281 280 282 283 284 285 287 289 284 283 283 284 283 280
302 301 300 300 299 298 297 297 296 294 292 290 289 288 289 286 285 284 283 282 282 279 279 280 281 282 282 282 282 283 284 283 282 282 283 284 287 286 286 285 284 284 284
299 298 297 296 296 295 293 292 291 291 288 285 284 284 284 284 283 283 281 281 281 278 279 280 280 280 281 281 284 284 283 282 282 281 281 282 286 288 287 286 285 284 284
295 294 293 292 291 291 290 289 288 284 283 283 283 281 281 281 278 278 277 277 278 278 278 277 277 279 279 279 280 280 280 280 280 282 282 284 286 286 285 286 284 283 282
293 291 290 289 288 286 283 283 282 280 280 281 280 280 277 276 276 277 276 276 275 277 275 275 277 277 277 276 276 277 277 277 277 278 278 279 280 285 286 286 285 284 282
289 288 286 286 285 286 283 281 282 280 280 279 279 278 278 277 276 277 277 277 277 278 275 274 273 273 273 274 274 274 274 274 275 276 275 277 278 281 285 285 285 283 281
286 286 284 284 284 283 282 282 278 279 280 279 279 277 277 275 276 276 276 277 277 278 273 272 270 271 272 273 273 272 272 273 275 275 274 275 276 282 284 284 283 282 281
283 284 284 283 283 283 281 281 281 280 278 278 278 278 277 276 276 276 277 277 275 275 274 272 271 271 272 272 272 271 272 272 273 272 273 275 275 276 283 283 282 281 281
283 282 282 281 279 279 281 280 280 279 279 278 278 277 275 275 275 276 278 273 271 272 272 271 270 271 270 271 270 270 271 271 271 271 272 272 273 273 282 283 282 281 280
278 279 280 280 279 279 279 278 278 277 277 277 276 276 274 272 269 270 272 270 270 271 270 270 270 270 270 270 269 269 269 270 269 270 271 271 271 272 277 283 283 281 281
278 276 275 279 278 277 276 276 276 275 275 275 274 271 269 270 270 271 271 270 269 269 268 269 268 269 268 268 269 268 268 267 269 269 270 270 270 271 274 283 283 282 281
277 277 276 275 275 275 273 274 274 274 274 273 273 273 271 270 271 270 269 268 267 268 270 268 268 268 268 267 267 267 266 267 267 269 269 269 270 270 272 280 282 282 281
275 275 274 274 274 272 273 274 273 272 272 271 271 271 271 270 269 269 268 265 267 267 266 267 267 266 266 267 268 267 267 267 269 269 268 269 270 270 271 272 282 281 281
274 274 273 273 273 271 272 271 271 271 271 271 270 270 270 269 267 265 265 265 264 263 265 265 264 264 267 266 267 267 268 270 269 269 270 269 269 270 271 272 281 281 281
274 273 272 272 271 271 271 270 270 270 270 269 268 268 268 268 267 266 264 264 262 264 262 262 264 265 265 265 266 267 268 269 269 270 270 271 270 271 272 276 281 281 281
273 272 271 271 271 270 270 269 268 268 267 267 267 265 266 266 265 263 265 263 264 262 261 263 263 263 264 266 267 269 268 269 269 269 271 272 271 271 272 274 280 281 281

GFSGL_sfc_thetae_039.txt.gz
Theta_e
323 323 323 324 325 325 323 321 318 314 313 312 313 310 304 303 304 303 302 303 302 301 301 300 300 300 299 299 297 295 293 292 286 287 289 290 288 289 290 290 290 290 290
320 324 324 322 322 319 320 317 315 312 313 313 311 308 306 304 303 302 301 301 300 300 299 299 299 300 298 298 298 295 292 291 288 286 286 287 288 289 289 287 290 291 289
321 323 323 323 324 320 318 317 314 313 313 310 308 306 304 303 302 301 301 301 300 300 299 298 298 297 296 296 294 293 294 294 291 287 287 287 288 288 289 288 288 287 288
324 322 319 318 317 316 315 313 310 309 308 308 306 304 303 301 301 300 300 299 298 299 299 298 297 297 296 296 294 291 292 290 290 291 292 291 289 290 289 288 287 286 287
321 319 316 316 316 313 311 308 305 305 303 302 301 301 301 300 300 300 300 299 297 297 297 297 298 297 296 294 294 294 293 291 291 291 291 291 290 288 286 290 287 290 284
316 316 317 316 315 313 310 307 304 302 301 300 299 299 298 299 294 295 297 297 296 295 295 294 294 296 295 293 293 292 292 290 288 287 288 287 288 286 287 286 285 283 283
312 311 309 308 306 304 305 305 303 300 296 294 294 293 293 293 293 293 293 294 292 290 289 290 294 295 292 292 289 288 288 289 289 287 286 287 287 288 289 287 283 285 284
307 306 306 304 302 299 297 295 294 294 293 293 293 294 293 293 292 292 290 290 289 291 293 293 289 288 287 286 285 283 284 285 286 287 286 287 287 288 288 289 288 287 283
304 304 303 301 298 297 295 294 293 293 293 292 294 293 293 292 292 290 290 290 292 288 287 286 285 284 287 286 282 280 280 279 283 285 286 286 287 287 288 288 287 283 282
302 301 301 300 298 297 295 294 294 294 294 296 294 295 292 292 290 290 288 282 281 279 281 283 284 283 285 284 280 278 277 278 279 280 281 282 284 284 287 287 287 284 283
302 300 299 298 297 296 296 294 293 292 292 289 290 290 287 284 284 285 283 279 279 279 279 278 279 282 282 282 282 279 279 281 282 281 281 281 282 282 284 284 286 286 284
299 298 297 297 297 296 294 293 294 292 289 286 284 283 282 282 283 282 282 281 280 278 278 278 278 280 281 282 281 282 282 280 279 279 279 280 280 281 283 285 284 285 287
297 296 296 296 296 295 292 289 288 287 283 282 283 282 279 279 278 279 279 279 279 277 278 278 279 279 280 279 280 280 278 277 276 274 275 277 277 279 281 284 287 286 285
294 291 290 288 287 286 287 285 282 280 280 280 280 279 278 275 275 275 276 275 277 277 277 275 275 277 277 276 277 277 277 276 274 273 274 275 276 276 278 280 282 283 282
289 288 286 284 282 281 281 280 278 279 280 278 277 278 275 273 275 276 276 276 274 276 271 271 273 274 275 275 275 275 274 274 272 273 273 273 273 274 276 278 280 284 281
286 285 282 281 281 280 279 279 281 281 281 280 280 278 278 277 277 277 277 277 278 278 274 269 267 266 270 272 271 271 271 271 271 272 272 271 271 272 275 275 278 283 283
283 283 282 281 281 281 280 278 276 279 280 280 279 279 278 276 276 277 277 277 278 276 270 270 265 264 267 271 270 270 269 270 271 271 270 270 271 272 272 273 274 281 281
282 282 281 281 280 280 279 280 279 278 276 277 279 278 277 276 276 276 277 277 273 274 273 270 266 266 269 269 269 268 268 268 269 269 268 269 270 270 270 270 271 278 281
281 280 279 278 278 279 279 279 279 278 278 277 277 276 275 275 275 275 276 271 269 270 271 270 267 267 268 268 264 264 265 266 267 266 267 268 269 269 268 269 271 274 280
279 279 279 279 278 278 278 277 277 276 276 276 275 274 273 271 266 265 267 265 266 268 267 268 268 267 263 265 263 262 265 266 265 266 266 267 268 268 268 269 270 269 280
276 277 277 277 276 276 275 275 275 275 274 274 273 270 270 270 269 269 270 266 267 266 263 266 263 260 260 264 265 263 265 264 265 265 266 267 267 267 268 269 270 271 281
276 276 275 274 275 273 273 273 274 273 273 272 271 271 271 268 269 270 268 264 263 263 265 263 261 262 264 263 263 264 264 264 264 265 267 266 267 268 269 269 269 271 278
275 274 274 274 273 272 272 272 271 271 270 270 270 270 270 267 267 268 265 259 262 261 259 259 257 259 261 261 264 264 264 264 266 267 266 266 267 268 269 269 270 270 273
274 273 273 272 271 270 269 268 268 269 269 268 266 266 266 264 261 260 261 260 259 255 254 254 257 258 263 262 261 264 266 267 268 267 267 267 267 268 269 270 270 271 273
272 271 271 270 268 267 267 267 267 266 266 264 264 263 263 261 259 258 255 257 255 255 255 255 254 258 259 259 261 263 266 266 266 267 267 267 268 269 269 270 271 272 274
271 270 269 268 266 265 263 262 261 260 260 260 258 255 255 258 257 254 255 255 257 255 254 254 256 257 258 262 264 266 264 265 265 266 265 268 268 269 270 270 271 272 276

GFSGL_sfc_thetae_042.txt.gz
Theta_e
320 321 320 321 321 321 319 319 317 317 316 314 311 309 308 307 306 305 304 304 303 302 302 302 301 300 299 299 299 298 296 293 290 288 288 289 288 288 289 292 292 291 292
322 322 321 320 319 320 320 319 318 318 318 315 312 312 308 306 305 303 302 303 302 301 300 299 299 300 298 298 298 296 295 295 292 290 287 286 286 288 287 287 291 291 290
321 322 322 322 321 322 322 320 321 320 318 313 312 310 307 306 304 302 302 301 301 300 300 299 298 298 296 296 296 295 294 293 290 286 289 287 287 288 289 290 289 290 291
319 319 320 320 322 323 323 319 317 314 312 311 309 307 305 303 302 302 301 300 300 299 299 299 298 296 296 295 295 293 293 291 291 290 290 289 289 291 288 290 291 291 289
319 319 318 320 322 319 315 313 311 311 309 308 306 304 302 301 301 300 300 299 298 298 298 297 297 297 296 294 294 293 292 291 291 290 288 288 290 289 288 288 288 289 289
321 321 318 317 316 313 310 307 305 305 304 302 301 300 299 300 294 295 298 298 297 296 295 295 295 295 295 291 289 289 287 284 282 282 282 283 284 284 286 285 286 286 285
316 316 315 313 311 309 307 305 303 300 299 298 298 298 297 298 293 294 294 296 294 293 291 292 293 292 289 288 286 286 285 286 286 282 280 281 282 283 286 286 286 286 285
309 308 308 307 306 305 302 299 295 296 295 292 292 293 293 293 292 292 290 290 289 290 291 289 287 286 286 283 281 280 280 280 280 280 279 279 280 282 282 283 282 282 284
305 304 304 302 300 298 295 294 293 293 292 292 293 292 291 290 291 290 289 288 287 285 286 286 284 282 284 284 280 278 278 279 283 284 284 285 285 285 285 283 280 280 278
301 299 299 298 296 294 293 292 292 291 292 293 291 291 290 288 290 290 290 286 282 281 281 281 282 281 282 282 279 278 277 278 279 279 279 281 283 282 285 283 282 280 280
299 298 297 296 295 294 293 293 292 291 290 288 287 286 285 285 285 285 284 280 279 279 278 278 278 280 281 281 282 279 279 279 278 277 277 276 278 279 280 279 281 281 280
298 297 296 295 296 295 293 293 292 291 286 284 282 281 281 281 283 283 282 281 279 278 278 278 278 280 281 281 280 280 280 278 276 275 274 274 275 275 276 276 278 280 283
296 295 295 295 295 294 292 290 289 287 284 282 280 278 277 277 277 280 280 279 278 277 278 278 278 279 279 279 279 278 276 276 273 271 272 273 274 274 275 275 277 279 280
294 293 290 286 285 285 284 285 283 281 281 282 280 278 276 275 275 276 276 277 277 277 277 276 276 277 276 276 276 276 276 274 273 272 271 272 274 273 272 274 274 276 276
288 285 283 282 282 279 278 279 280 280 281 280 279 279 275 274 276 277 277 276 275 277 273 272 274 273 273 273 274 274 273 272 271 271 270 270 270 271 271 273 273 273 273
284 282 280 280 280 279 278 278 282 282 282 281 280 278 278 278 278 277 277 277 278 278 274 271 268 267 269 271 270 270 270 269 270 270 269 269 268 268 269 271 271 271 272
281 281 281 280 279 279 279 279 277 279 281 280 280 279 278 277 277 277 277 277 277 276 272 270 266 265 267 270 269 268 267 268 269 267 267 266 267 268 268 268 269 270 270
281 282 281 280 280 280 280 279 278 278 276 277 279 278 278 277 276 276 277 277 273 274 272 270 269 269 269 268 268 267 267 265 265 266 265 265 266 266 267 267 268 268 269
279 279 279 279 279 279 279 279 279 278 277 277 277 276 276 275 275 275 275 272 271 270 270 269 269 268 267 267 263 260 256 261 263 258 263 264 264 266 265 266 267 268 269
279 279 279 278 278 278 278 277 276 276 276 275 275 273 273 272 269 269 269 268 269 269 268 268 268 267 264 263 258 254 256 262 262 263 263 263 264 265 264 266 267 267 269
277 277 277 277 276 276 275 274 275 274 274 273 272 271 271 271 270 270 270 268 267 268 266 266 264 261 259 258 262 257 262 260 262 263 263 264 265 264 265 266 267 269 269
276 275 275 275 274 273 273 274 273 273 272 271 271 271 271 270 270 269 269 266 265 267 266 262 261 261 260 260 260 260 261 260 262 263 264 264 265 265 265 267 267 268 269
274 273 274 273 273 271 271 271 270 270 270 270 270 269 269 267 267 267 265 263 265 260 259 258 253 256 258 256 256 260 261 262 263 264 264 264 264 265 265 266 267 268 269
273 272 272 271 271 270 270 268 269 269 268 267 266 266 265 263 261 261 260 259 256 253 252 251 253 255 257 256 255 260 263 264 265 264 264 264 264 264 265 267 268 269 269
271 270 270 269 268 267 266 266 265 264 263 262 261 260 260 257 255 252 251 251 253 250 252 252 252 254 255 255 256 259 262 261 262 264 264 264 263 263 266 267 268 269 270
269 268 268 267 266 265 264 263 262 261 260 258 255 252 252 253 253 248 250 252 252 252 252 252 254 255 256 258 260 263 259 260 261 262 263 264 263 265 266 266 267 268 269

GFSGL_sfc_thetae_045.txt.gz
Theta_e
313 314 315 316 316 317 318 319 316 315 316 316 316 314 312 312 308 308 306 304 305 304 304 304 303 302 300 299 299 298 297 295 292 294 291 291 289 288 289 289 292 291 293
316 317 317 318 319 319 319 319 318 318 318 316 315 312 310 308 307 307 304 304 304 303 303 302 300 300 298 298 298 296 296 296 293 290 291 290 289 288 288 287 289 292 290
317 317 318 319 319 319 320 320 319 320 319 319 319 314 311 310 306 305 305 303 303 302 301 300 299 298 296 296 296 295 294 294 292 289 289 288 286 286 287 288 288 288 290
318 318 318 319 320 320 320 320 320 320 319 318 314 312 310 307 306 304 303 302 301 301 300 299 299 297 296 295 295 293 293 290 290 290 290 289 288 288 288 290 290 290 290
318 318 319 320 321 320 320 320 320 319 318 313 311 308 306 304 303 302 301 300 299 298 298 298 297 297 295 294 294 291 289 286 285 284 283 285 282 282 282 284 285 287 288
317 318 319 316 317 317 316 313 311 309 308 309 306 303 302 303 298 295 298 299 298 297 296 295 295 294 291 289 289 288 286 281 279 279 279 278 278 279 281 281 281 281 280
316 316 316 315 315 312 310 308 306 304 302 301 301 301 300 298 294 294 294 297 296 295 294 293 292 290 288 286 285 284 283 284 284 279 277 276 276 277 278 279 279 279 279
316 315 314 312 308 306 305 303 300 300 299 298 297 298 298 297 292 292 291 293 292 292 291 290 287 285 285 283 281 279 279 279 280 280 278 278 278 280 280 280 281 281 281
309 309 308 307 305 303 300 298 296 296 295 294 295 295 294 293 291 290 290 290 287 285 285 285 284 283 284 283 280 278 278 279 282 283 282 282 282 283 282 281 279 279 278
306 304 305 304 302 299 295 294 291 292 291 292 289 288 289 289 290 290 288 284 282 281 281 281 282 282 281 281 278 278 277 278 277 277 277 278 279 279 281 280 277 274 274
300 299 299 299 297 294 292 292 290 290 289 288 285 285 286 286 286 287 287 284 282 280 279 279 278 280 280 281 282 279 278 277 277 276 275 275 276 276 276 277 277 275 274
297 295 295 295 294 293 291 291 290 289 286 284 282 280 281 282 283 283 282 281 281 279 278 277 277 279 280 281 279 279 278 277 274 274 273 273 273 273 275 275 275 275 276
295 294 293 293 292 292 290 289 287 286 285 283 281 279 278 278 279 281 280 279 279 278 278 278 278 279 279 278 278 277 276 275 272 270 271 271 272 273 274 274 274 275 275
293 290 289 286 284 285 285 286 284 284 284 282 280 278 276 276 276 276 277 277 278 277 277 277 277 277 276 276 276 275 275 273 272 270 270 271 272 271 271 272 270 272 271
286 285 283 281 281 281 281 282 281 281 283 281 279 277 275 274 276 277 277 277 277 277 275 275 273 273 272 273 273 272 272 271 270 270 269 268 269 269 269 270 270 270 268
283 282 280 280 279 279 278 279 282 282 282 282 281 279 278 278 278 278 278 278 278 278 275 271 267 266 269 271 270 270 270 269 269 268 267 267 266 266 266 267 269 268 267
281 281 280 280 279 278 278 278 276 279 281 280 280 279 279 278 278 278 278 277 277 276 271 270 266 266 268 270 269 268 267 268 268 267 266 265 264 265 265 265 267 267 267
282 282 281 281 280 279 279 279 279 277 276 277 279 279 278 278 277 277 277 277 273 273 272 270 268 269 268 268 268 267 266 265 264 264 263 262 261 264 263 264 265 265 266
280 279 279 279 279 279 279 279 279 278 278 277 277 277 277 276 275 276 275 273 271 270 270 270 269 268 267 267 265 264 261 260 259 257 257 259 258 262 263 264 264 265 265
279 279 278 278 278 277 277 277 277 276 276 275 275 274 273 272 270 269 269 269 269 269 269 269 268 267 265 265 262 259 257 257 257 257 258 256 258 262 263 263 264 264 265
277 277 276 276 275 275 274 274 274 274 273 272 271 271 272 271 270 270 270 268 268 268 267 267 265 264 262 261 262 259 257 257 259 260 260 262 262 262 264 264 264 265 266
275 275 274 273 273 273 273 273 272 272 271 271 271 271 270 269 269 269 268 265 265 266 266 263 262 261 261 259 258 253 256 255 256 260 261 262 263 263 263 263 263 264 266
273 273 272 272 272 271 270 270 270 270 269 269 268 267 267 265 265 265 265 263 264 262 260 259 256 256 256 254 253 255 257 260 261 262 262 261 262 262 262 262 263 264 266
271 271 271 270 270 269 268 268 268 267 267 265 263 263 262 261 259 258 257 254 254 252 251 250 253 254 255 253 252 255 260 261 262 260 259 261 261 262 262 262 263 265 266
269 269 268 267 265 265 264 263 262 262 262 261 258 257 259 257 256 251 248 249 251 249 253 252 251 252 253 253 254 255 259 257 256 259 261 261 260 261 261 263 263 264 265
267 266 265 264 263 263 261 259 258 257 256 255 253 252 255 254 252 247 249 250 250 250 250 251 252 253 254 255 257 260 256 256 257 259 260 260 260 261 261 262 262 263 264

GFSGL_sfc_thetae_048.txt.gz
Theta_e
309 310 310 311 311 311 312 314 315 315 315 314 315 316 316 316 316 315 314 309 309 310 308 307 305 305 304 301 299 299 296 295 292 295 294 294 292 293 293 293 293 292 293
309 309 311 312 314 313 313 315 315 314 316 316 316 316 317 316 312 310 308 308 308 306 305 305 303 303 301 300 299 297 297 297 294 291 292 291 291 293 291 289 291 292 292
310 310 311 312 313 314 314 315 315 315 317 317 317 317 315 310 308 308 307 306 305 305 303 303 301 300 298 298 297 296 296 295 292 290 289 290 289 289 289 290 290 291 292
311 312 311 312 313 314 315 315 316 317 317 318 318 318 317 310 307 306 306 304 303 302 302 302 301 299 297 296 296 294 293 291 291 290 290 290 288 289 288 286 285 288 287
313 312 313 314 315 315 316 316 318 318 318 319 318 315 310 309 306 305 304 303 301 300 300 299 299 298 296 295 294 292 290 289 287 286 285 283 282 282 281 283 281 281 283
315 314 315 315 316 316 316 317 318 318 318 318 314 309 307 306 298 298 301 301 300 298 296 296 295 293 291 290 290 288 288 285 283 282 280 279 278 279 280 279 279 279 278
315 315 315 316 315 316 318 318 317 315 311 309 306 305 304 303 295 296 297 299 297 296 295 293 292 290 288 286 285 284 284 284 283 280 277 278 277 279 279 278 278 278 278
312 312 313 314 315 315 312 310 305 305 306 302 301 301 299 297 294 293 292 295 293 293 293 291 288 285 285 284 282 281 280 280 280 281 279 279 280 280 280 281 281 280 281
312 313 314 313 308 307 305 303 301 301 300 299 298 297 296 293 291 290 291 289 286 285 285 286 285 283 284 284 281 279 279 280 282 282 281 281 281 280 280 280 278 276 274
310 309 308 307 305 303 299 297 296 295 293 292 290 291 291 290 290 290 288 286 283 281 282 282 283 282 282 282 280 279 278 278 278 277 277 277 278 278 279 278 277 273 273
304 304 303 302 299 296 294 294 293 290 288 286 285 285 285 287 287 288 288 285 283 281 280 279 280 281 282 282 282 280 278 277 277 276 275 275 276 276 276 277 277 275 273
299 298 296 296 295 294 293 292 290 287 285 283 282 281 281 282 283 285 284 284 283 281 279 278 279 281 281 281 279 279 278 277 275 274 273 273 273 273 274 275 275 276 276
297 294 293 292 292 292 290 289 287 286 284 283 281 279 278 280 280 281 281 281 280 278 279 279 280 280 280 278 278 277 276 275 273 271 271 271 272 273 274 273 274 274 274
291 289 288 287 286 286 286 287 286 285 283 283 281 279 277 277 277 278 278 278 278 278 277 277 277 277 276 276 276 275 274 273 272 271 270 271 271 271 270 271 270 271 271
286 285 284 283 283 281 281 282 283 284 285 283 281 279 277 276 276 278 278 277 277 277 276 275 274 273 273 273 273 273 272 271 270 270 269 268 268 268 268 269 269 269 268
283 283 282 282 281 281 281 280 283 283 283 282 281 279 279 279 279 279 279 279 279 278 275 272 270 270 270 271 270 270 270 269 269 268 267 267 266 265 266 267 267 267 266
281 281 280 281 280 279 279 278 276 279 281 281 281 280 279 279 279 279 279 278 277 276 273 271 269 269 269 270 270 269 268 268 268 266 266 266 265 264 264 264 265 266 265
281 281 280 280 280 279 279 278 278 277 276 277 279 279 279 279 279 278 278 277 274 274 272 270 269 269 269 269 268 267 266 266 265 264 264 264 262 263 263 263 264 264 264
280 280 280 279 280 279 279 279 279 278 276 276 276 276 277 277 277 277 276 274 272 271 271 271 270 269 268 267 266 265 263 262 262 261 261 261 260 261 261 262 264 263 263
278 278 278 277 277 277 277 276 276 276 275 275 274 273 273 272 270 270 270 270 270 270 270 269 268 267 266 265 263 261 260 261 261 261 261 258 258 260 261 262 263 263 264
275 275 275 275 274 274 274 274 274 273 272 271 270 271 272 271 271 270 269 268 268 268 266 266 265 263 262 261 262 261 260 259 259 259 259 260 258 261 263 263 263 264 264
274 273 273 273 272 272 271 272 271 271 271 270 269 268 268 268 267 267 265 264 264 265 264 262 261 261 261 260 259 255 256 254 255 258 259 260 262 261 262 262 262 262 263
272 271 271 271 270 270 269 269 268 268 267 267 266 266 265 263 263 263 261 256 259 258 257 257 254 256 258 255 254 255 255 257 260 261 259 259 260 261 261 261 261 262 262
270 270 269 268 268 267 265 264 265 264 264 261 258 258 257 254 252 252 250 249 250 249 248 249 252 254 255 254 253 255 257 259 261 259 258 259 259 260 261 261 261 261 262
267 266 265 264 263 262 260 259 257 254 254 252 251 252 256 255 252 247 246 247 249 247 250 249 249 252 253 253 253 254 255 258 257 256 258 259 259 259 259 261 261 262 262
264 263 261 260 258 256 253 251 248 248 248 248 248 249 250 250 250 246 247 249 250 251 251 251 252 253 253 254 255 257 257 255 254 256 258 258 258 259 260 260 260 261 262

GFSGL_sfc_thetae_051.txt.gz
Theta_e
316 317 317 317 317 317 316 316 316 316 316 317 319 320 320 321 322 322 322 321 315 316 316 313 312 312 309 308 307 303 301 301 299 297 299 298 299 301 299 300 300 301 302
316 316 316 317 316 316 315 317 318 317 315 316 317 319 320 320 322 320 319 315 314 313 312 310 310 308 307 305 303 300 299 300 297 295 298 295 294 296 297 300 299 299 300
315 315 316 316 316 314 315 317 318 318 318 319 318 318 319 318 320 319 318 313 311 313 313 310 307 305 304 301 300 300 298 298 296 293 292 293 294 295 298 298 297 297 296
314 314 314 315 315 316 317 317 318 318 318 319 320 320 320 319 319 316 315 316 314 312 311 307 305 303 302 299 298 297 296 293 293 292 292 292 293 296 294 292 291 291 289
314 314 314 315 316 317 318 319 319 319 319 320 320 321 321 320 316 314 312 310 309 306 305 303 303 301 297 298 297 295 294 292 292 290 288 288 290 288 289 289 285 286 287
316 314 315 316 316 316 317 318 319 319 319 320 320 320 319 317 304 301 306 309 307 302 299 297 297 295 293 291 291 291 293 290 286 286 287 288 289 286 286 285 284 283 282
317 317 317 317 317 318 318 317 318 319 320 320 320 318 315 313 298 298 296 303 302 300 296 294 293 291 290 289 286 286 285 284 286 287 286 285 283 285 284 283 283 283 283
317 318 318 318 317 318 318 318 319 319 317 315 311 308 305 302 295 294 294 298 296 296 295 293 290 288 287 285 283 282 281 282 282 283 285 285 286 285 284 283 283 283 284
316 317 318 319 318 318 317 310 306 304 301 300 300 300 298 295 292 291 292 291 288 288 288 288 287 285 286 286 283 281 281 282 283 282 281 280 280 280 280 282 281 280 279
314 316 317 317 312 309 304 301 298 297 294 292 291 292 291 291 290 290 290 287 285 283 284 284 284 283 283 283 282 282 280 281 281 282 282 280 279 280 278 280 280 277 277
311 310 310 309 305 300 296 296 293 290 288 286 285 286 287 288 289 289 289 287 284 282 281 280 281 282 283 283 283 282 281 281 279 280 279 279 279 279 279 279 279 278 277
302 300 299 298 298 296 293 291 290 288 285 284 283 282 282 284 286 286 286 285 284 282 279 280 281 282 283 281 281 280 278 279 279 278 276 276 277 276 276 277 277 277 278
297 296 296 296 293 293 290 288 287 287 285 284 282 280 279 280 281 283 283 282 281 280 280 281 282 282 280 279 279 278 277 278 277 276 275 275 275 275 275 276 276 276 276
292 290 290 288 288 288 289 288 286 285 284 283 282 280 279 279 278 279 279 280 280 280 280 280 279 278 278 278 277 277 276 276 274 274 274 274 274 273 273 273 272 273 273
288 287 287 286 284 283 283 285 285 286 288 286 284 282 280 278 278 279 279 278 279 278 279 279 278 277 276 276 276 275 275 274 274 274 272 271 271 271 271 272 271 272 271
288 287 286 286 285 284 282 281 283 283 282 282 281 280 280 280 281 281 280 279 279 278 277 275 274 275 275 275 274 274 273 272 272 271 270 270 269 270 269 270 271 270 270
284 284 283 283 283 281 280 279 278 280 282 281 281 281 280 280 280 280 279 278 277 277 276 274 274 273 273 273 273 272 271 271 270 269 268 269 269 269 268 268 269 269 269
281 281 281 281 280 280 279 279 280 279 278 279 280 280 280 280 280 280 279 278 276 275 275 274 273 272 272 272 271 270 269 269 268 268 267 268 267 267 267 267 268 268 269
280 280 280 280 280 281 281 281 280 279 278 277 276 276 277 278 277 276 276 276 275 274 274 273 272 271 271 270 269 268 267 267 266 266 266 266 266 266 266 267 267 266 266
278 278 278 279 278 278 278 278 278 277 277 276 275 274 275 275 274 273 273 273 273 272 272 271 270 270 269 268 268 267 267 267 266 266 266 266 266 266 266 266 266 266 267
277 276 276 275 275 275 275 275 275 274 274 273 272 272 272 273 271 271 271 270 270 269 269 269 268 267 267 267 266 266 265 265 264 264 264 265 265 264 266 266 266 266 267
275 275 274 274 274 274 274 274 273 273 272 271 270 269 269 270 270 269 268 268 268 268 268 266 266 266 265 264 264 263 262 262 263 263 264 264 264 264 264 265 265 265 266
274 273 273 272 272 271 271 271 270 270 269 269 269 268 268 267 267 267 265 265 266 265 264 264 264 263 263 263 262 262 261 261 262 263 263 262 263 263 264 264 264 264 265
272 271 270 269 269 269 268 268 267 266 267 267 267 266 265 265 264 263 263 263 263 263 263 262 261 260 260 260 262 262 262 262 262 263 261 261 261 262 263 263 264 264 264
269 268 267 266 266 266 265 265 264 265 264 264 264 264 264 264 263 263 262 261 260 261 261 260 260 260 260 258 258 259 259 259 260 259 260 261 261 261 262 262 263 264 264
266 265 265 265 264 264 264 263 262 262 262 262 262 262 262 262 262 261 260 260 260 259 259 260 260 258 258 259 259 259 257 257 257 257 258 260 260 261 262 262 262 263 264

GFSGL_sfc_thetae_057.txt.gz
Theta_e
325 326 325 326 325 325 326 328 328 328 326 325 325 325 324 325 326 325 325 325 324 325 326 325 325 326 325 325 321 318 315 312 307 309 304 304 300 300 300 302 304 304 303
325 327 328 329 329 327 327 329 330 329 329 327 325 325 325 324 325 325 324 323 323 323 323 324 323 323 324 322 321 316 314 312 309 305 301 298 298 299 301 300 301 303 303
324 326 328 329 328 328 329 329 330 329 329 327 327 325 324 325 324 325 324 324 324 324 323 323 323 324 320 320 315 312 312 309 307 301 296 297 298 298 298 298 299 300 302
325 325 325 327 328 328 329 329 329 329 328 328 327 326 326 325 325 324 324 324 324 323 324 321 320 323 319 317 315 312 309 304 301 299 296 293 297 295 297 296 295 299 299
326 325 325 327 328 328 328 328 328 328 327 327 326 326 326 325 324 324 323 322 320 319 321 324 323 320 309 313 314 311 305 300 298 296 294 293 292 292 292 295 293 294 296
327 327 327 327 326 327 327 327 327 327 327 327 325 325 325 324 309 302 313 323 320 317 318 321 321 307 304 298 298 298 302 299 296 294 293 292 292 293 293 292 291 289 289
327 327 327 328 326 327 327 326 325 326 326 325 325 325 324 325 302 300 299 321 323 322 321 320 308 302 300 297 291 288 288 288 292 294 292 290 290 292 291 290 289 288 288
325 325 326 326 326 326 326 325 325 325 325 325 325 325 324 323 300 299 298 318 319 314 312 307 300 294 294 293 290 287 286 285 285 287 287 287 286 287 288 288 288 288 288
322 325 325 326 325 325 324 324 325 325 325 324 324 323 319 315 296 297 298 298 294 292 293 294 292 290 290 290 286 284 283 283 284 284 284 283 282 282 281 284 284 284 284
320 324 326 325 324 323 324 324 325 324 318 303 295 295 292 294 295 295 296 291 287 286 286 287 287 286 286 286 284 283 281 280 280 280 280 280 280 281 280 281 282 281 281
318 320 324 325 324 325 325 324 311 301 294 290 288 288 289 289 290 291 291 288 285 284 284 283 284 285 285 286 285 284 282 282 281 282 282 283 284 284 284 283 283 281 280
320 319 314 314 311 308 303 299 296 292 288 286 285 285 285 286 286 287 286 286 285 283 282 283 283 284 284 283 282 283 282 283 283 282 281 281 281 281 282 282 282 282 282
307 302 299 297 297 296 294 292 290 289 287 285 284 281 281 283 283 284 284 284 283 282 283 283 283 282 281 280 280 280 281 281 281 280 280 281 281 281 281 280 281 281 281
292 292 291 290 289 289 290 290 289 287 286 284 282 280 280 280 281 281 282 283 282 282 281 281 280 280 279 278 279 280 280 279 278 278 278 279 279 279 279 279 278 277 275
287 286 285 284 283 282 283 284 284 285 285 282 281 280 279 278 280 281 281 280 280 280 280 281 280 280 280 280 279 278 278 278 278 278 277 277 276 276 276 277 276 275 274
284 284 283 282 282 281 280 280 283 283 283 282 282 281 281 282 282 282 282 282 282 282 282 281 281 281 279 279 279 278 278 276 276 275 275 274 274 274 274 275 275 274 273
283 283 282 282 281 280 279 278 277 280 282 282 282 282 282 281 281 281 280 280 281 282 280 279 278 278 277 277 276 276 275 275 274 274 274 273 273 273 272 272 273 273 273
283 282 282 281 281 281 280 279 279 278 276 277 280 280 281 281 281 280 281 281 279 279 278 277 276 276 275 275 274 273 273 273 273 272 272 272 272 271 271 271 271 271 271
282 282 283 283 282 281 280 279 278 277 276 276 277 277 279 279 279 279 279 278 276 275 275 274 274 274 273 273 273 273 272 272 271 271 271 271 270 270 269 269 269 269 269
281 281 281 281 281 281 280 279 278 277 277 277 276 278 278 277 275 275 275 275 274 274 274 273 273 273 272 272 272 272 271 271 270 270 269 269 269 269 268 268 268 268 268
280 280 280 281 281 280 280 278 277 276 274 273 274 275 276 275 274 273 273 273 273 272 272 272 272 272 272 271 270 270 269 268 268 268 268 268 268 267 268 268 268 267 268
279 278 278 278 278 278 278 277 277 275 274 273 273 273 274 274 273 272 271 271 271 271 271 271 271 270 270 269 268 268 267 267 267 267 266 266 266 266 267 266 266 266 267
277 277 277 276 276 275 275 275 274 274 274 273 273 272 272 271 271 271 270 270 270 270 269 269 268 267 268 267 267 267 266 266 266 266 265 265 265 265 265 265 265 265 266
276 275 274 273 274 274 274 273 272 272 272 272 271 271 270 270 270 269 269 268 268 268 268 267 267 266 265 265 266 266 266 266 265 264 264 263 263 264 264 264 264 265 265
274 273 273 273 272 272 272 271 271 271 271 271 271 270 270 270 269 269 268 268 266 266 266 266 266 266 265 264 263 264 264 261 261 260 261 262 262 262 263 263 264 265 265
271 271 271 271 271 271 270 270 269 270 269 269 269 269 269 268 268 267 267 266 264 264 265 266 265 265 264 264 264 262 260 259 259 259 260 260 261 262 263 264 264 264 264

GFSGL_sfc_thetae_060.txt.gz
Theta_e
321 321 319 319 320 321 320 321 320 320 319 319 319 320 321 322 323 322 321 321 320 320 319 319 320 321 319 319 318 318 317 315 311 313 307 305 301 303 304 304 304 303 302
323 322 320 320 320 320 320 321 322 321 322 320 319 320 320 320 321 320 320 320 319 318 318 318 318 319 318 319 319 318 316 314 313 309 307 299 301 301 303 300 302 304 302
323 323 322 321 321 321 320 322 322 322 323 322 321 319 319 320 319 320 320 319 318 318 318 317 317 317 317 317 318 318 317 315 313 310 307 297 298 298 299 299 299 300 302
324 323 323 323 322 322 323 323 323 324 322 323 323 321 320 320 320 320 319 319 318 318 319 318 319 318 317 317 317 317 315 312 310 308 304 294 296 296 297 296 295 297 298
324 323 322 324 325 325 324 324 324 324 325 324 323 322 322 321 320 319 319 318 318 318 318 319 319 316 309 312 316 316 313 310 308 304 300 292 293 292 293 294 293 294 296
325 324 324 323 324 324 324 324 325 324 324 325 324 323 322 322 310 303 312 319 318 317 316 317 317 306 306 301 302 304 310 310 305 301 300 295 295 292 293 292 291 288 287
325 325 325 325 323 323 324 324 323 323 324 323 322 322 321 322 304 302 300 317 318 317 316 315 314 309 304 301 290 289 288 288 291 299 294 290 289 291 291 289 287 286 285
319 324 326 325 325 324 323 323 322 323 322 322 321 321 321 320 303 301 299 312 316 315 313 313 316 302 299 294 289 287 286 286 287 289 287 285 285 286 287 286 285 285 284
317 316 323 325 324 324 323 322 323 322 321 321 321 320 319 318 294 296 297 305 296 290 291 292 292 291 291 292 289 285 283 283 285 285 285 285 284 283 283 284 282 282 282
313 318 319 321 324 323 323 322 322 322 320 313 296 295 292 295 292 293 298 293 287 285 285 286 286 286 287 288 285 283 280 280 280 280 281 281 282 282 283 282 281 280 280
305 312 310 311 320 322 322 321 320 306 294 289 287 287 287 289 290 292 292 288 286 284 284 284 285 286 286 286 285 282 281 282 282 282 281 281 282 282 282 282 282 280 279
300 305 302 301 303 304 303 298 297 293 289 286 285 284 285 286 287 287 287 286 286 283 282 283 284 285 285 284 283 283 283 282 282 281 280 280 280 280 280 281 281 281 280
293 293 292 292 293 294 294 292 290 289 287 285 283 282 281 283 284 285 285 285 284 282 282 283 282 282 282 282 282 282 281 281 280 280 279 279 279 279 280 280 280 280 280
286 286 285 284 284 286 289 290 288 286 284 283 282 280 280 280 281 282 282 281 281 280 280 279 279 279 279 279 279 278 278 278 278 277 277 278 279 278 277 278 277 276 275
284 284 283 282 282 281 282 282 282 283 284 282 280 281 279 278 280 282 280 280 280 280 280 280 279 279 278 278 278 278 278 277 275 275 275 275 275 275 275 276 275 274 272
282 282 281 281 281 281 280 280 283 283 283 283 283 282 282 283 283 283 283 283 283 283 281 279 278 278 277 277 276 276 275 274 274 274 273 273 272 272 271 272 273 272 271
282 282 281 280 280 279 278 278 276 279 282 282 282 282 282 282 282 283 283 282 282 280 277 276 275 275 275 275 274 274 272 273 274 272 271 270 270 269 269 270 270 270 269
282 282 281 280 279 278 278 277 277 275 274 276 280 280 281 282 282 281 280 279 276 276 275 274 273 273 273 272 272 272 272 271 270 269 266 266 266 267 266 267 268 266 267
280 280 281 280 280 279 278 278 277 276 275 275 276 276 277 279 279 278 278 275 273 272 273 272 272 272 272 272 271 270 267 266 266 264 265 266 262 265 264 265 266 265 265
279 279 280 279 278 277 277 275 274 274 274 274 275 275 275 274 272 272 273 272 272 272 272 271 271 271 270 269 268 267 266 265 264 264 261 261 260 263 262 263 263 264 265
278 278 278 278 277 277 276 274 274 273 272 272 273 274 274 272 271 270 270 270 270 270 269 270 269 269 268 267 267 265 264 263 263 262 263 262 258 260 263 264 264 265 265
277 277 276 275 275 275 275 275 274 273 273 272 272 272 272 271 270 269 269 268 268 268 268 267 267 267 266 265 263 260 261 259 261 261 260 260 261 262 263 261 261 261 263
275 274 274 275 274 272 271 273 273 272 271 271 271 270 269 268 268 268 266 266 267 266 265 265 264 263 263 261 263 263 261 262 262 259 257 258 261 261 259 259 262 262 262
274 273 273 272 271 271 271 271 271 270 270 270 269 269 268 268 267 266 265 263 263 265 264 261 264 262 260 259 260 260 263 260 260 260 257 256 258 259 260 261 261 260 262
272 271 271 271 270 270 269 269 269 269 268 268 268 267 267 267 266 266 263 264 263 261 261 261 260 261 261 258 258 259 257 255 254 254 255 257 257 256 258 260 261 263 261
270 269 269 269 268 268 268 267 267 267 266 266 266 266 266 265 264 264 263 261 258 258 261 260 262 260 259 261 260 257 255 255 254 257 255 258 257 258 260 260 259 260 261

GFSGL_sfc_thetae_063.txt.gz
Theta_e
317 318 319 319 319 319 317 316 315 315 314 314 317 319 320 319 319 320 321 321 319 319 319 318 318 318 317 317 317 317 315 314 310 313 310 308 305 307 306 306 307 306 307
317 317 317 319 319 319 319 318 318 316 316 315 315 317 319 319 320 318 318 320 319 318 318 317 317 318 317 317 317 316 316 316 313 311 313 304 304 302 303 302 305 306 305
319 317 317 317 317 318 319 320 319 319 317 317 316 315 315 316 318 319 319 319 319 319 318 317 317 316 316 317 317 316 316 316 316 314 313 303 304 298 299 300 301 302 304
320 318 317 317 316 317 318 319 319 319 318 318 318 317 317 317 317 317 318 318 319 319 318 318 317 317 316 316 315 314 315 315 315 313 313 302 298 298 300 299 296 300 299
320 319 319 318 319 318 317 318 320 319 319 319 319 318 318 317 317 317 317 317 316 316 317 317 317 314 308 311 315 315 314 314 314 313 310 298 296 293 295 298 298 296 297
321 320 320 321 320 319 319 319 319 319 319 320 318 319 319 319 308 302 311 316 316 315 315 315 316 306 306 301 301 303 311 313 313 311 309 306 301 299 296 294 292 289 289
313 317 321 321 320 321 321 320 320 320 321 320 320 320 319 320 304 301 300 315 316 315 315 315 315 315 306 311 292 292 291 291 291 309 310 303 292 291 292 290 288 287 287
305 306 310 314 317 320 321 321 321 321 321 320 320 320 321 321 305 302 299 311 316 317 317 316 316 313 307 299 291 287 285 285 286 288 287 285 285 287 287 287 286 285 285
298 300 303 309 308 308 317 319 321 320 320 320 321 321 320 320 300 300 299 311 312 293 291 293 296 295 292 293 288 284 282 282 285 286 285 284 284 285 286 285 282 282 281
295 296 300 304 302 302 304 309 320 320 319 319 303 295 292 298 291 295 299 301 289 286 286 287 288 289 288 288 285 283 280 280 281 281 282 283 284 284 283 283 282 280 280
293 296 296 296 295 297 298 298 313 310 295 291 289 289 289 290 291 294 295 294 289 285 284 284 285 286 287 286 285 283 281 282 281 281 281 281 282 282 281 281 281 280 278
291 290 289 288 289 290 293 294 295 294 292 289 287 285 285 286 287 288 288 288 287 284 283 284 284 285 285 284 283 284 283 282 281 280 280 279 279 279 279 280 280 280 280
287 285 284 285 284 285 285 288 290 290 288 286 285 283 282 283 284 285 285 285 284 283 283 284 284 283 283 282 283 282 281 281 280 278 277 277 278 279 280 280 280 279 279
283 283 283 282 282 282 283 283 283 285 285 284 283 281 281 281 280 281 281 281 280 280 279 280 279 279 278 278 279 279 278 278 277 276 276 276 277 277 276 277 276 276 275
282 281 281 281 281 280 281 281 281 282 283 281 282 282 280 278 280 282 281 280 279 279 280 279 278 277 277 276 276 275 276 276 274 274 274 274 274 274 273 274 274 273 270
280 280 280 279 280 279 279 279 282 283 283 283 283 283 283 283 284 284 284 284 283 282 279 276 275 275 275 274 273 273 273 273 273 273 272 272 271 270 270 271 271 269 267
279 279 278 278 278 277 277 277 275 278 281 282 283 283 283 282 282 282 281 280 280 278 275 274 273 273 273 273 272 272 271 271 272 271 270 269 268 268 267 268 268 268 267
279 279 278 278 277 277 276 275 275 274 273 274 279 279 280 280 280 279 278 276 273 274 273 272 271 271 272 271 271 270 269 269 268 268 266 265 264 266 265 266 266 263 265
278 278 278 277 276 276 275 275 275 275 274 273 274 274 275 277 277 277 276 273 271 271 271 270 270 270 270 269 268 267 267 265 263 261 262 264 260 263 262 263 263 262 262
277 278 278 277 275 275 274 273 273 273 272 272 272 272 272 271 270 269 270 270 269 270 270 269 269 268 267 267 265 262 263 262 262 263 258 257 255 259 259 260 260 259 263
276 276 275 275 275 275 274 273 272 272 271 271 271 271 271 269 268 268 267 266 267 267 267 267 266 265 264 263 264 262 260 260 261 260 259 259 253 257 260 260 259 262 263
275 274 274 272 272 273 273 273 272 271 270 269 269 269 269 268 267 267 266 265 265 265 265 264 264 263 263 262 262 257 259 259 257 257 256 256 257 257 258 256 256 255 259
272 271 272 272 272 271 270 271 270 269 268 268 268 267 267 266 265 265 264 265 265 264 264 263 261 260 261 260 260 258 259 258 256 253 252 252 255 254 253 254 257 256 256
271 270 270 269 269 268 267 267 268 267 267 266 266 266 265 265 263 261 261 259 261 259 258 262 260 260 258 255 254 258 257 252 254 254 250 249 252 256 254 255 257 255 258
268 267 267 267 266 265 265 265 265 264 264 263 263 263 264 263 263 260 257 255 255 255 260 260 258 256 254 255 254 254 253 253 250 252 251 252 250 250 252 256 257 259 256
267 265 265 264 263 262 259 258 259 260 258 256 258 261 258 255 258 258 254 255 255 257 256 255 255 256 258 257 256 254 252 253 252 252 249 252 251 252 252 253 254 256 258

GFSGL_sfc_thetae_066.txt.gz
Theta_e
317 317 318 318 319 318 316 313 313 314 312 312 315 318 318 317 316 316 317 318 317 317 318 317 317 318 316 316 316 316 315 314 310 312 311 310 309 310 310 309 310 309 309
317 317 317 318 319 319 318 317 315 313 313 313 312 316 317 318 317 315 314 316 317 317 317 317 316 317 315 317 315 314 314 314 312 309 312 307 305 308 312 309 309 309 308
316 316 316 317 317 317 318 318 317 316 314 313 313 312 314 317 317 317 316 316 316 317 318 317 316 316 315 315 315 314 314 314 314 312 311 313 308 299 301 301 304 306 307
317 316 315 315 317 317 317 318 319 319 317 316 315 314 313 313 315 317 317 316 316 316 317 318 318 316 315 315 314 314 314 313 313 312 313 313 309 302 300 302 302 302 304
318 317 316 317 317 317 317 317 318 318 318 318 317 317 315 314 313 313 314 314 315 316 316 317 318 316 310 312 315 315 315 313 313 312 312 312 306 294 298 305 303 305 300
307 306 316 319 319 317 317 316 316 317 317 318 317 317 317 316 307 302 308 314 314 314 314 316 317 307 306 301 301 303 310 313 311 312 312 311 312 306 307 305 301 291 292
300 301 303 305 310 317 319 318 316 316 317 317 317 318 317 317 304 301 299 313 315 314 314 314 314 314 306 313 300 296 290 289 291 305 312 312 310 309 307 292 290 289 287
295 296 299 301 304 304 306 310 318 318 317 316 316 317 317 317 304 300 298 311 313 314 315 314 315 314 313 311 299 288 286 286 286 289 289 286 286 288 291 290 287 285 284
292 293 295 297 297 298 299 301 303 304 316 318 318 318 317 317 305 300 300 313 313 313 314 306 306 312 306 299 292 285 283 283 286 286 286 286 287 287 288 288 285 285 281
290 291 291 291 291 292 294 295 298 299 301 312 319 318 312 317 300 297 301 314 313 309 290 289 290 295 292 293 292 285 281 281 282 282 282 283 283 283 284 284 284 282 280
289 289 287 287 287 289 289 292 295 295 295 295 293 289 290 289 290 293 296 307 304 288 286 285 286 287 288 288 287 285 282 282 281 281 281 280 280 280 280 281 281 281 279
286 285 284 284 284 285 286 286 289 290 289 287 285 284 284 285 286 288 288 288 289 287 285 284 285 286 285 285 284 284 283 282 281 280 279 278 278 278 279 280 280 280 280
283 282 282 282 282 283 283 283 284 286 285 284 283 281 281 282 282 284 285 285 285 284 284 284 283 283 282 281 282 282 281 280 278 277 276 276 277 278 278 278 278 278 278
281 280 280 280 280 281 282 282 282 282 282 282 281 279 279 280 281 281 281 281 281 280 279 279 279 279 278 277 277 277 276 276 276 275 274 275 276 275 274 275 274 275 274
280 279 279 279 279 279 279 281 281 282 282 280 280 281 279 279 280 282 281 280 280 279 279 278 276 275 274 274 274 274 274 274 273 273 273 272 272 272 272 273 272 271 270
278 277 276 276 276 277 277 277 280 281 283 283 283 282 281 283 283 282 282 281 281 279 276 274 273 273 272 272 272 271 272 271 272 272 271 271 270 270 269 269 270 268 267
277 277 276 276 276 275 275 274 273 276 278 280 280 281 281 281 280 280 279 279 278 276 272 272 271 271 271 272 271 270 269 270 271 269 268 268 268 268 268 267 267 267 266
275 275 274 274 274 273 274 275 274 273 272 272 275 277 278 278 278 278 277 275 272 272 271 270 270 270 270 270 269 268 268 268 267 267 266 265 266 266 265 265 265 264 264
276 274 273 273 273 273 274 274 273 273 272 271 272 272 272 275 274 274 274 271 269 269 269 268 269 268 268 267 267 266 266 265 264 263 263 262 261 264 263 264 264 263 263
273 274 273 273 272 272 273 272 272 271 270 269 269 269 270 269 267 267 267 267 268 267 267 267 266 266 266 266 264 264 263 262 263 263 260 257 255 262 261 261 261 260 262
272 272 271 273 273 272 271 271 271 270 269 268 268 269 269 267 266 265 265 265 265 265 265 265 264 264 264 263 263 261 260 260 259 259 258 259 256 258 260 259 258 260 261
270 271 271 270 270 270 270 270 269 269 268 267 267 267 266 265 265 265 264 263 264 265 264 263 263 263 262 261 261 259 258 256 255 255 254 254 254 254 254 255 254 253 257
269 268 268 269 269 268 267 268 267 266 266 265 266 265 264 263 262 262 262 261 261 260 260 260 259 259 259 257 258 257 257 255 253 251 249 249 253 252 251 251 254 253 253
267 266 267 266 265 265 265 264 265 264 264 263 263 263 262 261 259 257 256 255 256 258 257 257 258 258 257 253 253 255 256 251 253 252 248 248 251 253 250 253 254 253 253
264 263 263 263 261 259 259 261 260 258 260 260 260 259 258 260 257 253 253 254 256 255 257 255 253 252 252 251 252 252 251 252 249 251 250 250 249 248 250 252 251 254 252
263 261 260 260 258 257 257 257 255 253 252 251 252 251 251 254 253 248 249 252 252 253 253 254 257 255 254 255 255 253 251 252 249 250 246 251 248 248 248 249 251 252 254

GFSGL_sfc_thetae_069.txt.gz
Theta_e
316 317 316 315 314 313 311 311 312 312 312 312 317 317 315 316 316 316 315 315 314 315 316 315 315 316 316 316 315 315 314 313 310 312 310 309 307 309 310 309 310 309 309
317 317 316 315 316 315 314 314 312 312 312 312 312 316 318 316 316 315 316 317 316 314 314 314 314 316 316 317 316 314 314 315 312 310 313 310 306 310 310 308 309 310 310
316 317 316 315 315 315 316 317 316 314 313 312 313 312 314 316 317 316 315 314 315 315 316 315 315 315 314 315 316 315 315 314 314 312 311 313 311 302 304 302 305 306 308
316 316 315 315 315 316 316 316 316 316 315 314 313 312 312 313 315 316 315 314 314 313 314 315 315 315 315 315 314 315 315 314 313 311 311 311 311 307 301 306 307 304 307
310 310 313 316 317 318 317 316 317 316 316 316 315 314 314 312 312 312 314 315 314 314 314 314 315 314 309 311 315 314 313 312 311 311 311 311 311 305 304 309 306 310 310
299 300 303 305 311 314 317 317 317 317 317 317 315 315 315 315 306 301 305 311 312 313 313 314 315 306 306 301 301 303 310 312 311 311 311 310 311 312 311 308 309 304 301
295 296 298 299 301 302 303 305 313 316 317 317 317 317 316 316 303 301 299 311 312 312 312 312 312 314 307 314 303 298 299 298 302 313 312 312 311 312 313 308 306 308 303
292 293 293 293 294 295 297 299 299 302 303 309 315 317 317 317 304 301 301 311 313 313 313 313 312 312 312 311 311 308 304 303 292 293 302 304 295 292 295 297 295 285 285
289 289 289 289 289 291 292 292 294 297 299 300 303 304 312 316 304 299 300 311 312 313 314 314 313 312 308 302 308 306 290 286 287 288 287 287 287 287 289 289 286 287 282
286 286 285 285 286 287 288 288 290 293 295 296 294 290 288 288 289 289 292 309 311 311 312 310 288 288 290 294 306 306 291 284 283 282 281 281 282 283 283 282 285 282 280
285 284 283 283 285 285 285 286 287 289 290 288 285 284 284 284 286 288 290 294 303 302 289 285 285 287 287 288 288 289 285 282 281 280 279 279 279 279 280 280 280 280 277
283 282 281 281 283 283 283 284 285 286 285 284 282 282 282 282 284 285 286 287 288 286 285 284 284 285 285 285 284 284 283 281 280 278 277 277 276 276 277 278 278 278 278
281 280 280 280 281 282 282 282 282 283 282 281 281 280 280 281 281 283 283 283 283 282 282 281 281 281 281 280 281 281 279 278 277 275 274 274 275 276 276 276 278 277 277
279 279 279 279 279 279 280 280 280 280 280 281 280 279 279 280 280 280 280 280 280 279 278 277 277 277 276 276 276 276 275 275 274 273 273 273 274 273 273 274 273 274 273
278 278 277 277 277 278 278 278 278 280 280 278 278 279 278 278 279 281 280 279 278 278 276 275 274 274 273 273 273 273 273 273 272 272 271 271 271 271 270 271 271 271 269
277 276 276 276 276 276 276 276 279 279 280 281 281 279 279 280 280 280 280 279 278 277 274 272 271 271 270 270 270 270 270 270 270 270 269 269 269 269 268 269 269 268 267
276 276 275 274 274 274 273 273 271 274 277 278 278 279 279 279 279 278 277 277 276 274 271 270 270 270 269 269 269 269 268 268 269 268 268 267 268 268 267 267 267 267 266
272 272 272 272 272 271 271 271 271 270 269 269 274 275 277 277 277 276 275 273 270 270 269 268 267 268 268 268 268 267 267 266 266 265 265 265 265 266 265 265 265 264 264
272 271 270 270 270 270 270 270 269 268 268 267 268 269 270 273 273 273 272 268 267 267 267 267 267 267 267 266 265 264 264 263 263 262 262 262 261 264 263 263 263 263 262
270 272 270 270 270 269 269 268 268 267 266 266 266 266 267 267 265 265 266 266 265 265 265 265 265 265 265 265 264 264 263 263 262 262 260 259 259 262 261 261 260 260 262
268 269 268 270 269 269 268 268 267 266 266 265 264 265 265 265 263 264 264 264 264 264 264 264 263 263 263 263 262 261 259 259 259 259 259 259 255 257 258 257 258 259 261
269 269 269 268 268 267 267 267 266 266 265 264 263 263 262 263 262 262 262 261 262 263 263 262 261 261 261 261 260 258 256 254 254 254 254 253 255 255 254 254 253 253 258
267 265 266 266 266 263 264 265 263 263 262 261 262 261 260 258 258 259 257 256 259 258 259 259 258 258 257 256 257 256 255 254 253 251 249 250 254 252 250 250 253 253 253
264 263 265 263 261 262 259 257 259 260 260 258 255 257 255 253 250 249 251 252 254 254 252 251 254 255 255 250 251 254 255 251 253 252 248 248 250 252 249 252 253 251 251
261 259 259 258 255 254 255 255 254 253 254 252 252 253 255 254 252 248 247 249 251 248 251 250 250 251 250 250 250 251 251 250 249 249 248 249 248 247 248 250 249 252 250
260 258 256 256 254 253 252 250 248 248 248 248 247 246 247 249 248 245 247 249 249 249 250 251 252 251 252 254 254 253 251 251 249 248 245 250 247 247 247 248 250 250 252

GFSGL_sfc_thetae_072.txt.gz
Theta_e
315 316 312 312 311 310 310 311 314 314 315 314 314 315 315 316 317 316 316 315 315 315 316 314 313 314 313 314 314 313 312 312 309 312 311 311 309 310 311 312 312 312 312
316 316 316 315 312 310 310 310 311 313 312 313 316 314 314 315 316 316 315 315 313 313 314 314 313 314 313 313 313 313 314 315 313 310 314 314 308 312 312 312 311 311 312
317 316 315 315 314 312 312 312 311 311 311 311 311 314 315 315 314 315 315 315 313 313 313 312 313 314 313 314 314 314 315 315 314 312 312 315 315 309 308 309 311 311 310
315 316 315 315 316 316 316 315 314 313 312 313 313 313 313 314 315 315 314 314 315 315 316 316 315 314 313 313 313 314 314 314 314 313 312 313 314 315 306 309 309 306 309
304 304 305 309 317 317 317 317 317 316 315 314 313 312 313 313 313 313 314 314 313 313 313 313 314 313 308 311 314 314 314 312 312 311 311 311 311 311 307 311 308 310 312
296 297 298 300 303 303 304 306 314 317 317 316 315 314 313 313 303 300 306 312 313 313 313 313 314 306 305 300 300 302 310 312 310 310 310 309 310 311 312 311 310 309 306
292 292 292 294 295 296 299 300 299 301 303 305 311 315 316 316 302 300 298 310 312 312 312 312 312 313 306 312 304 297 298 297 301 312 310 310 311 312 313 311 311 310 309
288 288 288 289 290 292 292 292 293 296 299 300 301 301 299 296 288 289 290 305 311 313 313 313 312 313 313 311 311 310 307 305 305 305 308 309 292 291 297 302 303 298 285
284 284 284 286 287 288 288 289 291 292 295 295 291 290 287 288 287 288 289 295 307 310 313 314 313 313 307 302 307 307 307 291 287 289 287 285 284 285 287 291 289 287 284
283 282 283 285 285 285 286 287 289 291 291 290 286 285 284 284 286 287 288 293 295 301 305 287 286 287 288 292 296 306 305 288 282 281 281 281 281 281 282 281 284 285 282
282 282 282 283 284 284 285 286 287 287 286 284 283 283 283 283 284 285 286 288 289 285 284 283 284 285 287 290 287 287 285 282 280 279 279 278 278 278 278 278 278 278 276
281 280 280 281 282 282 282 283 283 284 283 282 282 281 282 282 283 283 282 283 283 281 279 280 281 282 283 283 282 282 282 280 278 276 275 275 275 275 276 276 277 277 276
280 280 279 279 280 280 280 280 281 281 280 280 280 280 280 281 280 281 282 281 280 278 279 279 278 278 278 278 279 279 277 276 275 273 272 272 273 274 275 276 276 275 274
278 278 279 278 278 279 279 280 279 279 278 278 277 277 277 278 278 278 277 277 277 277 276 275 275 276 274 274 274 274 274 273 273 272 271 271 272 272 272 273 273 273 271
277 277 277 277 278 277 278 278 278 279 279 276 277 277 276 276 278 280 278 275 274 275 274 274 272 272 271 271 271 271 271 271 270 271 271 270 270 270 270 271 271 270 269
276 275 274 275 275 275 276 275 278 279 279 280 280 278 278 279 279 279 279 278 277 276 272 270 269 269 269 269 268 268 269 269 269 269 269 269 269 269 268 269 269 269 267
274 274 273 273 273 272 271 271 269 272 275 277 278 278 278 278 278 277 277 276 275 273 268 267 267 268 268 268 268 267 266 267 268 267 267 267 268 268 267 267 267 267 266
269 270 269 270 269 268 266 266 266 266 265 266 272 274 275 276 275 275 273 271 267 268 267 266 266 266 267 266 266 266 265 265 264 264 264 264 265 266 265 265 265 264 265
268 267 265 264 265 265 264 265 265 265 264 264 265 266 267 271 271 271 270 265 264 264 265 265 266 266 266 265 265 264 264 263 262 262 262 263 263 264 263 263 263 263 263
265 269 267 266 265 266 266 265 265 264 263 263 263 263 264 263 262 262 262 262 263 263 263 264 264 264 264 264 263 263 262 262 261 262 260 259 260 262 261 261 261 261 262
264 266 266 267 267 266 266 265 265 264 263 262 261 261 262 262 261 260 261 261 261 261 261 262 261 261 262 261 261 260 259 258 259 259 258 259 257 259 260 260 260 261 261
266 267 267 266 266 265 265 264 263 263 262 261 261 260 259 259 259 259 258 256 256 260 260 259 259 259 259 259 258 256 255 254 255 254 255 256 257 257 258 258 258 257 259
264 263 264 264 264 261 261 262 260 259 258 257 259 258 258 254 254 256 255 252 256 254 255 255 254 255 255 254 255 256 255 254 254 253 252 253 255 255 254 256 256 256 256
262 260 263 260 259 259 255 253 256 257 257 254 251 252 251 248 247 249 251 251 251 249 248 249 253 254 254 251 252 255 255 252 254 253 250 252 254 254 254 255 256 254 255
258 257 256 256 254 251 252 252 250 248 249 248 249 249 251 250 249 245 245 247 249 247 251 250 250 252 250 249 250 251 251 250 250 249 252 252 251 251 252 254 253 255 254
259 257 254 254 252 251 249 247 245 245 246 245 245 244 245 247 248 244 246 248 248 250 252 250 251 251 251 255 255 252 250 250 250 248 249 253 252 252 252 252 253 254 255

GFSGL_sfc_thetae_075.txt.gz
Theta_e
317 318 320 320 320 320 318 318 319 319 318 317 319 318 318 319 319 318 318 318 317 317 317 317 316 317 316 315 315 314 312 312 311 314 318 322 320 320 320 319 316 316 317
317 317 317 319 319 318 319 320 321 319 319 317 317 318 319 320 321 320 319 317 316 316 317 316 315 316 315 317 315 314 317 318 315 313 317 319 321 323 323 322 319 316 318
317 317 317 317 317 317 318 318 319 320 320 319 318 316 317 320 321 319 320 320 319 318 318 317 317 316 316 315 316 316 317 316 316 315 316 320 321 324 322 321 321 322 321
316 315 313 316 316 316 318 319 318 318 319 319 319 320 320 319 318 318 319 319 320 320 320 319 319 319 319 320 320 319 317 316 316 315 315 318 320 322 323 319 320 322 318
302 302 302 304 306 308 312 315 318 318 318 318 318 318 319 319 318 318 317 316 317 319 321 320 321 318 309 314 319 319 320 318 316 315 314 317 317 318 318 320 318 319 320
293 293 295 297 299 300 302 303 304 304 305 312 314 314 313 307 290 292 300 316 317 317 318 319 320 309 309 300 300 302 311 316 314 314 313 312 314 318 319 318 317 316 313
290 291 291 293 294 294 296 297 297 299 301 302 300 300 296 290 288 290 290 299 308 313 314 315 316 317 309 317 304 297 298 298 300 312 311 311 311 313 313 312 312 311 311
288 288 289 291 291 292 294 295 295 298 297 293 292 290 291 288 287 288 288 296 301 306 310 312 311 311 312 309 312 311 309 308 304 303 307 309 296 288 291 299 302 302 287
285 286 288 289 289 290 290 291 293 294 292 288 287 286 287 286 286 286 288 295 298 299 290 288 287 289 289 290 295 304 307 288 286 285 285 284 283 283 284 291 290 290 286
283 284 286 286 287 287 287 289 289 289 287 286 285 285 285 285 285 285 288 293 292 288 285 284 285 286 286 287 290 291 287 283 282 280 279 279 279 280 281 280 283 286 285
283 283 284 284 285 286 286 287 287 286 285 284 284 284 284 283 284 284 284 284 283 281 281 280 281 283 283 284 283 282 281 280 279 278 277 277 277 276 277 276 276 277 277
282 282 282 282 283 283 284 284 285 285 284 283 283 282 282 282 282 282 282 282 281 279 278 279 279 280 281 281 280 280 279 277 276 275 274 273 274 276 275 276 275 277 277
281 281 281 281 281 282 282 282 281 281 281 281 280 280 280 281 282 280 280 280 280 280 280 279 278 278 278 278 278 277 276 276 275 273 273 274 275 276 278 278 277 277 276
280 280 280 279 280 280 281 281 280 280 280 280 279 279 280 280 281 282 281 281 280 280 279 278 277 277 276 276 277 278 277 277 276 275 274 274 275 276 275 276 275 276 273
279 279 279 279 278 278 279 279 279 280 280 279 279 279 279 278 279 280 280 279 279 277 278 278 277 277 276 276 275 274 275 276 275 274 274 273 273 273 272 274 273 273 271
278 278 277 278 278 278 277 276 278 279 279 279 279 280 279 279 279 278 278 277 276 276 276 275 274 274 273 273 273 272 272 271 273 273 273 272 271 271 271 272 272 271 271
277 277 277 277 277 276 275 275 274 274 275 276 277 277 277 277 277 276 275 275 274 275 273 272 271 271 271 271 271 271 270 270 271 270 271 271 270 270 270 270 270 270 269
274 272 275 275 274 274 273 272 272 272 271 270 272 272 275 274 274 274 273 274 272 272 271 271 270 270 270 270 269 269 269 269 269 269 269 269 269 269 269 268 268 268 269
274 273 273 273 272 272 272 272 271 270 269 269 270 270 269 271 271 271 271 270 269 269 269 269 270 269 269 269 268 268 267 267 267 267 266 267 267 268 267 267 267 265 267
273 271 272 273 273 272 272 271 270 269 268 267 267 267 269 269 268 267 267 268 268 268 268 268 268 268 268 267 267 267 267 266 266 266 265 265 266 266 266 265 266 266 266
274 273 271 273 272 271 271 270 269 268 267 266 266 264 263 267 266 266 266 266 266 266 266 267 266 266 267 266 265 265 264 264 263 263 264 264 264 265 265 265 265 266 265
273 272 272 271 270 270 269 269 268 267 267 266 266 264 263 266 265 265 264 264 265 265 265 265 265 265 264 264 264 264 262 261 262 262 262 262 263 264 264 264 264 264 265
271 270 270 269 269 266 268 267 267 266 266 265 265 264 264 264 263 263 263 263 264 263 264 264 264 263 263 262 263 263 262 261 261 260 261 261 262 263 263 264 263 263 263
269 269 268 267 267 266 266 266 265 263 265 264 264 263 263 262 262 261 261 262 263 263 262 262 262 261 261 262 262 263 261 260 261 260 258 260 261 262 263 263 263 261 262
267 266 266 266 265 265 265 264 264 264 264 264 264 264 263 263 262 262 261 261 260 261 261 261 261 260 260 258 258 259 258 257 258 255 260 259 258 258 259 262 261 262 261
266 265 265 265 264 264 264 264 263 263 263 262 262 262 262 262 261 261 260 260 260 260 259 261 261 259 259 259 258 258 257 257 258 254 258 260 260 260 261 260 259 261 261

GFSGL_sfc_thetae_078.txt.gz
Theta_e
319 321 322 322 323 322 322 321 322 323 323 321 323 322 321 320 319 318 318 316 315 316 316 315 316 317 316 317 318 317 318 317 312 315 317 320 321 324 324 325 323 324 325
319 320 321 321 323 323 322 321 322 321 322 322 322 322 320 319 319 319 318 318 316 314 315 316 316 317 316 317 316 315 315 315 312 310 315 315 317 321 325 326 324 324 326
318 319 318 318 318 319 321 323 323 322 320 321 321 320 320 320 320 321 322 322 321 320 319 316 316 315 315 316 316 315 316 316 315 312 314 321 323 324 324 325 326 328 326
316 313 311 315 317 318 319 321 321 322 321 320 320 320 320 321 321 322 323 323 322 321 323 322 322 322 322 322 322 321 320 319 320 319 319 319 321 323 323 321 322 326 325
301 301 301 302 304 306 307 308 314 318 320 322 322 322 322 310 295 299 318 320 320 321 322 322 322 319 310 314 323 323 322 321 321 320 317 319 320 320 320 322 321 323 325
295 295 297 299 298 299 300 301 303 304 305 304 301 299 297 293 289 290 293 310 315 317 317 318 320 310 309 301 301 302 310 317 317 316 316 314 315 318 320 319 318 316 314
293 294 296 297 296 296 298 299 300 299 297 295 295 294 289 288 287 288 288 295 302 307 309 307 310 313 305 310 304 297 298 296 297 309 311 313 313 313 307 312 313 313 312
293 292 293 293 295 298 298 298 297 295 292 290 290 290 288 286 286 287 287 297 301 292 288 288 290 292 290 290 295 301 307 290 288 293 290 285 283 284 286 292 293 294 290
287 288 290 292 292 294 294 294 295 293 291 289 289 288 289 286 286 286 293 301 292 288 286 285 286 286 286 287 293 295 290 283 285 284 283 282 282 282 281 288 287 288 289
287 288 289 289 290 290 291 291 291 291 289 289 288 289 286 288 284 285 290 290 286 284 283 283 283 283 284 284 288 290 282 280 280 279 279 279 279 278 279 278 278 283 284
286 286 286 288 288 288 289 290 290 289 289 288 287 287 286 284 284 283 285 287 283 282 281 281 282 282 282 282 282 281 279 279 278 277 277 277 277 277 277 279 278 277 277
286 285 285 285 287 287 287 287 288 287 287 287 286 285 285 284 282 282 282 283 285 284 282 282 282 281 281 281 282 280 280 280 279 278 277 277 277 279 280 279 279 279 279
284 284 284 285 284 285 286 286 287 287 287 286 285 284 283 284 285 282 281 281 281 282 281 281 280 281 281 281 280 281 282 284 283 281 280 279 280 280 282 282 282 281 280
283 283 283 283 283 283 284 284 284 284 284 283 283 282 282 282 282 284 283 284 282 282 282 282 281 281 281 280 281 281 281 280 280 279 279 280 281 280 280 281 280 280 279
283 283 283 282 281 280 280 281 280 281 282 281 281 281 281 279 279 279 280 281 281 281 282 282 281 281 280 280 279 278 278 279 279 279 279 279 278 278 278 279 278 278 276
282 282 282 283 283 282 280 277 278 278 279 279 279 280 279 278 278 278 278 277 278 280 281 279 278 278 277 277 277 277 277 275 276 277 277 277 276 276 276 277 277 276 275
282 282 282 282 282 281 281 281 277 276 275 276 277 277 277 276 276 276 276 276 277 279 279 277 277 276 276 276 275 275 274 274 275 275 275 275 275 275 275 274 275 275 274
279 278 281 281 281 280 279 279 279 278 277 276 273 273 274 274 274 275 275 278 277 276 276 275 275 275 275 274 274 273 273 274 273 273 273 273 274 274 273 273 272 272 273
280 279 279 279 278 278 278 277 277 276 276 276 276 275 273 273 273 273 274 275 275 274 274 273 274 274 273 273 273 273 272 271 271 272 272 272 272 272 271 271 272 269 270
277 276 278 279 278 278 277 276 275 275 274 273 272 272 275 275 274 273 273 273 273 273 273 272 272 272 272 272 272 271 272 271 271 271 271 270 271 271 271 270 270 271 270
279 277 276 278 277 276 276 275 274 274 273 272 270 268 268 272 271 271 271 271 271 271 271 271 271 271 271 271 270 270 269 269 268 268 269 269 269 269 270 270 270 270 270
278 277 276 276 276 275 274 274 274 273 272 271 271 269 268 271 271 270 270 269 270 270 270 270 270 269 268 268 268 269 267 267 267 267 267 267 268 269 269 269 269 269 269
276 275 275 274 274 272 273 273 273 272 271 271 271 270 270 270 269 269 268 268 269 268 268 269 268 267 268 267 268 267 266 265 265 265 264 266 267 267 268 268 268 267 267
275 274 273 273 273 273 273 272 270 268 270 271 271 270 269 268 268 267 267 267 267 268 267 267 266 264 265 266 267 267 265 264 264 265 262 264 265 266 267 266 267 266 266
273 273 272 272 272 271 271 271 270 270 270 270 270 270 269 269 268 267 267 266 265 266 264 264 265 265 264 262 262 262 261 260 261 259 264 264 264 263 264 265 264 266 265
271 271 271 271 271 271 271 270 270 269 268 269 269 268 267 267 267 266 266 264 264 264 263 265 264 263 262 264 261 262 260 259 260 259 260 264 264 264 264 264 264 265 265

GFSGL_sfc_thetae_081.txt.gz
Theta_e
324 326 324 324 325 326 325 325 324 325 324 323 324 322 320 318 317 316 317 315 314 315 316 317 316 318 317 317 318 318 318 319 314 318 319 322 322 323 322 323 326 326 325
323 323 323 323 323 324 323 324 325 323 323 322 322 322 321 320 319 318 316 316 314 314 314 314 314 315 316 317 316 316 316 316 313 311 314 315 318 321 318 318 319 320 324
321 321 321 322 323 322 322 322 323 322 321 321 322 322 322 322 321 319 318 318 317 315 316 314 315 316 315 316 316 315 315 315 314 312 312 315 317 319 319 319 320 322 323
315 313 313 316 321 321 322 323 323 323 320 320 320 321 321 320 316 317 320 319 319 320 321 321 319 318 317 316 316 317 318 318 318 317 316 318 320 322 323 320 320 323 323
303 302 302 303 304 305 306 311 315 311 310 310 316 305 299 296 292 295 305 316 321 321 324 322 322 318 309 312 319 319 321 319 318 319 318 319 320 320 319 321 320 321 323
297 297 298 299 300 300 301 303 300 299 299 300 295 294 292 291 288 289 292 308 314 312 312 307 310 297 297 294 294 295 298 310 316 315 315 314 317 319 320 318 318 317 314
294 295 297 298 298 299 299 297 295 293 293 292 292 290 287 287 287 289 289 300 298 293 292 292 296 294 290 291 294 294 287 287 289 296 301 300 292 287 288 294 300 299 299
292 293 295 297 297 298 297 294 293 291 290 290 290 289 287 286 287 288 289 294 290 287 286 288 288 287 286 287 292 296 285 284 284 284 282 281 281 282 283 287 289 290 290
288 289 293 294 295 295 294 293 293 292 290 289 289 289 287 285 286 288 293 291 288 286 285 285 286 286 285 287 295 289 283 281 283 283 282 282 282 282 282 285 281 284 287
287 289 290 291 292 291 292 292 292 292 290 290 288 288 287 285 285 287 290 288 285 284 284 284 283 283 284 285 287 284 280 279 279 279 279 280 280 280 281 280 279 280 278
287 288 288 289 289 290 291 292 291 291 290 289 287 287 286 285 283 284 287 288 286 285 283 282 283 283 283 283 283 282 280 281 280 280 280 281 283 282 282 282 282 282 281
286 286 286 287 288 289 290 290 289 290 289 287 286 286 286 285 283 283 283 284 285 283 282 282 282 282 282 283 283 283 283 284 285 283 282 281 281 281 282 282 282 281 281
287 286 285 285 286 286 286 287 287 288 287 286 285 284 283 285 285 283 283 282 282 282 283 282 282 282 282 282 281 282 282 283 283 281 280 280 281 282 284 285 286 284 282
285 284 285 285 285 285 284 283 282 284 284 284 284 283 282 281 282 284 284 284 283 283 283 283 283 282 282 282 282 282 282 282 281 280 280 281 283 282 280 282 281 281 280
285 284 283 282 281 279 279 280 280 280 280 281 281 280 280 278 278 279 280 281 283 282 284 284 282 282 281 281 280 280 279 280 279 280 280 279 279 279 279 280 279 279 278
283 284 284 284 283 281 279 277 278 279 279 279 279 280 279 278 278 279 279 279 280 282 282 280 279 279 279 278 278 278 277 277 278 278 278 278 277 277 277 278 278 278 276
283 283 283 283 282 282 282 280 276 276 276 277 277 277 277 277 276 277 278 278 279 281 280 279 278 278 277 277 277 276 275 276 276 276 276 276 276 276 276 276 275 275 275
281 281 281 281 281 281 280 280 280 280 278 275 274 275 275 275 276 277 278 279 279 278 278 277 276 276 276 275 275 274 274 274 274 275 274 274 274 275 274 274 274 272 273
280 280 280 280 280 280 280 280 280 279 278 278 278 277 276 275 276 276 277 277 276 275 275 275 275 275 275 275 274 274 274 273 273 273 273 272 273 273 273 273 273 272 271
279 279 280 281 280 280 280 279 278 278 277 275 273 273 276 277 276 275 275 275 275 274 274 274 274 274 273 273 274 273 273 272 271 272 272 272 272 272 272 272 272 271 271
281 280 278 280 279 279 278 277 277 276 275 274 271 271 270 275 274 273 273 273 273 273 273 273 273 272 272 272 272 272 270 271 270 270 270 270 270 271 271 272 271 271 271
279 279 278 277 278 277 277 277 276 275 275 274 273 271 271 274 273 272 272 271 272 272 272 272 271 271 270 270 270 270 269 268 268 268 267 268 269 270 270 270 270 269 270
278 277 277 276 276 275 276 275 275 275 274 273 273 272 272 272 271 271 271 270 271 270 269 270 269 269 268 269 269 269 267 266 266 266 265 266 267 268 268 269 269 268 267
277 276 275 275 274 275 275 274 273 270 272 273 272 272 271 271 270 270 269 269 268 269 269 268 267 266 265 266 268 268 265 264 263 265 263 265 266 266 266 267 267 267 267
275 275 274 274 274 274 274 273 273 272 272 272 271 271 271 271 270 269 269 268 266 267 267 266 267 266 266 264 264 264 262 261 261 261 263 265 266 265 266 265 266 266 266
273 273 273 273 273 273 272 272 272 271 271 271 271 270 270 269 269 268 268 267 266 266 266 267 266 265 264 266 265 263 261 261 260 259 260 263 265 265 265 264 265 265 265

GFSGL_sfc_thetae_087.txt.gz
Theta_e
325 324 322 322 323 324 324 323 323 322 320 320 319 318 318 318 318 320 319 319 318 318 317 317 316 316 314 315 314 312 312 311 307 310 313 314 313 315 316 317 318 319 319
322 322 321 322 323 323 322 321 323 322 322 320 320 318 317 317 317 317 317 318 317 316 315 315 315 316 314 315 314 313 313 312 310 308 311 310 313 313 314 315 316 318 319
321 320 320 320 321 320 321 321 322 321 320 320 320 319 318 317 317 316 316 316 316 316 315 315 314 314 313 313 313 312 313 313 312 310 309 311 313 312 311 311 313 314 316
311 311 310 313 313 312 313 315 317 317 311 306 305 303 302 302 305 313 316 315 315 315 315 315 314 314 314 313 313 312 312 311 312 311 310 310 309 310 312 311 311 314 314
304 305 305 307 306 304 303 302 301 301 300 300 297 296 295 294 293 298 309 313 315 312 309 300 296 296 293 294 310 308 309 312 311 310 310 311 311 311 308 304 307 307 303
298 299 300 299 298 298 296 296 295 294 293 292 291 291 292 292 291 292 299 298 298 297 297 296 292 292 290 289 289 287 288 294 303 304 306 302 297 291 291 293 296 300 299
295 296 296 296 294 293 293 293 291 290 289 289 289 289 290 291 290 290 290 290 289 289 289 290 289 289 291 288 286 286 285 285 284 290 286 284 284 283 284 289 293 293 293
290 293 294 294 292 292 291 289 289 288 287 287 286 287 288 289 289 288 287 287 286 285 285 286 286 287 290 288 285 283 283 283 283 283 282 282 282 283 282 284 285 286 284
286 288 291 292 291 290 289 288 288 287 285 285 285 285 286 287 289 288 286 285 284 284 284 285 285 285 288 288 284 281 280 281 284 285 285 284 284 284 283 281 279 280 282
285 286 288 289 290 289 288 287 286 285 284 284 283 284 285 285 287 287 286 284 281 281 282 283 285 284 285 284 282 281 279 279 281 282 282 283 283 282 281 276 276 277 272
285 285 286 286 286 287 288 287 286 284 283 282 282 282 283 284 285 286 285 283 281 281 281 281 283 285 285 285 284 282 281 281 281 280 278 274 274 274 275 274 272 273 271
285 284 284 284 284 285 285 285 285 284 283 282 282 281 282 282 284 284 284 283 283 280 280 281 282 284 284 284 283 284 283 280 279 274 271 271 271 272 272 271 270 271 269
281 280 280 281 281 281 281 282 284 284 282 280 279 278 279 280 283 284 283 283 283 281 281 282 282 282 281 281 282 282 279 278 275 274 272 271 268 268 273 273 274 274 274
280 279 279 279 279 279 279 279 279 280 279 279 278 276 277 278 279 281 282 282 282 282 281 281 280 279 277 276 276 276 275 274 272 270 266 265 269 271 272 272 272 273 273
280 279 278 278 277 277 278 277 278 279 278 276 276 276 275 276 279 282 281 280 281 280 279 278 276 275 274 273 273 273 273 273 272 272 271 271 272 273 273 274 274 273 269
282 281 279 278 277 276 275 275 279 279 280 280 279 277 277 280 281 282 282 283 282 280 276 273 272 272 272 271 271 270 271 271 271 272 270 271 271 271 272 272 272 270 268
280 281 280 280 279 276 275 273 272 275 278 278 279 280 280 279 280 281 280 280 279 277 272 271 269 268 270 270 270 270 268 270 272 269 269 268 269 269 269 270 270 270 269
278 279 279 279 278 278 277 274 273 271 270 269 276 277 279 279 280 280 278 276 272 272 271 269 268 267 269 270 270 269 268 267 266 267 264 264 265 266 265 267 268 264 267
277 274 274 273 274 274 274 274 274 272 270 269 269 270 272 277 277 276 275 269 267 267 269 269 268 268 268 268 263 265 261 262 262 259 262 263 260 264 263 265 265 263 264
273 275 274 274 273 272 272 273 271 269 267 265 265 265 268 270 267 267 267 266 267 267 268 267 267 266 265 267 264 257 261 261 262 262 258 259 261 264 261 264 262 261 265
272 273 272 273 273 272 271 271 271 268 266 264 263 262 266 268 266 265 266 265 265 266 266 266 263 262 261 260 264 262 260 260 260 259 258 259 258 262 262 263 264 264 265
273 273 273 271 272 270 272 272 270 269 268 266 264 266 266 266 266 265 265 262 259 263 265 264 264 262 262 263 260 256 255 253 255 257 255 256 259 260 258 260 260 259 262
273 272 273 271 272 269 268 268 268 266 265 264 266 266 265 261 261 263 261 256 264 260 259 259 257 257 258 259 261 257 256 254 254 253 251 253 257 260 254 255 258 257 256
272 271 271 268 269 269 266 261 260 263 265 262 260 259 259 257 257 259 255 254 255 259 253 255 257 257 256 253 253 255 257 252 254 254 250 251 255 259 258 259 259 257 255
267 266 264 265 264 262 261 262 261 260 260 260 261 261 262 263 263 259 254 254 254 253 256 257 257 256 255 254 255 253 254 254 251 252 251 251 252 257 257 256 253 256 255
264 264 264 265 263 262 263 264 262 259 258 259 259 259 257 258 260 256 255 256 254 254 255 259 260 258 256 257 257 256 253 253 251 252 249 252 253 253 252 252 254 253 255

GFSGL_sfc_thetae_090.txt.gz
Theta_e
322 322 320 321 322 323 321 320 320 320 320 319 319 319 318 319 319 319 318 319 319 319 319 318 316 316 316 315 314 313 311 310 307 309 311 313 312 313 317 319 320 320 319
321 321 321 322 323 322 322 322 321 320 320 319 319 318 318 318 318 318 318 318 318 317 317 316 315 316 315 315 314 312 311 311 308 306 309 310 311 313 314 314 315 318 319
320 320 320 320 321 321 321 322 322 321 320 320 319 318 317 317 317 317 318 318 317 318 317 316 315 315 313 313 312 312 312 312 312 310 310 311 310 311 312 311 312 312 313
312 315 313 312 312 312 313 312 313 311 309 307 306 305 306 307 311 316 317 317 317 317 317 317 316 315 314 314 312 312 311 311 312 310 310 309 310 310 310 309 307 309 307
303 304 305 304 304 304 303 301 300 299 299 299 298 297 297 297 296 304 313 315 313 303 301 298 296 295 293 297 311 309 311 310 310 309 309 309 308 308 303 301 304 304 295
296 297 299 300 298 296 296 295 294 293 293 293 292 293 293 293 292 293 300 300 300 297 294 293 293 291 289 289 288 287 288 297 306 307 303 300 292 289 291 292 295 299 298
294 295 294 294 293 293 292 291 290 289 289 289 290 290 289 289 289 290 290 291 290 290 291 291 291 290 289 287 286 286 285 286 286 292 287 285 284 283 284 289 291 292 287
289 291 292 291 290 290 289 288 287 287 287 287 288 289 288 287 287 287 287 287 286 285 286 287 289 290 287 286 285 283 283 283 283 284 283 282 283 283 283 285 286 284 283
286 287 289 288 287 287 285 285 286 285 285 285 286 287 286 286 287 286 286 285 284 284 285 285 287 286 287 287 284 282 281 282 285 285 284 283 283 283 283 281 278 284 281
285 285 286 287 286 285 285 284 284 284 283 284 283 284 286 285 286 286 285 284 282 282 284 284 285 284 285 285 283 282 280 280 281 281 281 279 277 277 280 274 272 273 278
284 284 284 285 285 285 285 285 284 283 282 282 282 282 283 284 284 285 285 283 282 282 282 282 284 285 285 285 284 282 280 281 278 275 275 274 273 273 273 273 271 274 271
281 281 281 282 282 283 284 284 284 283 281 281 281 281 282 283 284 284 284 283 283 281 280 282 283 284 284 284 283 283 282 277 275 274 274 272 273 272 271 272 271 270 269
280 279 279 279 280 280 280 281 281 281 280 279 279 279 280 282 282 284 283 283 282 280 281 281 281 281 280 279 281 280 277 276 275 273 272 268 265 267 272 274 276 277 276
279 278 279 278 278 279 279 280 279 278 278 278 277 277 278 279 280 281 282 282 282 280 278 277 277 276 275 275 275 275 275 274 273 272 271 264 270 273 272 272 271 273 272
279 278 278 278 278 278 278 278 278 278 278 277 276 277 277 278 280 282 281 280 279 278 277 276 274 273 272 272 272 272 273 273 271 271 271 270 271 272 271 272 272 272 269
280 278 277 276 276 276 276 276 280 280 280 280 280 278 279 282 283 283 282 281 279 278 274 272 271 270 270 270 270 270 271 271 271 271 269 270 270 270 271 271 271 269 268
280 280 280 278 276 275 274 274 272 276 280 280 281 281 280 281 281 281 280 279 277 275 271 269 269 269 269 269 269 268 267 269 269 267 266 266 267 268 268 269 268 268 268
277 277 277 277 277 275 273 272 271 271 270 270 274 278 279 280 279 278 277 274 270 271 269 268 266 267 268 269 268 267 266 265 264 265 263 262 261 264 264 266 266 262 265
277 277 275 273 273 274 274 273 271 270 268 267 269 271 273 276 276 275 273 268 267 267 268 267 266 267 267 265 262 261 260 259 256 257 258 260 257 262 262 264 264 262 263
273 274 273 272 272 273 272 270 269 267 266 266 266 264 268 268 266 265 265 264 265 266 266 266 265 264 263 264 259 256 259 258 259 259 253 254 254 259 260 261 260 259 264
273 272 271 271 271 271 271 269 268 267 266 267 266 265 267 267 265 264 264 263 263 265 263 263 261 260 260 260 262 258 257 255 256 255 255 256 250 256 259 260 260 262 263
272 273 272 271 272 270 271 271 269 268 268 267 266 265 265 264 264 264 263 259 258 262 263 261 261 261 260 260 257 253 251 249 250 251 251 252 255 256 255 256 256 255 259
271 270 270 270 269 266 267 268 266 265 265 264 265 264 263 261 260 261 260 255 258 256 256 257 256 257 257 255 254 255 254 252 252 249 248 249 254 255 253 254 256 255 254
269 267 269 267 267 265 260 257 261 263 263 260 256 257 257 256 255 254 252 251 253 251 250 252 255 256 254 251 251 253 255 251 252 252 249 249 252 256 253 255 255 253 253
264 263 262 262 261 261 260 261 258 257 260 259 258 257 258 257 256 252 250 251 251 251 253 256 253 254 252 252 251 253 253 252 250 250 249 250 250 250 251 253 251 254 252
262 262 261 263 261 262 263 261 258 260 260 259 258 256 256 259 260 253 252 252 252 252 252 253 256 255 253 255 255 254 252 252 250 250 247 251 249 249 249 250 252 252 253

GFSGL_sfc_thetae_093.txt.gz
Theta_e
322 321 320 319 319 319 318 317 317 317 318 318 318 317 317 318 319 319 319 320 320 320 320 319 317 317 315 314 314 313 312 312 308 310 312 312 312 313 317 318 319 318 317
322 320 319 320 320 319 318 317 318 317 316 316 318 318 318 318 318 318 317 318 318 318 318 318 317 317 315 314 313 312 312 311 309 307 310 310 310 311 312 313 314 318 314
317 320 319 320 320 321 321 320 320 318 318 319 318 317 318 318 317 317 318 317 318 318 318 317 316 317 315 314 313 312 311 311 311 309 308 310 310 310 310 312 312 307 300
303 311 315 318 318 317 316 316 315 313 310 308 307 306 307 309 313 316 317 317 317 318 318 318 317 316 315 314 313 312 312 311 311 310 309 309 310 311 310 308 307 306 299
298 298 299 305 308 306 304 303 302 301 300 300 299 298 297 297 297 300 314 315 308 304 301 299 298 299 299 307 313 312 311 310 310 309 308 309 308 307 305 301 305 299 291
293 293 294 295 296 295 295 295 294 294 294 294 293 292 291 292 290 293 302 302 300 298 294 293 292 291 290 289 289 288 291 307 308 308 307 305 294 292 292 294 297 300 294
291 290 290 290 290 290 290 290 290 290 291 290 289 289 288 288 289 290 291 292 292 292 292 292 290 289 288 287 287 286 286 286 286 296 291 287 286 285 287 291 292 292 286
287 288 289 288 286 287 287 286 287 287 287 288 287 287 286 287 287 288 288 288 287 287 287 290 289 287 287 286 285 284 283 283 283 284 283 282 283 284 285 287 287 283 282
284 285 286 287 286 285 284 284 285 285 285 285 286 286 285 285 287 286 286 285 284 284 286 287 286 286 287 288 285 283 282 282 284 284 283 283 283 284 285 285 283 284 280
283 283 285 285 285 285 284 284 284 284 283 283 283 284 285 285 286 286 285 285 283 283 284 284 285 285 285 285 284 283 280 280 280 279 278 277 276 277 278 273 274 281 277
282 283 283 283 284 284 284 284 283 283 282 282 282 282 283 284 284 285 285 283 283 283 283 283 284 285 285 284 283 281 280 279 276 276 275 274 274 273 273 273 272 274 270
281 280 280 281 282 283 282 282 282 281 281 281 281 281 282 283 284 284 284 284 283 281 281 282 283 284 284 283 281 281 279 277 276 274 272 271 272 272 272 273 273 274 275
279 279 279 279 279 280 280 280 280 280 279 279 279 279 280 282 282 283 283 282 281 279 280 280 280 280 280 279 280 279 276 274 274 272 270 267 268 271 275 276 276 276 277
278 278 279 279 278 279 279 279 278 278 278 278 278 278 279 280 280 281 281 279 279 277 277 276 276 276 275 275 274 275 274 273 272 270 269 269 273 273 273 274 273 274 273
278 278 277 277 277 278 278 278 278 279 279 277 278 278 278 279 281 282 280 278 277 276 276 275 273 273 272 272 272 272 273 272 271 271 271 271 272 272 272 273 273 272 270
278 277 277 276 276 276 277 278 281 281 281 281 281 281 282 283 283 282 281 280 279 277 273 271 270 270 270 270 270 270 270 270 270 270 269 270 270 270 270 270 270 270 268
279 279 278 277 276 275 274 274 273 275 278 281 281 282 282 281 281 280 279 278 277 274 270 269 269 269 269 269 269 269 268 268 268 267 267 267 268 268 268 268 268 268 268
276 276 276 276 274 273 272 272 271 270 270 271 276 278 279 279 279 278 276 274 270 271 269 268 268 268 269 268 268 267 266 265 265 264 262 261 262 266 265 266 266 263 266
274 273 272 273 273 273 272 271 270 269 269 269 270 270 271 275 275 274 273 269 268 268 268 267 267 267 266 265 262 261 261 260 259 258 258 260 256 262 262 263 263 262 262
271 273 272 272 272 272 271 269 269 268 268 267 267 266 268 268 266 265 265 265 265 266 266 266 265 265 265 263 260 258 258 258 259 260 255 251 251 258 259 260 259 260 263
270 271 270 271 271 270 268 267 267 267 267 266 265 264 266 266 264 264 264 263 264 264 263 263 262 261 261 260 261 258 257 256 257 256 256 256 249 255 258 258 259 261 263
270 271 271 270 270 269 269 269 267 267 267 266 264 263 263 263 263 263 262 259 259 263 263 261 261 261 260 259 257 253 253 250 250 251 252 253 254 255 254 255 254 253 257
269 267 269 269 269 267 267 267 265 264 263 262 263 263 262 259 258 260 258 253 258 256 257 257 256 256 256 253 253 255 255 253 252 248 248 249 253 252 251 253 255 254 253
267 265 267 265 264 264 260 260 263 265 265 261 258 259 259 256 253 253 251 249 250 249 248 251 254 256 254 250 250 253 255 251 252 251 248 248 251 254 251 253 254 252 252
262 261 262 261 258 258 256 256 256 257 258 255 253 253 255 253 253 250 248 249 250 249 252 251 251 252 251 250 251 252 252 252 249 249 248 249 249 248 249 251 250 252 251
260 260 262 263 262 261 259 257 255 256 255 256 256 254 254 255 255 251 250 250 251 251 251 251 252 253 252 253 254 253 251 252 249 248 246 250 249 249 248 249 251 250 252

GFSGL_sfc_thetae_096.txt.gz
Theta_e
321 322 320 319 319 319 319 319 319 318 319 319 319 320 319 319 319 319 320 320 320 321 321 319 317 317 316 316 316 314 313 312 309 311 313 313 314 315 316 317 317 316 313
309 319 319 318 319 318 318 318 316 316 316 317 318 317 317 317 318 317 317 318 318 318 319 320 317 317 316 316 315 313 313 312 310 309 310 311 312 314 315 316 315 311 302
304 314 319 319 319 318 318 317 316 316 314 315 315 317 317 318 317 317 317 317 317 318 319 318 317 316 315 315 315 313 312 312 311 309 308 311 311 311 311 311 304 300 298
297 299 302 303 318 320 319 319 318 318 315 311 309 307 307 307 310 314 317 317 317 317 318 318 318 317 315 313 313 314 313 311 311 309 309 309 310 311 311 309 305 301 296
292 292 293 295 296 302 309 305 303 302 302 302 300 298 298 297 295 297 308 315 312 305 301 299 301 312 308 310 314 313 312 310 310 309 308 308 308 308 307 304 304 295 292
291 290 291 291 291 291 294 295 295 295 294 294 292 291 291 291 290 292 302 303 300 298 295 294 293 292 291 291 291 289 295 310 309 309 308 307 302 297 296 298 298 294 291
287 289 290 289 288 287 287 290 290 290 290 289 288 288 287 288 289 290 291 292 292 292 292 291 290 289 289 288 287 287 286 286 286 302 299 292 290 289 291 293 293 290 286
285 285 287 288 287 287 285 285 286 287 287 287 286 287 286 287 288 288 288 288 288 288 288 288 287 287 287 287 286 285 283 283 283 284 283 283 284 285 287 289 288 283 282
283 283 284 285 285 285 285 284 284 284 284 284 285 285 285 286 287 287 287 286 285 285 286 286 286 286 287 288 285 282 281 280 283 283 283 283 283 284 285 287 285 285 280
281 282 284 284 284 283 283 283 284 284 283 283 283 284 285 285 287 287 286 285 284 283 284 285 285 285 286 286 284 282 279 278 278 278 277 277 277 278 280 280 285 282 279
281 281 281 282 282 282 282 282 282 282 282 282 282 282 283 284 285 286 286 284 283 283 282 282 284 285 285 284 283 280 278 278 278 277 276 276 276 275 275 276 276 276 274
279 279 279 280 280 281 281 281 281 281 280 280 280 280 282 283 284 284 284 283 283 281 281 282 282 283 283 282 280 280 279 277 277 276 275 274 274 275 275 276 276 276 276
278 278 278 278 278 279 278 278 278 279 280 280 279 279 279 281 280 282 282 281 281 279 279 280 280 280 279 279 279 278 276 276 275 273 272 272 273 274 276 277 277 276 276
278 277 277 278 278 278 279 279 278 278 278 278 279 279 279 279 279 279 279 278 278 277 276 276 276 276 275 275 275 275 274 274 273 272 272 273 275 275 274 275 275 275 273
278 277 277 277 277 278 278 278 279 280 280 278 279 280 279 278 279 280 278 276 276 276 275 274 273 273 272 272 272 272 273 273 272 273 273 273 273 273 272 274 273 273 271
278 277 276 276 276 276 277 275 281 282 282 283 283 282 281 282 282 281 280 279 278 277 273 271 270 270 270 270 270 270 270 270 271 271 271 271 271 271 271 271 271 271 269
277 278 276 275 274 274 274 273 273 276 279 281 281 281 281 280 280 279 278 277 276 274 270 270 269 269 269 269 269 268 267 268 269 268 268 269 269 270 270 269 269 270 268
271 272 272 272 271 271 270 271 271 270 270 270 275 277 278 278 278 277 275 273 270 271 270 269 268 269 269 268 268 267 266 266 266 266 265 266 267 268 267 267 267 267 267
269 267 266 268 269 269 270 270 270 270 270 269 270 270 270 274 274 274 273 269 268 268 268 267 267 267 266 265 264 263 263 262 262 262 262 263 263 266 265 266 266 265 265
267 270 268 268 268 268 268 269 268 269 268 267 267 267 269 268 266 266 266 266 266 266 266 266 266 265 264 263 261 261 261 261 262 262 259 259 260 264 263 264 264 264 265
267 268 268 269 268 267 266 267 267 267 267 266 265 265 266 266 264 264 265 264 264 264 264 264 263 263 262 262 262 260 259 259 259 259 259 259 257 260 262 262 263 264 264
268 269 269 268 269 267 267 268 266 266 267 266 265 264 264 264 264 264 263 261 261 263 264 263 263 262 262 261 259 257 256 255 256 256 256 257 259 259 260 260 259 259 261
267 266 267 267 267 265 264 265 263 263 263 263 265 265 264 262 262 263 261 259 260 259 260 259 259 258 257 256 257 258 257 256 255 253 254 255 257 258 257 259 259 259 259
265 262 266 264 263 263 258 258 261 263 262 258 257 258 258 257 257 255 254 254 255 253 253 255 257 257 255 252 253 256 257 254 255 254 252 254 256 256 257 258 258 256 257
260 258 258 259 257 256 255 261 259 259 259 259 255 255 256 254 253 250 248 249 251 250 252 251 253 254 254 252 253 254 253 252 251 250 252 253 253 253 254 256 255 257 255
260 259 257 259 260 261 258 257 256 256 257 257 256 258 259 259 259 253 250 250 251 251 251 251 253 253 253 254 254 253 251 251 250 248 251 254 253 253 253 254 254 256 256

GFSGL_sfc_thetae_099.txt.gz
Theta_e
303 320 323 323 321 321 322 324 324 322 322 322 322 323 324 324 325 323 323 323 322 322 322 321 320 320 318 318 318 317 314 313 310 311 317 320 321 321 320 321 322 322 314
300 308 320 321 322 322 321 322 323 320 320 321 322 322 321 322 321 321 320 321 321 320 320 320 319 319 318 318 317 315 314 314 312 309 313 317 319 319 321 321 321 313 305
297 298 301 302 317 321 321 320 320 319 319 320 320 320 319 319 318 318 319 321 320 320 320 320 319 318 316 316 316 314 314 313 314 312 311 315 318 320 319 312 304 301 298
294 294 294 296 298 305 320 321 320 320 320 320 318 316 314 312 314 318 318 319 318 320 319 319 319 318 317 316 315 314 314 313 313 316 312 311 316 315 317 309 303 301 296
290 291 292 293 293 293 299 299 316 311 308 306 303 300 299 299 297 301 310 317 318 310 303 300 297 309 308 312 315 315 313 312 312 311 310 310 310 310 311 310 302 295 293
287 288 291 291 291 289 290 292 294 297 296 295 293 293 293 293 290 293 303 306 302 299 297 295 293 293 292 292 292 295 307 313 312 311 310 308 309 305 303 306 295 293 291
286 286 287 289 289 290 288 288 287 288 290 289 289 289 288 290 290 291 292 295 293 293 292 291 291 290 290 290 288 288 286 287 291 308 309 303 297 296 297 297 298 295 288
283 284 285 286 287 288 287 286 285 285 286 286 287 288 288 288 288 289 289 290 288 288 288 288 288 288 288 288 287 285 285 285 285 286 286 285 285 287 290 292 288 283 283
282 282 283 284 283 284 285 285 285 284 284 284 286 286 286 287 288 287 288 287 286 285 286 287 286 286 287 288 285 283 281 280 284 285 285 285 285 286 288 289 286 286 281
281 282 283 283 282 282 282 283 284 284 283 284 283 284 285 286 287 287 287 286 284 284 285 285 286 285 286 285 284 282 279 278 279 279 278 279 280 281 282 283 287 284 280
281 281 282 283 282 282 282 283 282 282 282 282 281 281 282 284 285 286 286 284 283 282 282 282 283 284 284 283 282 280 278 279 278 278 277 277 277 277 277 277 279 281 279
280 281 280 281 282 283 281 282 283 283 281 281 280 280 280 281 282 283 283 283 283 281 280 281 282 283 282 282 280 280 280 279 278 276 276 275 275 275 276 277 278 278 280
280 279 281 281 281 282 282 282 282 283 282 282 281 281 281 281 280 281 281 280 280 279 279 280 280 280 279 279 279 279 278 277 277 275 274 275 276 278 279 278 279 279 279
280 280 280 280 280 282 282 282 282 283 282 282 282 281 281 281 281 280 280 280 279 279 278 279 277 277 276 276 276 277 276 276 276 275 275 276 277 277 278 279 278 277 276
280 280 280 280 280 279 280 281 282 283 283 282 282 282 281 280 280 281 280 280 279 278 279 279 278 277 275 275 275 275 276 276 276 276 276 276 276 276 275 276 276 275 274
280 279 279 279 279 279 279 279 280 282 282 282 282 282 282 281 281 280 280 279 278 278 278 276 275 275 274 274 273 273 274 273 274 275 274 274 274 274 274 274 275 274 273
278 278 278 278 278 278 278 277 277 278 278 279 280 280 280 279 279 278 278 277 276 277 275 274 274 274 273 273 273 272 271 272 273 273 273 273 273 273 273 272 273 273 272
277 274 277 277 277 277 276 276 276 276 274 274 275 276 277 277 277 276 276 276 274 274 274 273 273 273 272 271 271 270 270 270 271 271 271 272 273 273 272 271 271 271 271
278 277 277 276 275 275 276 276 275 274 274 273 274 274 273 274 274 274 274 274 273 272 272 271 272 271 270 270 269 268 269 268 269 269 269 270 271 272 271 270 269 268 270
276 274 274 277 276 275 275 275 274 273 273 272 271 272 273 273 272 271 271 272 271 271 271 270 270 270 269 269 268 268 268 268 268 268 268 269 270 270 269 269 270 269 269
277 277 273 276 275 274 274 273 273 273 272 271 270 270 268 271 270 270 270 270 270 270 270 270 269 269 269 268 268 267 267 266 267 267 267 267 268 268 269 269 269 268 268
275 275 275 275 274 274 274 274 273 272 271 271 270 269 268 270 269 268 268 268 268 269 269 269 268 268 268 267 266 266 264 264 265 266 266 266 267 267 268 267 267 267 267
273 274 274 273 274 271 273 273 272 272 271 271 271 270 269 269 268 268 267 267 267 266 267 267 266 265 265 265 265 265 264 263 263 264 265 266 266 266 267 267 266 266 266
271 271 271 272 271 271 271 272 272 269 271 271 271 270 269 268 268 266 266 266 266 265 265 265 265 264 262 263 264 264 263 262 263 262 261 264 265 264 266 265 265 263 265
270 270 270 269 269 269 269 270 270 271 271 270 270 270 269 268 268 268 266 266 265 266 264 264 264 263 262 261 262 262 261 258 260 259 262 262 262 261 263 264 264 264 262
269 268 268 269 269 268 268 268 268 268 269 269 269 269 269 269 269 268 266 264 265 265 263 265 264 262 262 262 262 260 258 258 259 257 262 263 262 263 263 262 258 264 261

GFSGL_sfc_thetae_102.txt.gz
Theta_e
296 301 305 326 328 329 329 328 327 329 330 328 328 325 324 326 327 326 325 327 327 323 326 324 324 325 323 323 324 327 325 323 312 314 317 319 318 319 321 324 324 325 314
294 298 302 304 314 323 323 324 326 325 328 328 327 324 323 325 325 326 325 325 324 322 323 322 322 322 322 323 323 322 319 320 316 311 315 316 317 319 320 323 323 313 306
292 295 297 297 300 303 319 323 324 326 326 325 325 323 323 327 325 324 324 323 323 323 322 322 322 322 321 320 321 318 317 316 315 313 312 316 318 320 319 314 308 305 299
289 292 292 295 296 297 302 312 321 323 323 323 325 322 322 322 322 321 321 321 321 323 326 324 324 322 320 319 318 317 316 314 314 312 312 313 315 319 311 303 301 303 299
287 287 290 292 293 293 293 295 300 309 319 317 312 309 309 309 301 307 316 320 320 319 309 306 300 298 300 312 317 316 315 313 312 312 311 312 313 314 309 308 301 296 296
286 286 288 288 291 292 291 290 290 291 294 299 300 300 296 293 291 292 302 312 307 306 301 299 296 295 294 294 296 299 309 313 311 311 312 310 311 313 314 308 296 294 289
284 285 285 286 287 288 289 289 287 287 288 289 292 291 290 290 290 292 293 300 296 294 295 295 295 293 292 291 289 289 288 289 296 313 311 310 306 305 306 299 299 298 291
284 283 284 284 284 285 287 286 286 286 285 285 286 288 288 288 288 289 289 291 290 289 289 290 291 290 289 290 289 286 285 285 286 288 291 286 287 291 299 299 294 285 285
283 284 284 283 283 284 283 284 285 285 284 283 284 286 287 287 288 288 288 287 286 286 287 287 287 287 288 289 287 284 283 281 285 286 286 286 287 287 290 290 287 287 283
282 283 284 285 283 283 284 283 283 283 282 282 281 283 285 285 287 287 287 286 284 284 284 285 285 285 285 286 284 282 279 280 281 280 281 280 281 281 283 284 289 287 282
284 284 284 284 284 284 285 285 284 284 282 281 280 280 281 283 284 286 285 284 283 282 282 282 284 284 284 283 282 280 279 280 279 279 278 278 278 278 278 279 280 283 280
283 283 283 284 285 285 285 285 285 285 284 283 281 281 280 281 282 283 283 282 282 281 280 281 282 283 282 282 281 281 280 279 278 277 276 275 275 275 276 278 278 279 281
284 283 283 284 284 285 285 284 286 285 285 284 283 282 281 283 282 282 281 280 280 278 279 280 280 280 280 280 280 280 279 278 277 275 275 276 277 278 279 278 279 278 279
284 283 283 283 284 283 285 285 282 284 284 283 283 283 283 282 283 283 283 283 281 281 280 280 280 279 279 278 278 279 280 278 277 276 276 277 279 279 279 279 278 278 276
283 283 284 283 283 283 281 281 282 282 282 282 282 282 280 279 281 281 282 282 282 281 282 282 281 281 280 279 280 280 281 280 280 280 279 278 277 278 277 279 278 278 276
282 282 282 283 283 283 283 281 280 280 280 281 281 281 281 280 280 280 279 279 280 281 282 281 279 280 279 279 278 278 279 279 279 279 279 279 278 278 277 278 278 277 276
280 281 282 281 281 281 281 280 280 280 278 277 279 279 279 278 278 278 278 278 279 281 280 279 279 279 278 278 278 278 277 277 278 278 277 277 277 277 277 276 276 275 274
281 279 281 281 281 281 280 280 280 279 278 278 276 276 277 277 277 277 277 279 278 278 278 278 277 277 276 276 275 275 276 277 277 276 277 277 277 277 276 275 275 275 274
280 280 281 281 280 279 280 280 279 279 278 278 279 278 277 275 276 276 277 278 276 275 275 275 276 275 275 275 275 275 275 275 275 275 275 275 276 276 274 274 273 272 273
280 278 279 280 280 279 279 279 278 278 277 277 276 275 277 278 277 276 277 277 276 275 275 274 274 274 273 274 274 274 274 274 274 274 275 275 275 275 274 274 274 273 273
280 280 278 280 279 279 278 278 278 277 276 276 275 272 271 275 275 275 275 275 275 274 274 274 274 274 274 273 273 272 272 273 273 273 273 273 273 273 274 274 273 273 272
278 278 278 277 278 277 277 277 277 276 275 275 275 273 271 275 274 273 273 272 273 273 274 274 273 272 272 272 271 271 270 270 271 271 271 271 272 272 272 272 272 272 271
276 276 276 276 276 275 276 276 275 275 274 274 274 273 273 273 272 272 271 271 271 271 271 272 271 270 270 270 270 271 270 268 269 270 271 271 271 271 272 271 270 271 271
275 275 274 274 274 274 274 274 275 272 273 273 273 273 272 272 272 271 271 271 271 270 270 269 269 268 267 269 269 269 267 267 268 267 266 270 269 269 270 269 269 267 269
274 273 273 273 273 272 272 273 273 273 273 273 273 273 272 272 272 271 271 271 269 270 267 268 269 266 265 265 266 265 263 262 264 263 268 267 267 266 268 269 268 268 266
272 272 272 272 272 271 271 271 271 271 271 271 271 272 271 271 271 271 271 269 269 269 267 269 267 263 264 266 265 263 261 261 263 261 267 268 267 268 267 266 262 268 265

GFSGL_sfc_thetae_105.txt.gz
Theta_e
293 294 296 299 303 310 328 331 333 335 334 332 331 328 328 328 325 325 328 326 328 330 329 327 325 327 327 326 324 326 321 320 314 318 323 325 321 320 320 321 321 321 311
291 292 294 296 298 302 307 319 331 332 332 332 328 329 329 327 328 321 319 323 325 326 327 325 323 325 326 326 325 321 320 321 318 314 320 319 319 320 320 319 321 321 309
290 290 291 292 295 296 298 303 323 328 327 326 328 328 328 328 327 325 321 320 325 327 327 324 322 324 322 323 323 321 322 321 321 315 313 318 318 319 318 314 305 301 299
289 288 288 290 292 294 295 297 298 306 324 325 326 327 326 326 327 328 325 324 325 326 326 325 325 323 321 322 321 320 321 319 317 315 314 313 315 317 315 302 300 301 297
286 286 286 287 290 292 293 292 294 293 295 308 318 313 317 314 315 323 324 322 322 322 317 314 305 299 296 298 314 319 318 317 315 312 311 312 313 310 306 305 299 296 295
285 285 286 287 287 288 289 290 290 290 289 291 294 298 297 295 292 295 312 315 312 310 303 301 299 296 296 291 294 296 307 315 313 312 311 310 312 310 307 301 295 291 289
285 285 285 285 285 285 287 287 287 288 288 286 287 289 290 291 291 294 295 299 295 295 295 296 296 295 295 294 291 289 288 289 295 313 311 311 311 312 308 299 298 296 292
285 285 285 285 284 285 284 284 285 285 285 285 284 286 287 288 289 290 290 291 290 289 289 290 291 292 291 293 290 286 285 285 286 289 293 287 289 298 306 303 298 286 287
284 284 285 285 285 285 284 283 283 282 282 282 283 283 285 285 287 288 288 287 285 285 286 287 287 288 287 290 287 285 284 284 285 286 286 287 287 288 293 294 289 289 285
284 284 285 286 285 285 285 285 285 284 281 281 281 281 283 283 285 286 286 285 283 283 284 284 285 285 286 286 285 284 280 280 282 282 282 281 283 284 286 288 292 291 283
285 285 285 285 286 286 286 285 285 285 285 283 281 280 281 282 282 284 285 283 282 281 281 281 283 284 284 284 283 281 279 281 280 279 278 278 278 279 280 282 284 286 283
286 285 284 284 285 286 285 286 286 285 285 284 284 283 283 281 282 282 282 282 282 280 279 281 282 283 283 282 281 282 281 280 279 277 277 276 276 276 277 279 280 282 283
287 285 285 285 284 285 284 283 283 285 284 283 283 281 281 283 284 283 282 281 281 279 280 280 281 281 281 280 281 280 279 279 278 276 276 276 277 278 278 278 278 279 280
285 285 286 285 284 283 283 283 281 280 282 281 280 281 280 280 281 283 284 283 283 283 283 283 282 281 281 280 280 280 279 279 278 277 277 278 279 279 278 278 277 277 276
284 284 285 285 285 283 281 280 280 280 280 279 280 279 278 277 279 281 281 281 282 283 284 284 283 282 281 281 281 281 281 281 280 279 278 277 277 278 278 279 278 277 275
283 283 282 283 284 283 282 281 280 279 279 280 280 279 280 279 279 280 280 281 282 283 283 281 281 281 280 280 279 280 281 280 280 281 281 280 279 279 279 279 279 278 276
281 282 283 282 282 282 282 281 280 280 279 278 278 278 278 278 278 279 279 280 281 282 280 279 279 279 279 278 279 278 278 279 280 280 279 279 278 279 279 278 278 277 276
282 281 282 282 281 281 281 281 281 280 279 280 278 277 277 278 278 279 280 280 279 279 278 277 277 277 277 277 277 277 278 278 279 279 279 279 279 278 278 277 277 276 275
281 281 283 282 282 281 282 281 281 280 279 279 279 279 280 278 279 279 279 279 277 276 276 276 276 276 276 276 276 276 276 277 278 278 278 278 278 277 276 275 275 275 275
282 279 280 281 281 281 281 280 280 279 279 278 276 274 276 279 278 278 278 278 277 277 276 276 275 275 275 275 276 276 276 276 276 276 277 277 277 277 276 275 275 275 274
281 281 279 280 280 280 279 279 279 278 277 277 276 274 272 276 276 276 276 275 275 275 275 275 275 275 275 275 274 274 274 274 274 274 275 275 275 275 275 275 274 274 273
279 279 279 278 278 278 277 278 277 277 276 276 276 275 274 275 275 275 274 273 274 274 274 274 274 273 273 273 273 273 272 272 273 273 273 273 273 274 274 273 273 272 272
277 277 277 277 277 276 277 277 276 276 276 276 275 275 275 274 273 273 273 272 272 272 272 273 272 271 272 271 272 272 271 270 270 272 272 273 273 273 273 272 272 272 271
276 276 275 275 275 275 275 275 275 275 275 275 275 275 274 273 273 273 272 271 271 271 271 270 269 268 269 270 271 270 269 269 269 269 270 272 271 271 272 271 270 269 269
275 275 274 274 273 273 273 273 274 274 274 274 274 274 274 274 273 273 273 272 270 270 269 269 269 268 266 266 266 264 263 263 265 264 269 270 269 269 269 270 270 269 268
274 274 273 273 273 273 272 272 272 272 272 272 273 273 273 273 273 273 273 271 270 270 268 270 269 266 265 267 266 263 262 262 263 263 267 269 268 268 268 268 265 269 267

GFSGL_sfc_thetae_108.txt.gz
Theta_e
292 292 293 293 295 297 299 301 304 309 327 329 330 330 329 328 328 328 327 327 326 325 326 325 325 325 324 325 322 320 319 318 314 315 318 320 321 321 321 321 317 315 312
290 291 291 291 293 294 295 298 302 302 311 327 329 329 328 326 326 326 324 324 323 318 321 323 323 323 323 324 323 322 320 320 318 314 318 318 319 321 321 319 320 320 313
288 289 289 289 290 291 293 294 297 298 302 313 325 326 325 325 323 323 322 322 320 320 320 321 322 322 320 322 321 321 321 319 319 317 315 319 318 320 318 318 305 301 300
287 287 287 287 288 289 291 292 294 295 296 298 311 322 324 325 324 323 320 318 316 318 322 323 323 320 318 322 320 320 320 319 319 318 315 315 316 318 317 304 299 300 297
287 286 286 287 287 287 288 288 290 291 292 292 294 297 300 303 304 313 322 319 316 315 316 310 303 299 295 297 312 319 319 318 317 316 314 313 313 313 304 305 298 294 294
286 286 286 286 286 286 285 285 286 287 288 289 288 290 292 293 290 295 313 319 317 313 304 302 298 297 294 291 291 292 296 312 315 315 314 312 312 313 306 301 294 292 289
285 286 286 286 285 285 285 284 283 283 285 285 286 286 286 287 289 292 296 299 296 294 296 297 296 294 294 295 290 289 288 288 289 310 313 312 312 312 305 299 298 296 290
284 285 285 285 285 285 285 284 283 282 281 281 282 284 285 285 287 288 289 290 288 287 288 289 290 289 289 292 289 286 285 285 286 289 292 289 290 310 305 303 299 288 288
284 284 285 285 285 285 285 284 284 283 281 281 281 281 282 283 286 286 286 285 284 284 285 286 286 286 288 291 287 285 284 283 286 287 287 287 288 292 296 293 289 289 285
283 283 284 285 284 284 285 284 285 285 284 283 281 281 282 281 284 285 284 283 282 282 282 283 285 285 286 286 285 284 280 279 281 282 282 283 285 286 287 290 293 293 284
285 284 284 284 284 283 284 284 285 285 284 283 282 283 282 282 282 284 283 281 281 280 280 281 282 284 284 284 283 281 279 280 279 279 279 279 280 280 282 284 285 290 287
285 285 283 282 283 283 281 282 282 283 282 282 281 280 281 282 284 284 283 282 281 279 279 280 282 283 283 283 281 282 281 280 279 278 277 276 276 277 278 280 282 283 284
285 285 285 283 282 282 280 279 279 280 280 278 278 278 278 280 281 283 284 284 283 281 281 282 283 282 282 281 282 281 279 279 278 277 276 276 277 278 279 279 281 282 281
283 283 284 284 282 281 281 279 278 277 277 277 276 276 276 278 279 280 281 282 283 283 283 283 282 281 281 281 281 281 279 278 277 277 276 277 278 279 278 279 278 279 278
283 282 282 282 282 281 279 278 278 277 277 276 276 276 275 275 277 280 281 281 282 283 283 282 281 280 279 279 279 280 280 281 278 278 277 277 277 278 277 278 277 277 276
280 281 281 281 281 281 281 279 280 280 280 279 279 278 277 279 281 281 281 281 283 282 280 278 278 278 277 278 277 277 278 279 279 280 279 279 278 278 278 278 278 276 275
280 280 280 280 280 280 280 279 278 279 280 280 280 279 280 279 280 281 281 280 280 279 276 276 275 276 276 276 277 277 276 278 279 278 278 278 278 278 277 276 276 276 275
279 279 281 280 280 280 279 279 279 277 276 276 277 277 278 280 280 280 280 279 275 276 275 274 274 274 275 275 275 276 276 277 277 277 277 278 278 277 277 276 276 275 274
280 278 280 280 279 279 279 279 278 277 276 275 273 273 275 279 279 278 278 276 274 274 274 273 273 274 274 274 273 273 272 274 275 276 276 276 276 275 273 274 274 274 274
279 277 277 279 279 278 278 277 277 276 276 275 272 271 273 275 274 273 273 273 273 273 274 273 273 273 273 273 273 273 273 273 274 274 274 274 274 274 273 273 273 273 273
278 278 275 278 277 277 276 276 276 275 274 274 274 271 269 273 272 272 271 271 271 271 271 272 272 271 271 272 272 272 272 271 271 272 272 272 272 272 272 272 272 272 272
277 276 276 276 276 275 275 275 275 274 274 274 274 274 271 272 271 271 270 269 270 270 270 271 271 269 268 269 269 269 269 269 270 270 269 270 271 271 272 271 270 269 270
275 275 275 275 274 273 274 274 274 274 273 273 274 273 272 271 270 269 269 268 269 268 268 267 267 267 267 267 266 267 266 265 265 266 267 267 269 268 269 269 269 269 267
274 274 273 273 273 272 272 272 272 271 272 272 273 273 272 272 270 271 268 265 265 267 263 264 263 262 263 265 265 263 262 262 265 265 266 267 266 268 268 268 267 265 266
274 273 272 272 271 271 271 271 270 270 270 271 271 271 272 272 271 271 271 267 264 263 266 264 262 265 260 259 259 258 256 258 257 258 264 266 264 265 264 266 265 265 263
273 273 272 272 272 271 271 269 270 269 269 269 269 270 270 269 269 270 270 270 266 263 263 264 263 261 261 263 259 258 256 256 256 258 260 262 262 262 262 262 262 264 263

GFSGL_sfc_thetae_111.txt.gz
Theta_e
289 289 290 290 291 292 293 294 295 298 301 305 308 322 324 325 325 324 324 322 321 320 322 321 319 324 323 323 322 321 317 316 314 311 314 316 322 323 322 322 322 322 316
289 289 289 289 290 290 291 292 294 295 297 300 306 316 324 324 324 324 323 323 322 322 322 321 321 323 321 321 322 320 319 318 317 312 315 316 318 321 323 320 320 319 318
288 288 288 288 288 288 288 289 291 291 293 295 299 301 310 323 325 326 325 325 325 324 323 321 320 320 321 321 320 320 319 320 319 315 314 318 318 320 319 318 311 305 303
287 287 286 287 288 287 287 287 287 289 289 291 293 295 297 299 302 307 323 322 319 318 319 316 316 318 320 321 321 320 320 319 318 317 316 316 318 318 319 307 301 301 298
286 286 286 287 288 287 286 285 285 285 286 288 289 290 291 292 291 293 302 318 315 314 311 308 306 304 303 308 318 318 318 318 317 316 315 314 315 314 312 309 301 294 294
285 285 286 286 287 286 286 284 283 283 283 284 285 286 287 289 289 289 294 317 314 310 303 300 299 295 293 294 294 291 297 316 316 315 315 312 313 314 309 305 295 293 291
285 285 286 286 286 286 286 285 283 282 282 282 282 283 284 286 288 288 288 294 298 297 296 296 294 295 296 292 290 289 287 288 289 298 311 314 312 313 309 303 299 300 292
284 284 285 284 284 285 285 285 285 283 282 281 281 282 282 284 287 287 285 285 285 286 286 287 288 289 291 293 289 287 285 285 286 287 287 287 290 308 310 306 302 290 288
282 283 283 283 282 282 282 284 284 283 282 281 282 282 282 282 285 285 285 283 283 282 283 285 285 286 289 291 287 285 283 283 286 286 286 286 287 293 299 295 290 289 285
283 282 283 283 281 280 281 281 283 283 282 281 281 281 283 282 285 284 283 282 280 281 282 283 285 284 285 286 284 284 280 279 281 282 282 283 283 284 287 289 293 293 285
285 283 282 282 281 280 280 280 280 280 280 280 279 280 280 282 283 285 284 280 279 280 280 281 282 284 284 284 283 281 279 280 280 280 279 279 280 280 281 284 286 292 288
284 283 281 281 281 280 278 278 278 278 278 276 276 277 279 280 283 284 285 284 283 281 280 281 282 283 283 283 282 282 281 280 279 278 277 277 277 278 280 282 283 285 285
282 282 281 280 280 280 278 277 276 276 276 276 275 274 276 278 280 282 284 284 284 282 282 283 283 283 283 281 281 281 279 279 278 277 276 276 278 279 280 281 282 283 282
280 280 281 281 279 279 278 277 276 275 275 274 274 274 275 277 278 280 281 282 282 282 282 282 281 280 280 280 280 280 279 278 277 277 277 278 279 278 278 279 279 280 279
280 279 279 280 279 278 278 277 277 278 278 276 275 275 276 276 279 281 280 280 280 280 280 279 278 278 277 277 278 279 280 280 278 278 278 277 277 278 277 278 279 278 277
278 279 278 278 278 279 278 276 281 280 280 279 279 279 275 280 281 281 280 280 280 279 276 274 274 275 275 276 276 276 278 278 278 278 278 278 277 277 277 277 278 277 276
277 278 278 278 278 278 277 276 274 276 279 278 278 279 280 280 279 280 280 278 278 276 273 273 273 273 273 274 274 276 276 277 278 278 278 277 277 277 276 276 276 277 276
273 274 275 274 274 274 273 272 271 270 269 270 274 277 278 279 278 277 277 276 273 274 273 272 272 273 273 273 273 274 274 275 276 276 276 276 276 276 275 275 275 275 275
273 272 271 272 272 272 273 271 271 270 266 264 266 270 272 277 276 275 274 271 270 271 272 272 272 272 272 272 272 273 273 273 273 274 274 273 273 274 273 274 275 274 274
272 272 272 273 273 273 273 273 273 272 269 266 266 265 269 270 269 268 268 268 268 268 270 270 270 269 270 270 270 271 271 271 271 272 271 272 270 271 271 271 272 272 272
272 273 270 273 272 273 272 272 273 271 270 270 265 264 266 269 266 266 267 266 266 266 266 268 268 267 267 267 268 268 268 267 268 269 270 271 270 270 271 271 271 272 271
273 273 273 272 272 271 271 272 271 271 271 270 271 268 265 263 264 263 263 259 259 263 264 264 265 265 264 264 265 264 264 264 264 264 266 267 268 269 269 268 268 269 270
271 269 270 271 270 268 267 269 267 265 267 267 268 271 270 267 264 264 261 256 260 259 259 259 257 259 262 262 260 260 259 260 262 264 264 266 266 266 268 268 267 266 265
269 266 269 267 264 266 260 259 260 264 264 262 260 262 263 268 266 264 262 258 256 256 254 256 257 257 256 254 254 256 258 255 258 261 261 263 265 267 265 265 265 263 263
265 262 262 264 260 260 259 260 258 257 258 258 257 257 261 262 261 260 267 265 259 255 256 256 256 256 254 253 253 253 253 254 255 257 259 261 262 264 263 263 262 263 262
266 266 264 264 265 267 266 267 267 266 264 258 256 257 257 258 258 257 257 260 262 259 256 259 257 257 256 255 256 255 253 254 255 258 258 260 257 258 257 260 261 261 262

GFSGL_sfc_thetae_114.txt.gz
Theta_e
288 288 288 288 289 290 290 290 290 292 293 295 296 299 304 307 318 315 316 321 322 322 320 319 322 323 322 322 321 321 318 315 311 311 312 314 321 321 321 321 322 321 316
288 288 287 288 288 288 288 288 289 289 291 292 294 296 299 300 305 321 317 320 320 320 320 318 318 320 321 321 321 321 319 318 316 310 313 314 318 321 322 320 322 323 322
288 287 287 287 287 286 286 287 287 287 288 289 291 292 293 294 296 302 318 320 320 320 321 319 317 316 315 317 319 319 320 319 319 316 313 316 317 319 320 319 318 315 311
286 286 286 286 287 286 286 286 285 286 285 286 287 289 290 291 292 293 299 310 318 322 322 322 320 318 317 319 318 317 318 318 318 316 312 316 316 317 319 310 303 303 301
285 285 285 286 287 287 286 286 285 285 285 285 285 286 287 289 289 289 297 304 308 317 318 315 316 316 309 312 317 319 319 318 317 316 314 314 315 314 314 311 308 296 294
284 284 284 285 285 286 286 285 284 284 284 284 283 284 284 286 288 288 291 291 290 297 305 301 299 298 295 295 294 297 311 317 315 315 315 313 314 315 315 308 296 295 296
283 283 284 283 283 283 284 284 283 282 281 282 282 283 283 284 286 288 287 286 286 285 286 290 294 295 294 292 290 290 288 289 294 311 314 313 312 314 311 305 301 299 297
282 281 282 282 281 282 282 282 281 282 281 280 281 282 283 284 285 285 286 286 284 283 284 285 286 287 289 292 290 287 286 286 286 288 289 286 287 292 305 310 305 291 287
281 281 281 280 279 279 279 279 280 280 280 279 280 280 281 282 286 285 283 283 283 282 283 284 284 284 286 288 288 286 284 283 286 287 286 286 286 288 293 298 292 292 285
282 281 281 281 279 277 277 278 278 278 277 278 278 279 281 281 285 286 284 281 280 281 282 282 284 284 285 285 283 283 282 279 281 282 281 282 283 284 286 288 296 295 285
283 282 280 280 279 278 277 277 277 277 277 276 277 278 279 281 282 286 285 282 281 280 280 281 282 284 284 284 283 281 280 280 280 280 279 279 280 281 282 284 285 290 287
281 281 280 279 280 279 277 277 276 276 275 275 276 277 279 280 282 283 284 283 283 280 279 281 282 283 283 283 281 282 281 280 280 279 278 277 278 278 280 282 283 285 285
280 279 279 279 278 278 277 276 276 276 276 275 275 275 277 279 279 281 282 282 281 280 281 281 282 281 281 281 282 281 279 279 278 277 276 276 278 279 280 282 283 283 282
279 279 279 279 278 278 278 278 276 275 275 275 275 275 276 277 277 278 278 278 278 278 278 278 279 279 279 279 279 280 280 279 278 277 277 278 279 279 278 280 279 280 280
279 279 278 279 278 277 278 278 277 276 277 276 276 276 275 275 277 279 278 276 277 276 276 276 275 275 275 276 277 278 278 278 278 278 278 278 278 278 278 279 279 279 277
277 278 277 277 277 277 277 276 280 278 278 279 279 278 276 278 278 279 279 278 278 277 273 272 272 272 272 273 274 275 276 277 277 278 277 277 276 276 277 278 278 277 276
275 277 276 276 275 275 274 273 271 273 276 277 277 278 277 277 276 277 277 276 276 275 271 270 270 271 272 273 273 273 274 275 277 276 276 276 276 276 276 276 277 277 276
271 272 271 271 271 270 269 269 267 267 267 267 272 275 276 275 275 274 274 272 269 270 270 269 268 269 270 271 271 272 272 273 274 274 274 274 275 275 275 275 275 275 275
270 267 267 267 270 269 271 270 268 265 262 261 263 267 267 274 273 272 271 266 265 266 268 267 267 267 268 269 269 269 270 270 271 271 272 272 272 273 273 274 274 274 274
271 271 270 270 271 270 270 271 271 269 269 269 266 264 266 267 263 262 263 259 263 264 266 266 266 265 265 266 266 266 266 266 267 268 269 270 270 271 271 272 273 272 272
270 271 268 270 270 270 269 269 270 269 268 269 270 269 265 266 262 261 263 261 261 263 261 263 263 262 263 263 264 263 263 262 263 264 266 268 268 269 270 271 271 271 271
270 271 271 270 270 268 269 270 267 267 267 267 266 268 266 266 265 262 261 257 256 260 261 259 259 261 263 259 258 255 258 259 260 262 263 265 267 266 267 268 268 268 270
269 267 269 269 268 266 264 266 263 261 261 259 262 264 264 262 263 263 261 255 257 256 256 256 254 256 256 253 253 254 254 255 256 261 261 263 265 265 264 265 265 265 265
267 265 268 267 265 265 262 263 264 265 264 260 254 256 257 257 255 256 257 256 254 252 251 252 254 255 255 252 249 254 256 253 255 260 260 261 264 265 263 264 263 261 262
263 262 262 262 258 258 258 262 263 262 262 263 263 261 259 256 257 254 254 257 257 253 254 253 254 254 253 252 252 252 251 253 254 257 260 260 261 261 261 262 261 263 262
264 262 261 261 260 259 258 257 257 258 260 262 262 263 263 263 262 257 257 255 256 256 255 255 255 256 254 254 255 255 252 252 253 254 254 259 258 258 259 256 257 259 260

GFSGL_sfc_thetae_117.txt.gz
Theta_e
288 288 288 288 289 288 288 287 287 288 289 289 290 292 293 294 296 297 299 314 313 316 321 320 319 321 321 322 321 321 319 318 313 311 314 315 319 320 320 320 320 320 315
288 288 288 288 288 287 286 286 287 286 287 288 289 290 290 291 293 293 294 299 314 315 319 318 318 319 319 320 321 319 319 319 317 313 312 314 318 319 319 319 319 321 320
287 287 287 287 287 286 286 286 286 286 286 286 287 287 288 289 290 291 292 295 301 316 318 319 319 318 319 320 321 320 319 318 318 316 312 315 317 319 319 319 318 319 318
286 285 285 285 285 286 286 285 284 284 284 285 286 286 287 288 288 289 290 296 302 310 317 319 320 318 317 319 319 319 318 317 317 317 314 314 315 316 318 313 307 306 305
284 284 284 284 284 285 284 284 283 283 284 284 284 285 286 286 286 286 288 290 292 294 294 300 309 307 309 313 318 317 315 314 315 315 315 314 314 313 313 313 311 299 297
283 283 283 283 282 282 283 282 282 281 281 282 282 283 284 286 286 286 287 287 287 288 288 289 292 293 297 298 300 301 309 313 311 312 312 313 314 315 315 310 299 298 300
281 281 280 280 279 279 280 280 279 280 280 279 279 280 282 284 286 286 285 285 284 285 285 287 287 288 288 293 291 290 290 291 297 315 314 314 314 315 314 306 302 301 301
281 281 280 279 278 277 277 277 277 277 277 277 278 279 280 283 286 286 284 283 283 283 283 284 285 285 286 289 289 286 285 285 286 290 304 290 291 295 309 310 308 295 288
280 280 280 279 277 276 274 274 275 276 276 276 278 278 279 280 285 285 284 282 281 281 282 283 283 284 286 287 286 286 285 283 285 287 287 287 287 288 293 300 292 293 285
280 279 279 280 277 275 274 274 274 274 275 277 277 278 280 279 283 285 283 281 280 280 281 281 284 284 284 284 282 281 282 280 281 282 284 283 284 285 287 287 295 297 285
282 280 279 279 278 277 276 276 275 275 275 275 276 278 278 279 279 282 283 280 279 279 279 279 281 283 284 284 283 281 280 280 281 280 280 281 281 281 282 283 285 289 287
280 279 278 278 278 278 276 275 276 276 275 276 275 276 278 278 280 280 281 280 280 277 277 279 280 282 282 283 282 282 281 280 280 279 278 277 278 278 280 282 283 285 286
279 277 277 277 278 277 276 274 275 275 275 275 274 274 274 277 277 279 279 279 278 275 277 278 279 279 280 279 281 281 280 279 278 277 277 277 278 279 281 281 283 284 283
278 278 278 278 278 278 277 275 274 275 275 275 273 272 273 274 276 277 276 276 276 275 275 275 275 277 276 276 277 278 278 278 278 277 277 278 279 279 279 280 280 280 280
278 277 277 277 276 276 277 275 274 275 275 274 274 272 272 271 274 277 276 275 274 274 273 273 272 272 272 273 274 275 276 277 276 277 277 277 277 278 278 279 279 279 277
276 276 275 275 275 275 274 273 276 277 277 277 277 275 273 275 275 276 276 276 275 274 270 269 268 269 270 270 271 272 273 274 275 276 276 276 276 276 277 278 278 277 277
274 275 274 274 273 272 271 270 267 270 275 276 276 276 275 275 274 274 273 273 273 271 267 266 266 267 267 269 269 270 270 272 274 273 274 274 275 276 276 276 276 276 276
267 269 268 268 266 266 263 264 262 262 258 263 269 273 274 274 273 273 272 269 265 267 266 265 264 265 266 267 267 267 268 268 269 271 271 272 273 274 274 274 275 274 275
268 265 262 261 262 264 266 265 267 266 266 265 262 266 265 272 272 271 270 263 263 263 264 264 264 264 264 265 264 264 264 264 265 266 268 270 270 272 273 274 274 273 274
267 268 267 268 267 268 268 268 268 267 266 266 267 267 266 265 258 260 259 255 260 262 263 263 263 262 261 261 261 261 262 262 263 264 264 266 268 270 270 271 272 272 272
268 269 266 269 268 268 267 267 267 266 265 265 264 262 263 265 262 260 261 258 258 260 257 260 260 259 260 259 259 257 258 257 259 261 263 264 265 265 268 269 270 271 272
269 270 270 269 269 267 267 268 266 265 265 264 263 264 261 260 262 261 260 256 256 258 259 257 257 258 258 256 255 252 255 255 257 258 260 262 264 266 265 266 266 266 269
268 266 268 267 267 264 263 265 263 263 263 262 261 262 263 259 258 260 259 253 257 256 256 255 252 256 255 250 250 252 253 256 257 257 259 261 264 262 260 261 263 264 265
266 263 266 263 261 262 258 257 259 259 260 260 261 262 261 261 259 257 258 256 253 251 250 250 253 255 256 252 249 253 256 255 256 258 259 260 262 263 262 261 261 260 261
261 259 258 257 254 253 253 255 254 255 255 256 259 260 261 261 261 260 260 261 260 257 258 255 253 256 255 255 254 254 252 253 253 253 257 260 260 259 257 257 256 259 259
260 259 257 256 255 253 253 251 250 251 251 254 256 258 257 259 259 259 260 260 260 260 259 259 259 258 258 256 258 257 252 252 252 252 250 256 256 258 259 255 255 255 257

GFSGL_sfc_thetae_120.txt.gz
Theta_e
287 288 288 288 288 288 288 287 287 288 288 288 289 289 290 290 291 291 292 294 295 299 312 314 318 320 320 320 320 321 319 318 314 315 317 319 320 320 320 320 321 321 318
287 287 286 287 287 286 285 285 285 285 287 287 288 288 288 289 289 289 290 291 293 296 301 312 315 319 319 319 319 318 319 320 317 314 313 314 318 319 320 318 319 321 320
286 285 285 285 285 285 285 284 284 284 285 286 286 287 287 288 287 288 289 291 292 295 298 304 315 318 318 318 318 318 319 318 318 316 314 315 316 319 319 319 319 319 319
285 284 283 283 283 284 284 283 283 283 283 283 284 286 287 287 287 287 288 288 289 290 292 293 295 294 296 310 317 318 319 318 317 316 316 314 314 317 318 315 312 312 311
282 281 281 282 282 282 282 281 282 281 281 282 282 284 285 286 286 285 286 286 285 286 287 288 291 291 291 291 301 317 318 318 317 315 314 313 313 313 313 316 313 305 301
281 280 280 280 280 279 279 279 279 279 279 280 281 281 282 285 286 286 285 284 284 283 283 284 287 288 288 290 291 294 297 317 315 315 315 313 313 314 315 315 304 301 302
281 280 280 279 278 277 277 277 276 276 277 279 279 280 280 283 285 285 285 283 282 282 282 283 284 285 285 288 290 288 287 287 288 299 313 314 314 316 315 313 307 310 308
280 280 279 278 277 276 276 275 275 275 275 277 278 278 278 281 284 284 283 282 281 281 281 282 282 283 284 285 287 287 285 285 285 286 286 287 291 314 317 315 312 301 289
279 278 279 278 276 275 273 273 274 274 274 275 278 277 277 278 282 283 280 279 279 279 280 281 282 282 284 285 283 284 284 283 286 287 286 287 287 287 294 306 297 298 286
278 278 279 278 276 274 274 274 274 269 273 275 275 277 279 277 281 281 280 278 276 278 279 279 282 282 284 284 280 280 279 279 281 284 285 285 285 285 286 287 301 302 287
280 279 278 278 277 276 274 274 274 272 274 273 273 274 275 277 277 280 280 276 275 276 276 276 278 281 282 283 282 280 279 280 280 281 282 283 283 282 282 284 285 288 288
278 279 278 277 278 277 274 274 275 275 273 272 272 272 273 275 278 278 279 278 277 274 274 276 277 279 280 281 280 281 281 280 279 279 279 278 279 280 281 282 284 284 285
278 277 277 277 278 276 274 273 273 274 273 271 271 270 271 273 274 277 277 277 276 272 274 275 276 277 277 276 278 279 277 277 277 276 276 277 278 280 281 281 283 284 284
277 277 277 277 276 275 275 274 273 273 272 272 270 269 270 271 272 273 273 273 273 272 271 271 272 274 273 273 274 274 275 275 275 275 276 277 279 279 279 280 280 280 281
276 276 276 275 275 274 273 273 273 274 274 272 270 270 270 269 271 274 273 272 271 270 269 269 268 268 268 269 270 271 272 272 272 274 275 275 276 277 277 279 278 279 277
275 275 274 274 273 273 272 271 275 276 276 276 276 274 270 274 274 274 273 273 272 271 266 264 264 265 265 266 266 267 268 269 270 272 272 273 274 275 276 277 278 277 276
273 273 272 272 271 270 269 268 266 269 274 274 275 275 275 274 274 273 272 271 271 268 264 263 263 263 264 265 265 265 265 267 268 269 270 270 272 275 275 275 275 276 276
266 267 266 266 265 264 259 260 258 260 258 262 268 272 273 273 273 272 271 268 264 265 264 262 262 262 263 263 263 263 264 264 265 266 267 268 269 271 273 274 274 273 274
263 261 260 262 262 262 263 263 262 262 262 263 264 267 265 272 271 270 268 260 262 262 263 263 262 262 261 261 260 260 261 261 262 263 264 266 267 269 270 272 273 273 273
264 266 266 266 266 266 265 265 266 265 265 264 264 264 266 265 260 260 259 256 260 262 261 262 262 261 260 260 259 258 259 259 260 261 262 263 265 267 268 269 271 271 273
266 268 266 268 267 266 265 266 265 265 264 264 263 261 263 264 263 261 262 260 259 261 260 260 260 259 259 259 259 257 258 258 259 259 260 262 263 265 266 268 269 270 272
268 269 268 267 267 264 265 265 263 263 262 261 261 262 261 261 261 262 262 260 257 259 261 259 259 259 259 257 256 254 257 257 258 258 259 260 263 265 265 265 265 267 269
267 265 266 264 264 261 260 261 260 259 259 258 260 261 261 261 260 260 259 258 260 259 258 257 256 258 259 255 254 255 255 257 257 257 259 260 262 263 264 264 264 264 264
264 262 264 262 259 259 254 253 255 256 257 256 254 257 257 259 259 259 260 260 261 260 260 258 258 259 259 258 256 256 258 256 257 257 255 259 261 262 262 263 263 262 262
259 257 256 255 252 249 249 251 249 248 249 250 252 254 256 256 256 256 256 258 258 259 259 259 259 259 259 259 259 259 255 253 254 252 256 257 258 260 261 260 259 261 261
259 258 255 254 251 250 247 245 244 244 245 247 247 248 249 251 253 252 253 254 254 255 256 257 258 258 257 259 260 262 257 253 254 253 252 256 256 257 258 259 259 259 259

GFSGL_sfc_thetae_123.txt.gz
Theta_e
288 288 287 287 288 288 286 286 287 287 287 287 288 289 289 290 290 290 291 294 294 296 299 301 304 311 316 319 321 321 320 319 315 321 327 328 328 329 327 325 325 325 323
287 287 287 287 287 286 286 286 286 285 286 286 287 288 288 289 289 289 290 291 291 292 294 295 298 298 306 319 320 319 319 319 317 315 321 325 326 326 327 324 324 323 323
286 285 285 285 285 285 285 285 285 285 285 285 285 286 287 287 288 288 288 288 288 289 289 291 292 292 291 293 296 316 320 319 318 317 318 324 323 324 322 322 320 320 321
285 284 283 283 283 284 285 284 284 284 284 283 284 285 286 286 287 287 287 287 287 287 287 288 288 288 288 289 293 297 304 317 318 319 316 314 316 319 319 317 316 318 319
283 282 282 283 282 283 283 283 283 283 283 283 283 283 285 285 285 286 286 286 285 285 287 286 287 287 288 288 291 291 292 297 316 316 314 315 315 314 314 318 316 316 314
282 281 281 281 281 281 281 281 282 281 282 282 281 281 283 284 285 284 285 284 285 284 284 284 285 286 286 286 288 289 288 287 287 313 315 314 315 316 317 315 314 307 306
282 281 281 280 279 279 280 280 280 280 280 280 280 280 281 283 283 283 283 284 283 283 282 283 283 284 284 284 285 286 287 286 286 286 291 304 305 316 321 315 314 313 311
281 280 280 279 279 279 279 278 278 279 278 278 279 279 280 282 282 282 281 283 283 282 281 283 283 283 284 283 282 282 283 283 283 285 285 285 286 287 290 314 317 307 293
280 279 279 278 277 277 276 277 278 278 278 278 278 278 279 279 281 281 280 281 281 281 281 281 282 282 283 284 282 280 280 281 283 285 285 286 286 287 287 296 305 301 288
279 279 280 279 277 276 277 278 279 278 277 278 277 277 277 278 279 280 279 279 277 279 279 280 280 280 281 281 280 279 279 279 280 281 282 283 284 284 285 285 286 293 291
281 280 280 279 278 277 278 278 278 277 276 275 275 276 276 277 278 279 278 277 276 276 277 277 279 279 279 280 280 278 278 280 280 280 280 280 281 281 282 284 285 285 285
281 280 279 278 278 278 277 277 277 276 275 274 274 275 276 277 276 276 277 276 275 275 274 275 276 276 277 277 277 277 277 277 278 278 279 278 278 279 281 282 284 285 285
280 278 278 278 278 278 277 276 276 276 275 274 274 273 274 276 276 275 275 275 273 272 274 273 273 274 274 274 275 275 274 274 275 275 275 277 279 280 281 281 283 284 285
278 278 278 278 276 277 277 277 276 275 275 273 272 273 273 273 275 275 275 274 272 271 271 271 271 272 271 271 272 272 272 272 272 273 274 276 279 280 280 280 279 280 281
278 277 277 277 276 275 276 276 275 276 275 274 274 273 272 272 273 274 273 273 272 270 270 270 269 269 269 269 269 269 270 270 270 272 273 273 274 278 279 280 280 280 278
276 276 276 276 275 275 274 274 275 275 275 275 275 275 274 274 273 273 272 272 271 270 269 267 267 267 267 267 267 267 268 268 269 270 271 272 272 274 277 278 278 278 278
275 275 275 274 274 273 272 272 271 273 273 274 273 274 274 273 273 272 271 270 270 270 268 267 266 266 266 266 265 266 266 267 268 269 270 270 271 272 274 276 277 277 277
272 270 273 273 273 272 272 271 271 269 269 270 272 272 272 273 272 271 270 270 269 269 268 267 266 266 266 266 265 265 265 266 266 266 268 269 269 271 272 273 275 275 276
273 272 272 272 272 272 272 272 271 271 270 270 271 271 271 271 271 271 271 269 268 267 268 267 267 267 266 266 266 265 266 265 265 265 266 267 268 270 271 271 273 273 275
272 270 272 273 273 272 272 271 270 270 270 270 269 267 269 271 269 269 270 269 268 268 268 268 268 267 267 266 266 265 266 265 265 265 265 266 267 269 270 270 272 272 273
274 273 271 272 271 271 270 269 268 268 267 267 267 266 265 268 267 267 267 266 266 267 267 267 268 268 267 267 266 265 265 265 264 264 265 266 266 268 269 271 271 271 272
273 272 271 270 269 268 268 267 267 266 265 265 266 266 264 266 266 265 265 264 265 266 266 265 266 267 267 266 265 265 265 264 264 264 264 264 266 267 268 269 270 270 271
271 270 269 268 267 265 265 265 264 264 264 263 264 264 264 263 263 263 263 263 264 264 264 264 264 263 265 265 266 265 265 264 264 264 263 264 265 265 267 267 268 269 269
269 269 267 266 265 264 263 262 262 260 261 261 262 262 261 261 261 260 260 261 261 261 262 261 262 261 262 262 264 265 266 265 264 264 263 263 264 264 265 265 267 267 268
267 265 265 264 263 262 262 261 260 259 259 259 259 259 259 259 259 259 258 258 257 258 258 259 259 259 259 259 261 261 262 262 261 260 264 264 263 263 263 264 265 266 267
265 264 263 263 262 261 260 259 258 258 257 257 257 258 257 257 257 257 256 256 255 256 256 257 257 257 257 259 260 259 260 262 262 259 261 264 263 263 263 263 264 265 266

GFSGL_sfc_thetae_126.txt.gz
Theta_e
290 290 290 290 290 290 289 289 289 290 289 289 289 289 289 290 291 291 291 291 291 292 293 294 297 296 297 299 308 317 322 319 318 323 325 327 330 331 331 334 332 333 331
290 289 289 289 289 289 289 288 289 288 289 288 289 289 289 289 289 289 288 289 288 288 288 290 289 291 291 293 294 298 304 320 319 315 320 324 325 329 331 330 331 329 331
289 289 289 289 289 288 288 288 288 289 288 287 288 287 288 288 288 289 288 288 288 288 288 288 287 288 288 289 291 295 298 301 306 316 316 320 321 325 327 329 328 330 326
289 288 288 288 288 287 288 288 288 288 287 287 287 287 288 287 286 287 288 288 288 287 288 287 287 286 287 287 290 291 292 294 297 301 316 321 319 322 327 326 320 322 321
288 286 286 287 287 287 286 287 287 287 287 287 287 288 288 286 285 285 288 288 287 286 287 287 287 287 287 286 287 288 287 287 290 292 298 307 318 316 317 319 317 320 318
286 285 285 285 285 285 285 286 286 286 285 285 285 286 286 284 282 283 285 286 285 284 284 285 286 286 285 286 285 285 285 284 284 286 288 288 291 291 308 316 316 315 311
285 284 284 284 283 283 283 283 284 284 284 282 283 284 283 284 282 282 283 284 284 283 283 283 283 284 285 286 286 285 284 284 284 284 284 284 285 286 286 289 309 316 315
284 282 283 282 282 282 282 281 282 282 281 281 280 281 282 282 280 281 282 284 284 283 282 282 282 282 283 284 284 284 285 283 283 284 283 284 284 285 286 287 289 295 308
282 281 281 281 280 280 280 280 281 281 281 280 280 279 279 280 280 279 281 284 283 282 282 282 281 281 280 281 281 281 282 283 285 285 285 284 284 285 285 285 285 288 294
281 282 282 281 279 279 280 280 280 281 280 281 280 279 278 278 278 278 279 280 280 281 281 281 278 278 278 279 279 279 278 280 282 283 284 284 284 283 284 283 283 283 286
283 282 281 281 280 280 281 281 280 280 280 279 280 280 279 278 278 278 277 277 278 278 278 278 278 276 277 277 277 278 276 280 281 282 282 282 283 283 282 282 283 283 282
282 281 280 280 281 281 280 281 280 280 279 279 279 279 280 279 277 277 276 275 275 276 275 276 276 275 275 275 276 276 276 278 280 280 280 278 278 280 282 283 283 283 285
281 279 280 280 280 281 280 280 280 280 279 278 278 278 278 278 278 276 276 275 274 275 275 274 274 274 274 274 274 275 275 277 277 277 276 277 277 279 283 283 284 284 284
281 281 281 279 279 280 280 280 279 278 278 278 277 276 276 276 276 276 276 276 274 274 274 275 274 274 273 273 275 275 275 275 275 275 275 277 278 278 279 282 281 282 283
280 280 280 279 279 278 278 278 278 277 276 276 276 276 274 273 274 274 274 274 273 273 274 274 274 273 273 273 273 273 274 274 273 274 274 275 275 276 277 279 280 281 280
279 279 279 279 279 278 278 276 275 275 275 275 275 275 276 274 273 273 273 273 273 273 274 272 271 271 271 271 271 271 272 271 271 272 273 273 273 274 275 277 278 279 281
279 278 278 278 277 277 277 276 276 275 273 273 273 274 274 273 273 273 273 273 273 274 272 272 271 271 271 271 270 270 270 271 271 271 272 272 272 273 275 275 276 277 277
276 276 278 277 277 277 276 276 276 275 274 275 274 273 273 273 273 273 273 274 273 273 272 272 271 271 271 270 270 270 270 270 270 270 270 271 271 273 273 274 275 274 275
277 277 277 277 276 275 277 277 276 275 275 275 275 273 273 273 273 273 273 273 272 272 272 271 272 271 271 271 270 270 270 269 269 269 269 270 271 271 272 272 274 273 274
275 274 276 277 277 276 276 275 274 274 273 273 272 270 271 273 272 272 272 271 271 270 271 270 271 271 271 270 270 270 270 269 269 269 269 269 270 270 270 271 272 273 273
278 276 273 276 275 275 274 273 273 272 271 272 271 268 267 270 270 270 269 269 269 269 269 269 269 269 269 269 269 269 268 269 268 268 268 268 269 269 269 270 271 272 272
276 275 275 274 273 272 272 272 271 271 270 269 270 269 267 269 269 268 268 267 268 268 268 267 267 267 267 266 267 267 267 267 267 267 267 267 268 268 268 269 269 270 271
275 274 273 272 271 269 270 270 269 270 269 269 268 268 267 267 267 266 266 265 266 265 266 265 265 265 265 265 266 266 265 265 266 267 266 266 267 267 267 267 267 268 269
274 273 271 271 270 269 269 268 268 265 266 267 267 267 266 265 265 264 264 264 263 263 264 263 263 262 261 262 264 265 264 264 265 266 265 266 266 266 267 266 267 267 268
272 271 270 270 269 268 268 268 267 266 266 266 265 265 264 264 264 263 263 262 260 261 261 261 261 261 260 260 262 261 260 260 263 264 266 265 266 266 266 265 265 266 267
271 270 270 269 269 268 268 267 266 265 264 264 264 264 263 262 262 261 261 260 259 259 260 260 260 259 259 261 261 259 259 260 261 262 265 266 266 265 265 264 265 265 266